     2              OBSERVATION DATA    GPS                 RINEX VERSION / TYPE
teqc 2002Apr29 battag 20030505 23:08:52UTC                  PGM / RUN BY / DATE
                                                            COMMENT
L2: 1 -> 1; 5 -> 5; 60 -> 9                                 COMMENT
L2: 1 -> 1; 5 -> 5; 60 -> 9                                 COMMENT
L2: 1 -> 1; 5 -> 5; 60 -> 9                                 COMMENT
L2: 1 -> 1; 5 -> 5; 60 -> 9                                 COMMENT
L2: 1 -> 1; 5 -> 5; 60 -> 9                                 COMMENT
Original Marker Name: 15110140                              COMMENT
Campaign Name: UC Berkeley Central Calif 2003-2004          COMMENT
4-Character Station Name: 05TH                              COMMENT
6-Character Antenna Code: TRZEPH                            COMMENT
Vertical Measurement Point: MGP                             COMMENT
Vertical Offset to Rinex Ref. Point: 0.0443                 COMMENT
Radial Measurement Point: OGP                               COMMENT
Radial Offset to Rinex Ref. Point: 0.1698                   COMMENT
Antenna Height from Field Measurement: 1.3858 m             COMMENT
Original XYZ: -2646822.6355 -4415415.2831 3753297.5816      COMMENT
New XYZ position is based on association with SCEC monument COMMENT
E1F0Y7Z3+0011. Position of that monument is believed to be  COMMENT
valid to within 1 m horizontally; vertical accuracy         COMMENT
should be no worse than 3-times this value.                 COMMENT
                                                            COMMENT
Revised Rinex header created by UCSD GPS archive for        COMMENT
GSAC on 04-Feb-2005 (2005:035) 16:33:31 GMT                 COMMENT
For assistance contact dagnew@ucsd.edu                      COMMENT
or anderson@python.ucsd.edu                                 COMMENT
                                                            COMMENT
MON 25PN 10.1 1998 LS 3728                                  MARKER NAME
05th                                                        MARKER NUMBER
-Unknown- UNIV CALIF BERKELEY                               OBSERVER / AGENCY
220281511 TRIMBLE 5700 NP 1.20 / SP 0.00                    REC # / TYPE / VERS
12337951 TRM41249.00                                        ANT # / TYPE
 -2646823.0000 -4415417.0000  3753296.0000                  APPROX POSITION XYZ
        1.3311        0.0000        0.0000                  ANTENNA: DELTA H/E/N
     1     1     0                                          WAVELENGTH FACT L1/2
     7    L1    L2    C1    P1    P2    S1    S2            # / TYPES OF OBSERV
    30                                                      INTERVAL
  2003     1    14    16    50    0.000000                  TIME OF FIRST OBS
  2003     1    15     0    10   60.000000                  TIME OF LAST OBS
                                                            END OF HEADER
 03  1 14 16 50  0.0000000  0  9G 7G 8G10G13G26G27G28G29G31
   -244997.82059   -160508.84456  23653730.9304                   23653732.7384
        41.0004         24.0004
    -72692.59059    -55615.09458  20204513.1724                   20204511.2074
        51.2504         41.5004
      8427.96559     18898.45656  24017913.6414                   24017913.6644
        42.2504         24.2504
    139907.30159     93366.11457  23103357.8754                   23103357.3984
        44.7504         29.0004
   -208063.17259   -158469.13256  24136060.9614                   24136059.3404
        38.0004         20.5004
    -24664.71159    -21668.02358  20660996.6884                   20660994.7274
        50.2504         40.5004
   -113273.80559    -85142.34958  20862931.2504                   20862927.7704
        50.7504         41.5004
   -225055.97759   -161823.62257  23402990.1414                   23402988.6644
        43.5004         27.7504
     88958.11359     58716.54357  22804457.9064                   22804457.3524
        45.0004         29.5004
 03  1 14 16 50 30.0000000  0  9G 7G 8G10G13G26G27G28G29G31
   -380244.36749   -265895.65046  23627994.3054                   23627995.2424
        42.7504         25.5004
   -111858.75449    -86134.20948  20197060.0704                   20197057.9694
        51.2504         42.0004
     31113.05549     36575.09156  24022230.7664                   24022229.3634
        42.7504         22.5004
    213811.87949    150953.95347  23117421.4844                   23117420.6374
        45.0004         28.2504
   -336828.37549   -258805.69946  24111558.0314                   24111556.6334
        37.5004         19.5004
    -38157.55549    -32181.96548  20658429.2274                   20658427.0004
        50.7504         40.5004
   -173845.95749   -132341.45948  20851404.8134                   20851401.3524
        50.5004         40.7504
   -344742.06649   -255085.52647  23380215.2424                   23380213.1684
        44.5004         27.7504
    136808.38749     96002.36747  22813563.8134                   22813563.3014
        44.5004         30.2504
 03  1 14 16 51  0.0000000  0  9G 7G 8G10G13G26G27G28G29G31
   -515448.78949   -371249.59447  23602265.7584                   23602267.4064
        44.0004         26.0004
   -150788.94149   -116469.45148  20189652.1484                   20189649.7934
        51.5004         42.0004
     54062.43049     54457.65246  24026597.3284                   24026596.7504
        42.5004         22.2504
    287850.75449    208646.41447  23131510.5394                   23131509.7344
        44.2504         27.0004
   -465436.48449   -359019.88346  24087084.2504                   24087083.0004
        36.5004         17.7504
    -51421.03549    -42517.17648  20655905.3284                   20655902.6054
        50.5004         40.2504
   -234157.93049   -179337.81948  20839927.6334                   20839923.9104
        50.5004         41.0004
   -464211.91449   -348178.92247  23357480.2034                   23357478.8364
        43.0004         27.2504
    185023.85949    133572.77347  22822739.4064                   22822738.6484
        45.0004         30.2504
 03  1 14 16 51 30.0000000  0  9G 7G 8G10G13G26G27G28G29G31
   -650568.79349   -476537.78847  23576553.1484                   23576555.0864
        45.2504         27.0004
   -189442.55549   -146589.16048  20182296.7734                   20182294.6414
        51.5004         41.5004
     77313.30549     72575.05746  24031022.7974                   24031021.0984
        41.5004         22.0004
    362060.94149    266472.40547  23145632.7974                   23145632.1484
        46.7504         29.5004
   -593845.08649   -459078.61046  24062649.9774                   24062647.4304
        38.2504         19.0004
    -64414.69949    -52642.13148  20653432.5314                   20653430.0124
        50.5004         40.2504
   -294170.75449   -226101.09348  20828507.6484                   20828504.3134
        51.2504         41.2504
   -583423.13749   -441070.81347  23334795.5164                   23334794.1024
        43.5004         26.7504
    233641.47349    171456.51247  22831991.2504                   22831990.3324
        44.7504         30.2504
 03  1 14 16 52  0.0000000  0  9G 7G 8G10G13G26G27G28G29G31
   -785595.02049   -581752.87747  23550857.9144                   23550860.1764
        42.5004         26.0004
   -227811.49649   -176487.05848  20174995.5394                   20174992.9774
        51.5004         42.0004
    100869.75849     90930.62646  24035504.5554                   24035504.9224
        41.0004         22.7504
    436447.33649    324435.62247  23159787.0164                   23159787.1254
        43.7504         26.0004
   -722044.80349   -558974.56646  24038254.1094                   24038252.9654
        39.5004         18.2504
    -77130.53149    -62550.60948  20651012.9224                   20651010.7034
        50.5004         40.5004
   -353877.72349   -272626.01848  20817145.8984                   20817142.6524
        51.0004         41.0004
   -702366.46549   -533753.94947  23312160.9614                   23312159.5664
        43.0004         27.7504
    282665.57049    209657.02847  22841320.3444                   22841319.0434
        45.2504         29.0004
 03  1 14 16 52 30.0000000  0  9G 7G 8G10G13G26G27G28G29G31
   -920513.62149   -686884.07947  23525183.6644                   23525185.5744
        43.5004         26.0004
   -265883.35249   -206153.46148  20167750.1334                   20167747.8404
        51.2504         42.0004
    124740.26249    109530.91046  24040046.8984                   24040047.1214
        42.0004         22.5004
    511018.73449    382543.06447  23173978.8134                   23173978.0944
        46.7504         28.0004
   -850021.23449   -658696.53246  24013901.7894                   24013899.5084
        40.0004         20.7504
    -89556.32849    -72233.08048  20648648.1804                   20648645.9964
        50.2504         40.2504
   -413267.84449   -318904.04648  20805844.3674                   20805840.7894
        51.2504         41.2504
   -821027.44949   -626217.05547  23289579.9614                   23289578.8444
        42.5004         26.7504
    332105.19549    248181.31647  22850727.9774                   22850727.1414
        45.2504         29.0004
 03  1 14 16 53  0.0000000  0  9G 7G 8G10G13G26G27G28G29G31
  -1055329.49249   -791935.31347  23499529.3914                   23499530.3484
        45.0004         27.2504
   -303664.70749   -235593.50648  20160561.0084                   20160558.4304
        51.5004         41.7504
    148914.90649    128368.16846  24044646.9614                   24044647.7854
        39.2504         22.5004
    585765.27749    440786.98547  23188202.3364                   23188201.8164
        45.0004         27.0004
   -977779.39149   -758248.39646  23989590.1024                   23989588.3404
        40.2504         21.2504
   -101698.60549    -81694.62648  20646337.7114                   20646335.6564
        50.5004         41.0004
   -472349.27049   -364941.54648  20794601.9304                   20794598.1454
        51.5004         41.0004
   -939411.25849   -718464.16447  23267052.7734                   23267051.2704
        43.7504         27.5004
    381949.96149    287021.29647  22860213.7194                   22860212.1174
        44.5004         28.2504
 03  1 14 16 53 30.0000000  0  9G 7G 8G10G13G26G27G28G29G31
  -1190032.98049   -896898.95747  23473896.1804                   23473897.2814
        43.5004         27.2504
   -341147.23849   -264800.68448  20153428.2974                   20153425.8204
        51.0004         42.0004
    173398.07849    147445.86246  24049306.5784                   24049307.3444
        41.0004         22.7504
    660692.03949    499171.28047  23202460.5234                   23202460.8634
        45.0004         28.2504
  -1105309.35249   -857622.49046  23965322.3524                   23965319.5634
        39.7504         22.5004
   -113549.25449    -90928.93048  20644082.5234                   20644080.4414
        50.7504         40.5004
   -531115.10249   -410733.12148  20783418.8364                   20783415.5434
        50.5004         41.5004
  -1057507.93449   -810487.56647  23244579.3674                   23244578.6254
        42.5004         28.2504
    432204.65649    326180.72247  22869776.3134                   22869774.9964
        43.7504         26.7504
 03  1 14 16 54  0.0000000  0  9G 7G 8G10G13G26G27G28G29G31
  -1324620.82849  -1001772.48246  23448284.5474                   23448285.4104
        42.2504         25.5004
   -378329.22349   -293773.68448  20146352.5004                   20146350.3054
        50.5004         41.7504
    198188.00049    166762.51546  24054024.3834                   24054024.5904
        41.2504         22.7504
    735797.05949    557694.55647  23216752.8674                   23216751.9574
        46.5004         26.0004
  -1232607.59049   -956816.01646  23941097.8834                   23941096.5904
        40.5004         22.5004
   -125106.75849    -99934.80248  20641883.3054                   20641881.1334
        50.0004         39.5004
   -589565.09849   -456278.59048  20772296.2584                   20772292.8244
        50.7504         41.0004
  -1175314.10949   -902284.59347  23222162.4454                   23222160.9494
        43.0004         27.5004
    482867.17249    365657.93247  22879417.4384                   22879416.0004
        45.0004         28.0004
 03  1 14 16 54 30.0000000  0  9G 7G 8G10G13G26G27G28G29G31
  -1459089.64549  -1106553.29547  23422696.0234                   23422697.0784
        43.5004         26.5004
   -415208.78949   -322511.03148  20139334.7424                   20139332.3794
        51.0004         42.2504
    223282.68049    186316.73846  24058799.1884                   24058799.8714
        40.0004         22.7504
    811079.12949    616355.76447  23231077.8594                   23231077.9184
        44.0004         25.7504
  -1359670.75849  -1055826.28046  23916918.7424                   23916917.8204
        40.7504         25.5004
   -136369.04749   -108710.63148  20639740.2894                   20639738.0204
        50.5004         40.0004
   -647698.75849   -501577.55848  20761233.6804                   20761230.5164
        51.0004         41.5004
  -1292826.25849   -993852.50547  23199800.4844                   23199799.2664
        43.5004         28.2504
    533936.07449    405451.78047  22889135.1884                   22889134.5164
        44.2504         27.0004
 03  1 14 16 55  0.0000000  0  9G 7G 8G10G13G26G27G28G29G31
  -1593432.94549  -1211236.30147  23397131.3204                   23397132.9104
        44.5004         28.7504
   -451780.78949   -351008.72148  20132375.3754                   20132373.3524
        50.5004         42.0004
    248683.46149    206109.43746  24063632.9454                   24063633.6414
        40.5004         22.5004
    886540.18849    675156.37647  23245439.1334                   23245439.1914
        46.5004         29.7504
  -1486491.97349  -1154648.05046  23892784.6254                   23892783.9304
        41.5004         25.5004
   -147331.38349   -117252.75248  20637653.8914                   20637652.0394
        51.0004         40.0004
   -705512.48849   -546627.24448  20750232.0084                   20750228.6294
        51.2504         41.0004
  -1410037.70349  -1085186.10147  23177495.8284                   23177494.2934
        43.5004         28.5004
    585412.61749    445563.27147  22898931.3134                   22898930.4654
        44.0004         28.5004
 03  1 14 16 55 30.0000000  0  9G 7G 8G10G13G26G27G28G29G31
  -1727655.12149  -1315824.90147  23371589.6724                   23371590.7504
        45.0004         27.2504
   -488051.07849   -379271.31248  20125473.4304                   20125470.8874
        51.0004         41.5004
    274380.86549    226133.15846  24068523.1094                   24068523.4574
        39.5004         22.7504
    962170.59849    734089.02246  23259829.8984                   23259829.8444
        45.5004         25.5004
  -1613075.43049  -1253284.61546  23868696.7194                   23868695.8714
        39.0004         25.0004
   -157999.70749   -125565.75348  20635623.7664                   20635622.1604
        51.2504         40.2504
   -763013.77049   -591433.44948  20739290.0314                   20739286.3244
        50.5004         41.7504
  -1526952.71949  -1176288.72147  23155247.4844                   23155246.1134
        43.2504         29.5004
    637287.27349    485984.96547  22908802.6954                   22908801.9024
        44.2504         28.5004
 03  1 14 16 56  0.0000000  0  9G 7G 8G10G13G26G27G28G29G31
  -1861747.55949  -1420312.45246  23346072.2194                   23346073.9304
        43.0004         25.0004
   -524012.75049   -407293.42548  20118630.1094                   20118627.8674
        51.5004         41.7504
    300378.05949    246390.60846  24073470.7664                   24073471.5204
        39.2504         22.7504
   1037974.00449    793156.45346  23274254.9064                   23274254.6724
        43.7504         23.7504
  -1739412.40649  -1351729.05846  23844656.6804                   23844654.6684
        40.7504         25.2504
   -168367.18449   -133644.34048  20633651.1564                   20633649.2624
        51.0004         41.0004
   -820196.94949   -635991.78448  20728408.0084                   20728405.1564
        50.5004         41.7504
  -1643562.58649  -1267153.56647  23133057.6094                   23133056.4264
        43.7504         29.0004
    689563.39849    526719.48347  22918750.3594                   22918750.0044
        43.2504         29.0004
 03  1 14 16 56 30.0000000  0  9G 7G 8G10G13G26G27G28G29G31
  -1995706.10949  -1524695.64347  23320581.0004                   23320582.1174
        44.0004         27.0004
   -559662.93049   -435072.81748  20111845.7894                   20111843.6724
        50.7504         41.5004
    326673.80149    266880.64646  24078475.3834                   24078474.9304
        40.5004         25.0004
   1113949.52749    852357.98847  23288713.8364                   23288713.9804
        47.0004         30.5004
  -1865498.57849  -1449978.11046  23820663.4694                   23820662.0474
        39.7504         24.7504
   -178431.01649   -141486.32648  20631736.2424                   20631734.1524
        50.0004         41.0004
   -877060.78949   -680301.27948  20717587.4454                   20717584.2194
        51.2504         41.7504
  -1759863.11349  -1357777.35247  23110926.2504                   23110925.0204
        44.2504         28.7504
    742240.13349    567766.14147  22928774.8984                   22928774.3444
        44.2504         31.5004
 03  1 14 16 57  0.0000000  0  9G 7G 8G10G13G26G27G28G29G31
  -2129534.48849  -1628977.40247  23295114.9694                   23295116.0744
        46.2504         30.2504
   -595006.96149   -462613.64948  20105120.4454                   20105118.1524
        51.7504         42.0004
    353258.91849    287596.19046  24083533.9144                   24083534.5514
        40.0004         22.5004
   1190088.93049    911687.20147  23303201.7504                   23303202.9924
        44.0004         26.0004
  -1991337.59849  -1548034.47646  23796716.0004                   23796715.1684
        37.5004         22.7504
   -188196.78149   -149096.03448  20629877.7274                   20629876.1414
        51.0004         40.2504
   -933612.26249   -724367.36748  20706826.2734                   20706822.8834
        50.7504         41.7504
  -1875857.91849  -1448162.91247  23088853.0164                   23088851.5904
        43.0004         28.5004
    795308.29349    609117.83347  22938873.6954                   22938873.4454
        46.2504         31.7504
 03  1 14 16 57 29.9990000  0  9G 7G 8G10G13G26G27G28G29G31
  -2263225.37549  -1733152.04447  23269673.9014                   23269675.0694
        44.0004         28.7504
   -630042.33649   -489913.96248  20098453.3624                   20098451.1364
        50.5004         41.7504
    380130.28149    308534.78646  24088647.1904                   24088647.2884
        41.0004         24.7504
   1266387.63349    971140.56346  23317721.7144                   23317720.7224
        44.5004         22.5004
  -2116922.02349  -1645892.50546  23772817.8004                   23772816.9374
        37.2504         22.7504
   -197662.88349   -156472.23948  20628076.6204                   20628074.6054
        50.5004         40.2504
   -989849.46549   -768188.57848  20696124.5194                   20696121.2534
        50.2504         42.0004
  -1991540.18449  -1538304.95847  23066839.5654                   23066837.9014
        43.0004         28.7504
    848764.14149    650771.63647  22949045.8234                   22949045.7264
        47.0004         31.2504
 03  1 14 16 57 59.9990000  0  9G 7G 8G10G13G26G27G28G29G31
  -2396772.72349  -1837214.76146  23244259.0344                   23244261.2924
        41.7504         22.5004
   -664757.60949   -516964.85948  20091847.0034                   20091845.3044
        50.7504         41.2504
    407299.57049    329705.52746  24093817.7304                   24093818.1404
        42.0004         25.2504
   1342860.91849   1030730.02547  23332274.1444                   23332274.8234
        45.5004         28.5004
  -2242245.08249  -1743546.85446  23748969.0034                   23748968.8514
        37.2504         22.5004
   -206816.48049   -163604.93748  20626334.6054                   20626332.9214
        50.5004         40.2504
  -1045764.02349   -811758.37448  20685484.1984                   20685481.3394
        50.5004         41.7504
  -2106902.12149  -1628197.39647  23044886.6284                   23044885.4404
        42.7504         29.2504
    902620.75049    692737.68447  22959294.9564                   22959294.1874
        46.2504         31.0004
 03  1 14 16 58 29.9990000  0  9G 7G 8G10G13G26G27G28G29G31
  -2530246.00449  -1941219.86347  23218861.5424                   23218862.0424
        46.5004         27.7504
   -699227.42249   -543824.49148  20085288.0894                   20085285.4724
        50.2504         41.5004
    434686.37949    351045.74746  24099029.2764                   24099029.7264
        42.5004         24.2504
   1419427.06349   1090391.72646  23346843.1444                   23346845.4644
        41.7504         22.7504
  -2367376.42249  -1841051.83646  23725158.6834                   23725157.2764
        39.7504         24.5004
   -215732.88349   -170552.81048  20624637.9724                   20624635.7694
        50.5004         39.7504
  -1101431.12949   -855135.34148  20674891.4334                   20674888.1364
        50.7504         41.5004
  -2222014.16849  -1717895.08347  23022982.0734                   23022980.4134
        44.2504         29.5004
    956797.16049    734952.96447  22969603.8084                   22969603.7654
        44.2504         29.7504
 03  1 14 16 58 59.9990000  0  9G 7G 8G10G13G26G27G28G29G31
  -2663590.82049  -2045124.82747  23193487.2374                   23193487.7064
        45.5004         30.2504
   -733398.78549   -570451.55048  20078785.3784                   20078783.1674
        50.2504         41.5004
    462339.85249    372593.80847  24104291.2374                   24104292.5774
        41.0004         26.0004
   1496135.87549   1150164.57946  23361441.7614                   23361442.3514
        44.5004         22.5004
  -2492261.29749  -1938364.75246  23701394.2374                   23701392.7454
        40.7504         23.7504
   -224359.36749   -177274.77948  20622996.3234                   20622994.4684
        50.7504         40.0004
  -1156799.37949   -898279.44848  20664355.0034                   20664352.0264
        51.0004         41.5004
  -2336821.61749  -1807355.45847  23001134.7224                   23001133.7414
        43.5004         29.0004
   1011342.98049    777456.09147  22979983.9564                   22979983.2924
        43.2504         28.2504
 03  1 14 16 59 29.9990000  0  9G 7G 8G10G13G26G27G28G29G31
  -2796790.39549  -2148916.51547  23168137.8864                   23168140.2924
        40.7504         25.7504
   -767256.05549   -596833.86048  20072342.2614                   20072340.3824
        50.5004         41.5004
    490271.64549    394358.67947  24109606.7764                   24109607.4484
        42.0004         26.0004
   1572999.15649   1210058.03446  23376068.1284                   23376067.4054
        43.7504         22.5004
  -2616882.74649  -2035472.39646  23677679.0344                   23677678.3944
        40.7504         24.7504
   -232680.55949   -183758.84448  20621412.8004                   20621410.9174
        51.0004         40.0004
  -1211854.98449   -941179.92748  20653878.1444                   20653875.2304
        51.0004         41.0004
  -2451307.40649  -1896565.14947  22979348.9804                   22979347.0034
        44.0004         30.0004
   1066269.80549    820256.08846  22990435.6364                   22990435.7024
        40.7504         25.0004
 03  1 14 16 59 59.9990000  0 10G 7G 8G10G13G26G27G28G29G31G11
  -2929846.08249  -2252596.12047  23142819.7694                   23142819.4834
        46.0004         26.0004
   -800802.29349   -622973.82048  20065958.8944                   20065956.5974
        51.0004         41.5004
    518475.32049    416335.42946  24114974.2374                   24114975.1834
        42.5004         25.5004
   1650011.09049   1270067.07946  23390721.8474                   23390723.9954
        39.0004         20.5004
  -2741241.88349  -2132375.70446  23654014.4334                   23654011.9604
        40.5004         22.7504
   -240699.58249   -190007.46848  20619886.8864                   20619885.1444
        50.2504         39.7504
  -1266602.21949   -983840.12248  20643460.3394                   20643456.7964
        50.5004         41.2504
  -2565472.97349  -1985525.33747  22957624.3864                   22957622.5154
        45.5004         30.0004
   1121570.92649    863347.72746  23000959.2924                   23000959.0854
        42.0004         23.7504
   -144313.03559   -111177.17456  24451488.6514                   24451490.6084
        39.2504         19.5004
 03  1 14 17  0 29.9990000  0 10G 7G 8G10G13G26G27G28G29G31G11
  -3062763.02049  -2356167.77747  23117527.0584                   23117527.3234
        46.2504         28.2504
   -834044.32449   -648876.73048  20059633.0814                   20059630.9564
        51.0004         41.5004
    546940.22749    438515.76146  24120390.8234                   24120391.2924
        41.0004         25.5004
   1727160.75449   1330183.43747  23405404.8624                   23405405.3704
        44.7504         26.7504
  -2865343.95349  -2229078.68046  23630399.4724                   23630396.7064
        42.0004         24.0004
   -248423.45349   -196026.10548  20618417.1754                   20618414.9404
        50.7504         40.5004
  -1321049.59049  -1026266.66748  20633099.2064                   20633095.9254
        50.7504         41.7504
  -2679323.48049  -2074240.02647  22935959.0034                   22935957.3194
        45.0004         29.2504
   1177235.82849    906722.84146  23011552.3314                   23011552.1444
        41.2504         25.5004
   -233151.32049   -180401.59246  24434583.6834                   24434585.6874
        39.0004         18.5004
 03  1 14 17  0 59.9990000  0 10G 7G 8G10G13G26G27G28G29G31G11
  -3195538.69549  -2459629.16447  23092258.9644                   23092261.8864
        42.5004         27.0004
   -866980.87949   -674541.60848  20053365.7224                   20053363.1944
        50.5004         42.0004
    575663.36949    460897.25546  24125856.6364                   24125857.4484
        41.2504         22.7504
   1804446.46149   1390405.90646  23420110.5654                   23420111.0854
        42.2504         21.2504
  -2989186.00049  -2325579.04446  23606832.6444                   23606830.2964
        41.7504         22.5004
   -255850.96149   -201813.80148  20617003.6754                   20617001.7144
        50.7504         40.2504
  -1375197.16449  -1068459.60748  20622795.4254                   20622792.1674
        50.5004         41.7504
  -2792855.82449  -2162706.78247  22914354.2144                   22914352.8394
        45.0004         30.2504
   1233262.14149    950379.57547  23022213.8314                   23022213.9724
        42.7504         27.5004
   -321803.80949   -249481.26346  24417712.7764                   24417715.3274
        41.0004         19.0004
 03  1 14 17  1 29.9990000  0 10G 7G 8G10G13G26G27G28G29G31G11
  -3328177.04349  -2562983.53747  23067019.2614                   23067020.7414
        45.2504         29.5004
   -899617.34849   -699972.64848  20047155.1054                   20047152.8904
        51.0004         42.2504
    604635.73849    483473.03646  24131370.4644                   24131370.6054
        41.0004         22.7504
   1881859.60549   1450727.64946  23434842.8784                   23434842.6984
        43.2504         22.0004
  -3112771.48449  -2421879.44946  23583314.8084                   23583314.0774
        40.5004         22.5004
   -262987.68749   -207374.91948  20615645.7454                   20615643.7614
        50.7504         40.0004
  -1429051.90649  -1110424.34448  20612547.2144                   20612544.0934
        50.5004         41.2504
  -2906074.01649  -2250928.77447  22892810.1444                   22892808.5464
        43.5004         30.5004
   1289640.73049    994310.81047  23032942.4094                   23032943.1364
        43.5004         29.5004
   -410274.07049   -318419.00846  24400878.7144                   24400880.6594
        42.5004         21.5004
 03  1 14 17  1 59.9990000  0 10G 7G 8G10G13G26G27G28G29G31G11
  -3460667.48849  -2666222.77247  23041807.7454                   23041807.5544
        45.7504         27.7504
   -931944.79749   -725162.90748  20041003.3004                   20041000.8584
        50.0004         41.5004
    633862.40649    506246.94446  24136932.0194                   24136932.4804
        41.0004         22.5004
   1959405.12549   1511152.56647  23449600.3474                   23449600.9054
        45.5004         27.5004
  -3236090.09049  -2517971.97446  23559847.8474                   23559846.7144
        40.7504         24.7504
   -269825.04749   -212702.78348  20614344.8394                   20614342.8784
        50.7504         39.5004
  -1482606.56249  -1152155.26048  20602356.3314                   20602352.9014
        50.5004         41.5004
  -3018967.53149  -2338897.75247  22871327.0894                   22871325.1754
        45.2504         29.5004
   1346376.44949   1038520.33547  23043739.7224                   23043739.3154
        43.7504         29.2504
   -498551.50449   -387206.50646  24384080.0584                   24384081.7224
        42.0004         22.2504
 03  1 14 17  2 29.9990000  0 10G 7G 8G10G13G26G27G28G29G31G11
  -3593019.53149  -2769354.12047  23016621.0034                   23016622.0264
        42.5004         25.7504
   -963973.94149   -750120.70448  20034908.6984                   20034906.4014
        50.7504         42.0004
    663328.68449    529207.48746  24142540.2064                   24142539.3974
        41.0004         22.2504
   2037069.34849   1571669.91846  23464378.2064                   23464380.0734
        43.0004         22.5004
  -3359150.75449  -2613863.44046  23536430.6834                   23536429.6904
        41.0004         25.0004
   -276373.83649   -217805.77047  20613098.7304                   20613096.6014
        51.2504         39.2504
  -1535873.61749  -1193662.08148  20592219.9334                   20592216.7144
        51.0004         42.0004
  -3131545.68049  -2426621.00447  22849903.7924                   22849902.6404
        45.5004         30.0004
   1403455.12549   1082997.10547  23054600.9404                   23054601.4834
        43.0004         29.2504
   -586645.24249   -455850.80546  24367315.3784                   24367317.8554
        41.0004         22.2504
 03  1 14 17  2 59.9990000  0 10G 7G 8G10G13G26G27G28G29G31G11
  -3725108.06649  -2872280.07347  22991485.5194                   22991487.3194
        45.2504         29.7504
   -995581.16049   -774749.73748  20028894.0424                   20028891.7334
        51.0004         41.5004
    693154.40249    552448.21946  24148214.6674                   24148215.7144
        40.0004         21.5004
   2114972.34849   1632373.41946  23479203.6284                   23479203.5034
        44.7504         21.5004
  -3481828.42249  -2709456.43847  23513085.3394                   23513084.2724
        40.2504         27.5004
   -282510.61349   -222587.72048  20611930.7224                   20611928.5934
        51.0004         39.5004
  -1588730.91449  -1234849.59248  20582161.5264                   20582158.2334
        50.7504         42.0004
  -3243683.00449  -2514000.72747  22828564.2764                   22828562.8394
        43.7504         30.5004
   1460996.77349   1127834.59447  23065550.6364                   23065550.7574
        42.5004         29.5004
   -674429.81649   -524254.18846  24350610.7144                   24350612.9174
        39.0004         21.5004
 03  1 14 17  3 29.9990000  0 10G 7G 8G10G13G26G27G28G29G31G11
  -3856996.04749  -2975049.82847  22966387.9954                   22966389.0654
        45.5004         29.5004
  -1026831.21949   -799100.44748  20022947.0734                   20022944.8704
        51.0004         41.5004
    723271.39848    575915.80046  24153946.0344                   24153946.8664
        33.0004         21.5004
   2193046.00049   1693209.90047  23494060.4094                   23494060.9214
        45.5004         27.5004
  -3604185.45749  -2804799.65946  23489801.5264                   23489801.4094
        40.7504         25.2504
   -288300.16449   -227099.11048  20610829.2614                   20610827.0814
        50.5004         39.7504
  -1641244.12149  -1275768.97548  20572168.4564                   20572164.9254
        50.0004         41.5004
  -3355442.62949  -2601086.18347  22807296.9874                   22807296.3194
        44.7504         31.0004
   1518932.89549   1172979.50547  23076575.9254                   23076576.2494
        41.7504         28.2504
   -761967.78949   -592465.38146  24333951.4804                   24333955.0504
        39.0004         21.7504
 03  1 14 17  3 59.9990000  0  8G 7G 8G13G27G28G29G31G11
  -3988800.93749  -3077754.79446  22941306.6444                   22941306.7844
        45.0004         24.0004
  -1057842.89549   -823265.42548  20017045.9644                   20017043.1874
        51.2504         40.7504
   2271168.30549   1754084.17946  23508926.4724                   23508927.7694
        44.5004         25.5004
   -293861.57449   -231432.70347  20609770.8474                   20609769.0974
        50.0004         38.5004
  -1693534.19949  -1316514.54748  20562218.0814                   20562214.8624
        51.5004         41.2504
  -3466941.90249  -2687968.67546  22786080.0194                   22786078.4094
        41.2504         21.7504
   1577140.94559   1218336.22956  23087651.7304                   23087652.9954
        39.2504         24.7504
   -849376.29749   -660575.76446  24317317.9564                   24317322.0894
        38.5004         21.5004
 03  1 14 17  4 29.9990000  0 10G 7G 8G10G13G26G27G28G29G31G11
  -4120455.07049  -3180342.28647  22916252.9564                   22916254.2534
        45.2504         29.0004
  -1088550.07849   -847193.10948  20011202.4644                   20011200.4994
        50.5004         41.2504
     25650.70719                  24165515.784
        38.500
   2349402.08649   1815045.30046  23523814.3234                   23523815.4954
        45.7504         24.7504
                                  23443362.847
        39.500
   -299128.84849   -235537.12947  20608768.6754                   20608766.2334
        50.2504         39.2504
  -1745536.43049  -1357035.76148  20552322.4334                   20552319.1714
        51.0004         41.5004
                                  22764925.245
        44.500
   1635683.36349   1263953.55846  23098792.6514                   23098793.0814
        38.5004         22.7504
   -936587.16049   -728532.09746  24300722.2844                   24300725.4994
        39.0004         21.7504
 03  1 14 17  4 59.9990000  0 10G 7G 8G10G13G26G27G28G29G31G11
  -4251937.19549  -3282795.70247  22891232.9404                   22891234.2924
        45.5004         29.2504
  -1118932.81249   -870867.98448  20005420.9804                   20005418.6474
        50.5004         41.0004
     56412.68849    632782.65956  24171370.0814                   24171371.4444
        39.0004         20.2504
   2427763.43049   1876105.92447  23538726.2534                   23538726.8784
        46.7504         26.7504
   -143513.66449  -2978892.00857  23420225.3944                   23420224.9484
        40.0004         26.0004
   -304082.25049   -239396.97847  20607826.0344                   20607824.1944
        50.5004         39.0004
  -1797232.37949  -1397318.34648  20542485.2144                   20542481.6124
        50.5004         41.2504
   -127105.28149  -2837301.81757  22743836.3004                   22743834.8194
        43.7504         30.5004
   1694576.37549   1309844.02446  23109999.7614                   23109999.9644
        39.2504         21.5004
  -1023578.83649   -796317.64846  24284168.7144                   24284171.9214
        40.7504         21.5004
 03  1 14 17  5 29.9990000  0 10G 7G 8G10G13G26G27G28G29G31G11
  -4383239.33249  -3385108.89847  22866247.6124                   22866247.9724
        47.0004         30.5004
  -1148984.70749   -894285.06548  19999702.4724                   19999699.7614
        50.5004         40.7504
     87423.98849    656947.18146  24177271.8084                   24177272.3974
        37.0004         19.5004
   2506255.41049   1937268.29547  23553662.4334                   23553663.5814
        45.2504         27.0004
   -264803.37949  -3073403.45547  23397145.0504                   23397143.7494
        42.0004         26.0004
   -308715.84849   -243007.62148  20606944.2924                   20606942.2024
        50.7504         39.5004
  -1848617.34449  -1437358.60448  20532706.8394                   20532703.5734
        50.5004         41.7504
   -237569.10949  -2923377.51447  22722815.9564                   22722814.2804
        42.7504         29.5004
   1753822.28549   1356009.51746  23121273.9404                   23121273.8154
        39.7504         22.7504
  -1110343.45349   -863926.31846  24267658.5344                   24267660.5974
        41.2504         24.5004
 03  1 14 17  5 59.9990000  0 10G 7G 8G10G13G26G27G28G29G31G11
  -4514361.30549  -3487281.70447  22841294.7304                   22841295.4294
        44.5004         28.2504
  -1178707.02049   -917445.32748  19994046.2614                   19994044.1204
        51.0004         41.5004
    118679.41449    681301.92146  24183218.8944                   24183220.1874
        38.2504         19.5004
   2584873.78149   1998529.08847  23568623.7144                   23568624.4644
        45.7504         28.0004
   -385791.92649  -3167680.27446  23374121.6204                   23374120.4094
        42.5004         24.7504
   -313030.84049   -246370.01247  20606123.3004                   20606121.5154
        50.2504         38.7504
  -1899694.12549  -1477158.72748  20522987.4484                   20522983.8864
        51.0004         41.0004
   -347674.89149  -3009174.23547  22701863.2454                   22701862.3664
        45.5004         30.0004
   1813416.43849   1402446.37946  23132614.2694                   23132614.3944
        41.5004         24.0004
  -1196880.48049   -931357.64746  24251191.2924                   24251192.7104
        41.5004         22.5004
 03  1 14 17  6 29.9990000  0 10G 7G 8G10G13G26G27G28G29G31G11
  -4645305.02349  -3589315.55247  22816377.7614                   22816377.6984
        47.7504         30.7504
  -1208103.20749   -940351.47048  19988452.3944                   19988450.0464
        50.2504         41.0004
    150171.58248    705841.13046  24189212.1514                   24189213.1944
        35.5004         21.0004
   2663611.64849   2059883.11546  23583607.6124                   23583607.8354
        47.0004         24.2504
   -506480.90249  -3261723.64846  23351154.6284                   23351154.1124
        38.2504         22.2504
   -317030.71549   -249486.83847  20605362.0814                   20605360.0034
        49.5004         37.5004
  -1950467.76649  -1516722.60648  20513325.2924                   20513322.0544
        50.2504         40.0004
   -457424.57449  -3094693.47647  22680978.9254                   22680977.2614
        43.0004         26.7504
   1873351.62149   1449148.94246  23144019.4804                   23144019.6364
        40.2504         22.2504
  -1283191.12149   -998612.59446  24234767.2304                   24234768.5074
        40.0004         22.5004
 03  1 14 17  6 59.9990000  0 10G 7G 8G10G13G26G27G28G29G31G11
  -4776069.05949  -3691209.43347  22791492.9644                   22791494.0344
        46.2504         28.7504
  -1237173.34849   -963003.54748  19982920.3474                   19982918.6054
        50.2504         40.7504
    181896.57449    730561.72046  24195249.5264                   24195250.2534
        38.2504         21.2504
   2742465.48049   2121327.41247  23598612.4644                   23598613.5464
        44.0004         26.0004
   -626868.93049  -3355532.56946  23328244.5424                   23328245.5774
        37.0004         21.5004
   -320715.93749   -252358.50247  20604661.2764                   20604659.1474
        50.0004         38.0004
  -2000939.71149  -1556051.42548  20503720.8084                   20503717.3434
        50.2504         40.0004
   -566816.46549  -3179933.93047  22660162.2224                   22660160.4014
        42.2504         25.7504
   1933624.03149   1496114.32046  23155490.2844                   23155489.4834
        41.5004         25.2504
  -1369273.84849  -1065690.01746  24218384.9644                   24218387.6284
        39.0004         20.7504
 03  1 14 17  7 29.9990000  0 10G 7G 8G10G13G26G27G28G29G31G11
  -4906649.32449  -3792960.08347  22766644.4094                   22766645.2224
        46.0004         29.5004
  -1265914.53949   -985399.30848  19977451.2844                   19977449.0154
        50.2504         41.2504
    213853.44949    755463.06446  24201330.6984                   24201331.9644
        37.5004         20.7504
   2821434.54349   2182861.47547  23613640.1364                   23613640.7654
        44.5004         26.7504
   -746951.38749  -3449103.30246  23305394.9404                   23305394.5814
        41.2504         25.0004
   -324083.90649   -254982.98547  20604020.0424                   20604018.3664
        50.0004         39.0004
  -2051108.85949  -1595144.28548  20494173.9014                   20494170.8124
        50.0004         41.5004
   -675846.47349  -3264892.40147  22639414.4404                   22639413.1634
        44.0004         30.0004
   1994232.66849   1543341.68047  23167023.5974                   23167023.8314
        43.5004         27.7504
  -1455123.87549  -1132586.00046  24202048.6984                   24202050.5504
        39.0004         21.2504
 03  1 14 17  7 59.9990000  0 10G 7G 8G10G13G26G27G28G29G31G11
  -5037047.45349  -3894568.86647  22741830.9484                   22741831.1444
        48.0004         31.0004
  -1294330.13749  -1007541.32448  19972044.1444                   19972042.1834
        50.7504         39.7504
    246034.90248    780539.33646  24207454.7454                   24207456.0194
        34.7504         16.2504
   2900512.66849   2244480.58546  23628688.6284                   23628689.3314
        45.0004         25.2504
   -866729.83649  -3542437.16546  23282601.6984                   23282600.7264
        42.5004         25.2504
   -327138.09449   -257362.93148  20603438.7534                   20603437.4404
        50.5004         39.7504
  -2100980.17249  -1634005.09048  20484683.6754                   20484680.4954
        50.0004         40.0004
   -784516.32849  -3349570.22047  22618735.5504                   22618734.1324
        47.5004         31.0004
   2055170.60549   1590825.60747  23178620.0424                   23178620.0464
        41.5004         28.5004
  -1540743.07049  -1199302.19046  24185754.8474                   24185757.8274
        38.7504         20.2504
 03  1 14 17  8 29.9990000  0 10G 7G 8G10G13G26G27G28G29G31G11
  -5167260.05949  -3996033.05447  22717052.1204                   22717052.1594
        46.0004         28.2504
  -1322418.05549  -1029428.05748  19966698.8784                   19966696.8584
        51.0004         41.5004
    278438.99249    805789.14746  24213621.5974                   24213622.4054
        38.7504         20.5004
   2979697.84849   2306183.03446  23643756.9564                   23643757.7144
        43.2504         23.0004
   -986200.47349  -3635531.18346  23259867.6054                   23259867.1794
        41.5004         24.2504
   -329876.60249   -259496.91548  20602917.8154                   20602916.1204
        50.5004         39.7504
  -2150552.99649  -1672633.26348  20475250.5654                   20475247.5194
        50.7504         41.2504
   -892822.12549  -3433964.34647  22598125.4254                   22598124.3904
        46.0004         30.2504
   2116436.00449   1638564.71147  23190277.9954                   23190278.6324
        40.7504         28.0004
  -1626127.14549  -1265835.21846  24169507.4954                   24169510.0194
        38.7504         21.0004
 03  1 14 17  8 59.9990000  0 10G 7G 8G10G13G26G27G28G29G31G11
  -5297282.62149  -4097349.16447  22692309.4644                   22692310.1164
        47.2504         28.7504
  -1350175.42249  -1051057.20248  19961417.0264                   19961414.4684
        50.5004         40.5004
    311065.13348    831211.87346  24219830.2844                   24219831.2804
        35.5004         20.0004
   3058990.17249   2367969.01046  23658845.6984                   23658847.2494
        41.5004         23.0004
  -1105358.72749  -3728381.74646  23237192.6754                   23237191.3154
        41.0004         22.7504
   -332296.73849   -261382.78348  20602457.3704                   20602455.9214
        50.7504         39.5004
  -2199826.05949  -1711027.88548  20465874.2304                   20465871.3084
        50.7504         41.5004
  -1000759.43049  -3518071.33547  22577585.6674                   22577583.9874
        44.5004         30.0004
   2178028.27349   1686558.50647  23201998.7224                   23202000.0464
        42.7504         26.2504
  -1711271.81249  -1332181.64546  24153304.5894                   24153306.6874
        38.7504         22.2504
 03  1 14 17  9 29.9990000  0 10G 7G 8G10G13G26G27G28G29G31G11
  -5427108.64149  -4198512.14647  22667603.5814                   22667604.7264
        46.5004         31.7504
  -1377597.23049  -1072424.85948  19956198.6754                   19956196.7654
        50.0004         39.7504
    343914.09849    856808.42246  24226080.8784                   24226082.3044
        40.0004         25.5004
   3138391.09049   2429839.64346  23673956.0034                   23673957.7574
        42.7504         20.2504
  -1224197.66049  -3820983.57846  23214578.1904                   23214577.3474
        42.2504         22.5004
   -334393.70749   -263016.88347  20602058.4644                   20602056.7654
        49.0004         35.5004
  -2248795.75049  -1749186.11548  20456555.6834                   20456552.6444
        51.7504         42.0004
  -1108321.64849  -3601886.06847  22557117.1204                   22557115.9014
        44.7504         29.2504
   2239948.85249   1734808.07047  23213782.3004                   23213783.0544
        43.5004         27.7504
  -1796169.93749  -1398336.07546  24137149.6834                   24137152.1164
        38.2504         21.2504
 03  1 14 17  9 59.9990000  0 10G 7G 8G10G13G26G27G28G29G31G11
  -5556740.20749  -4299523.60547  22642935.7224                   22642936.2454
        46.2504         29.0004
  -1404686.94949  -1093533.75548  19951043.8394                   19951041.4334
        51.5004         41.5004
    376978.73849    882572.94846  24232373.4404                   24232373.4724
        41.5004         24.0004
   3217893.67249   2491789.45246  23689085.6674                   23689086.3664
        43.2504         24.0004
  -1342719.35549  -3913338.20746  23192024.3554                   23192022.9724
        39.2504         22.0004
   -336171.09049   -264401.88947  20601719.9954                   20601718.1874
        49.2504         37.0004
  -2297467.29749  -1787112.00248  20447293.3084                   20447290.6634
        49.7504         40.2504
  -1215510.90249  -3685410.15047  22536719.5654                   22536718.3904
        43.7504         27.7504
   2302190.10249   1783307.62246  23225626.0504                   23225627.2924
        39.5004         25.2504
  -1880823.18749  -1464299.60246  24121040.3474                   24121042.2884
        39.5004         21.0004
 03  1 14 17 10 29.9990000  0 10G 7G 8G10G13G26G27G28G29G31G11
  -5686175.44549  -4400382.11247  22618305.2614                   22618305.5774
        45.7504         30.0004
  -1431444.08649  -1114383.50448  19945952.2614                   19945949.9524
        50.5004         41.5004
    410255.55549    908502.84446  24238706.1204                   24238706.9764
        40.2504         22.0004
   3297495.17249   2553816.26246  23704231.8624                   23704234.4804
        38.5004         21.0004
  -1460921.51249  -4005443.73746  23169530.9564                   23169530.3904
        40.5004         24.0004
   -337629.04349   -265538.06747  20601442.9644                   20601441.1984
        50.5004         39.0004
  -2345841.96149  -1824806.56948  20438088.2844                   20438084.9524
        50.5004         41.2504
  -1322325.06249  -3768641.97647  22516393.8624                   22516392.2064
        45.5004         31.5004
   2364748.96549   1832054.52246  23237531.0894                   23237531.6754
        40.5004         22.7504
  -1965229.78149  -1530071.03346  24104978.5114                   24104981.0074
        39.0004         21.5004
 03  1 14 17 10 59.9990000  0 10G 7G 8G10G13G26G27G28G29G31G11
  -5815408.98449  -4501083.42247  22593713.0114                   22593713.0654
        46.0004         30.0004
  -1457865.00449  -1134971.26648  19940924.3314                   19940922.3154
        50.5004         41.0004
    443744.74649    934598.15646  24245079.0114                   24245079.5224
        40.0004         22.0004
   3377196.04349   2615920.55546  23719398.5974                   23719401.1204
        40.2504         19.5004
  -1578798.70749  -4097296.11146  23147099.2064                   23147099.4564
        40.0004         24.5004
   -338763.59849   -266422.21347  20601227.0974                   20601225.2334
        50.5004         38.2504
  -2393917.25849  -1862267.85848  20428939.9014                   20428936.6474
        50.5004         41.0004
  -1428758.90249  -3851577.46747  22496140.0264                   22496138.4094
        46.5004         31.0004
   2427625.41049   1881049.02947  23249496.5814                   23249496.7764
        42.7504         26.0004
  -2049383.62149  -1595645.47046  24088964.3394                   24088967.5504
        39.2504         21.7504
 03  1 14 17 11 29.9990000  0 10G 7G 8G10G13G26G27G28G29G31G11
  -5944439.23449  -4601626.37047  22569159.1754                   22569158.9914
        46.0004         30.0004
  -1483949.35949  -1155296.76648  19935960.8004                   19935958.8154
        51.2504         40.5004
    477442.58649    960856.05946  24251490.9724                   24251492.7224
        40.0004         21.7504
   3456992.88349   2678099.61946  23734584.1594                   23734586.3664
        42.2504         22.0004
  -1696349.04749  -4188893.80046  23124730.4484                   23124729.7764
        42.0004         22.5004
   -339575.04349   -267054.57947  20601072.5584                   20601071.1364
        50.0004         38.5004
  -2441694.68449  -1899497.04848  20419848.1204                   20419845.0504
        50.7504         41.5004
  -1534810.53549  -3934215.10147  22475959.3154                   22475957.8314
        45.2504         31.5004
   2490816.14149   1930288.37246  23261520.9804                   23261521.9174
        42.0004         25.2504
  -2133282.91849  -1661021.50246  24072999.1444                   24073001.8824
        40.2504         22.5004
 03  1 14 17 11 59.9990000  0 10G 7G 8G10G13G26G27G28G29G31G11
  -6073266.71149  -4702011.32147  22544643.6984                   22544644.0584
        45.7504         28.7504
  -1509699.09449  -1175361.53048  19931060.6124                   19931058.7574
        50.5004         40.7504
    511342.94149    987271.78146  24257942.2224                   24257943.8784
        38.5004         21.5004
   3536880.55549   2740349.47846  23749785.6284                   23749788.2334
        38.7504         19.5004
  -1813572.64849  -4280236.87146  23102423.4644                   23102422.6904
        40.5004         25.5004
   -340065.50849   -267436.84747  20600978.8864                   20600977.9564
        50.0004         38.7504
  -2489177.60949  -1936496.75748  20410812.2614                   20410809.0814
        51.0004         41.5004
  -1640480.28949  -4016555.16347  22455850.4954                   22455849.4174
        46.2504         31.5004
   2554315.10949   1979767.92647  23273605.3554                   23273605.2454
        43.5004         25.7504
  -2216927.71949  -1726199.27846  24057082.7924                   24057084.6794
        42.5004         24.5004
 03  1 14 17 12 29.9990000  0 10G 7G 8G10G13G26G27G28G29G31G11
  -6201888.68449  -4802236.15547  22520167.8474                   22520168.2884
        46.5004         30.5004
  -1535113.00449  -1195164.61048  19926224.7924                   19926222.3704
        50.2504         41.0004
    545443.29349   1013843.34846  24264430.3784                   24264432.8974
        37.5004         22.5004
   3616857.15249   2802668.56046  23765006.5894                   23765007.4374
        36.2504         18.2504
  -1930466.62149  -4371323.11646  23080179.5974                   23080178.5114
        40.7504         25.2504
   -340234.08649   -267568.28147  20600947.3624                   20600945.5894
        50.2504         39.0004
  -2536366.64549  -1973267.45048  20401832.8864                   20401829.6084
        50.0004         41.0004
  -1745765.54749  -4098595.62447  22435816.2374                   22435814.5344
        46.2504         31.7504
   2618120.14849   2029485.95847  23285747.1594                   23285747.8744
        42.5004         27.5004
  -2300315.02049  -1791176.38146  24041214.2064                   24041216.7104
        41.7504         22.7504
 03  1 14 17 12 59.9990000  0 10G 7G 8G10G13G26G27G28G29G31G11
  -6330301.77049  -4902298.21347  22495731.7924                   22495732.2264
        46.5004         30.7504
  -1560189.24249  -1214704.57948  19921452.8154                   19921451.0624
        50.5004         41.2504
    579741.45349   1040569.03446  24270958.8704                   24270959.6794
        40.0004         20.2504
   3696921.12949   2865055.76846  23780241.7844                   23780242.6634
        41.0004         19.0004
  -2047027.45349  -4462149.73946  23057998.4174                   23057998.3584
        40.0004         25.0004
   -340078.94549   -267447.47347  20600977.1674                   20600975.5894
        50.5004         38.7504
  -2583261.32449  -2009808.79448  20392908.9404                   20392905.7614
        51.0004         41.0004
  -1850662.79349  -4180333.75347  22415854.7064                   22415853.2024
        47.0004         30.7504
   2682229.26249   2079440.92247  23297946.0264                   23297947.5654
        43.5004         27.5004
  -2383441.49249  -1855950.25646  24025395.8554                   24025397.2964
        41.7504         21.5004
 03  1 14 17 13 29.9990000  0 10G 7G 8G10G13G26G27G28G29G31G11
  -6458497.81649  -5002191.16447  22471336.7454                   22471336.5504
        46.7504         31.5004
  -1584921.00449  -1233976.11648  19916746.7694                   19916744.3904
        50.7504         41.0004
    614240.70349   1067451.42146  24277523.3004                   24277523.9954
        37.7504         20.5004
   3777075.85249   2927513.82046  23795495.0344                   23795496.5934
        41.2504         19.2504
  -2163246.67649  -4552710.20547  23035882.9174                   23035882.6054
        41.2504         25.7504
   -339593.83249   -267069.54147  20601069.2304                   20601067.4604
        50.0004         38.7504
  -2629856.62549  -2046116.84248  20384042.1364                   20384038.7884
        51.0004         41.0004
  -1955163.87149  -4261763.16847  22395968.4564                   22395967.3234
        47.0004         31.5004
   2746645.46549   2129635.17747  23310204.5814                   23310205.6164
        42.5004         28.5004
  -2466298.39149  -1920514.01246  24009628.7764                   24009630.1364
        43.5004         22.2504
 03  1 14 17 13 59.9990000  0 10G 7G 8G10G13G26G27G28G29G31G11
  -6586481.28549  -5101918.47947  22446981.8704                   22446982.9484
        46.5004         31.2504
  -1609314.39849  -1252983.99448  19912104.9724                   19912102.9254
        50.5004         40.5004
    648931.38749   1094482.98346  24284124.9254                   24284126.1164
        39.0004         20.0004
   3857311.84049   2990035.06146  23810763.2064                   23810764.8044
        40.7504         19.0004
  -2279128.46549  -4643007.73547  23013831.8234                   23013830.9914
        42.7504         26.7504
   -338784.82849   -266439.21447  20601222.9874                   20601221.4684
        50.0004         39.0004
  -2676159.89849  -2082197.32948  20375231.0264                   20375227.4724
        50.5004         42.0004
  -2059272.95749  -4342887.12047  22376157.3784                   22376155.9214
        46.7504         31.7504
   2811359.21949   2180061.24447  23322519.4874                   23322520.1874
        42.0004         28.5004
  -2548889.50049  -1984870.60546  23993912.3314                   23993912.5734
        43.5004         21.7504
 03  1 14 17 14 29.9990000  0 10G 7G 8G10G13G26G27G28G29G31G11
  -6714251.73849  -5201479.81447  22422668.5654                   22422668.8624
        47.0004         31.5004
  -1633370.42649  -1271729.00048  19907527.0974                   19907525.1834
        50.5004         41.0004
    683808.30549   1121659.66846  24290761.9644                   24290763.1634
        38.0004         18.2504
   3937624.91449   3052616.29046  23826046.8624                   23826048.4174
        41.0004         18.2504
  -2394672.15649  -4733041.77947  22991844.9954                   22991843.6084
        42.7504         26.0004
   -337653.25049   -265557.54247  20601438.5734                   20601436.7454
        50.5004         39.0004
  -2722173.78149  -2118052.33448  20366474.9014                   20366472.0814
        50.5004         41.2504
  -2162989.78949  -4423705.44047  22356420.2454                   22356418.9804
        46.7504         32.0004
   2876365.66849   2230715.41647  23334888.9724                   23334891.0264
        41.0004         28.0004
  -2631214.51249  -2049019.88046  23978245.8394                   23978247.7724
        42.2504         22.0004
 03  1 14 17 14 59.9990000  0 10G 7G 8G10G13G26G27G28G29G31G11
  -6841803.02349  -5300870.37047  22398395.7764                   22398396.4604
        46.5004         30.5004
  -1657084.29749  -1290207.38748  19903014.3864                   19903012.1904
        51.0004         41.5004
    718872.23048   1148982.06646  24297433.8784                   24297436.1324
        35.7504         16.2504
   4018016.12149   3115258.56446  23841345.2614                   23841347.7414
        42.2504         19.0004
  -2509871.41849  -4822807.44147  22969922.5654                   22969921.8314
        42.5004         26.5004
   -336194.62149   -264421.02447  20601716.2534                   20601714.8554
        50.2504         39.0004
  -2767895.27749  -2153679.49748  20357774.4404                   20357771.2964
        50.7504         41.2504
  -2266308.09849  -4504213.21447  22336759.3474                   22336758.3154
        46.5004         32.5004
   2941665.85549   2281598.44547  23347316.2304                   23347317.0194
        43.0004         28.2504
  -2713267.09049  -2112956.78046  23962631.5584                   23962633.5034
        43.2504         20.7504
 03  1 14 17 15 29.9990000  0 10G 7G 8G10G13G26G27G28G29G31G11
  -6969136.98849  -5400091.58947  22374165.4334                   22374165.5584
        46.2504         32.2504
  -1680459.49249  -1308421.86848  19898566.5504                   19898564.2064
        49.7504         41.0004
    754115.85948   1176444.47346  24304140.6594                   24304142.4054
        34.5004         16.7504
   4098479.25849   3177956.90146  23856657.2144                   23856658.7654
        43.5004         18.5004
  -2624727.91049  -4912306.00047  22948065.4644                   22948065.6244
        42.0004         26.2504
   -334412.69149   -263032.60347  20602055.4014                   20602053.9214
        50.5004         38.7504
  -2813329.34849  -2189082.70048  20349128.5504                   20349125.3554
        51.0004         40.7504
  -2369229.73449  -4584411.90947  22317174.4724                   22317173.0854
        46.7504         32.2504
   3007252.68849   2332704.89047  23359797.2844                   23359798.1164
        41.5004         26.7504
  -2795048.58649  -2176682.48946  23947069.1204                   23947071.4334
        43.7504         20.2504
 03  1 14 17 15 59.9990000  0 10G 7G 8G10G13G26G27G28G29G31G11
  -7096249.02349  -5499139.85547  22349976.3084                   22349976.3744
        47.0004         32.0004
  -1703492.88749  -1326370.00148  19894183.1674                   19894181.1634
        49.7504         40.7504
    789538.56348   1204046.41046  24310882.5504                   24310882.8974
        35.5004         15.5004
   4179013.94949   3240710.93346  23871982.0974                   23871984.8784
        43.7504         20.7504
  -2739236.77349  -5001533.68447  22926276.7454                   22926275.0074
        42.2504         25.7504
   -332304.56649   -261389.97847  20602456.5734                   20602455.4484
        50.5004         38.2504
  -2858474.41449  -2224260.69848  20340537.7144                   20340534.8394
        50.5004         41.0004
  -2471749.98049  -4664297.81647  22297665.2534                   22297664.1634
        46.7504         32.5004
   3073125.56649   2384034.16947  23372332.1124                   23372334.1554
        41.5004         26.0004
  -2876554.36749  -2240193.32846  23931559.0114                   23931560.8234
        44.5004         19.7504
 03  1 14 17 16 29.9990000  0 10G 7G 8G10G13G26G27G28G29G31G11
  -7223138.40649  -5598014.65847  22325830.4564                   22325830.1364
        47.0004         32.2504
  -1726185.05149  -1344052.25248  19889865.0034                   19889862.8274
        50.5004         40.7504
    825136.00049   1231784.59746  24317655.8864                   24317656.8314
        36.5004         18.2504
   4259616.42249   3303517.76846  23887320.9724                   23887323.1284
        43.2504         22.0004
  -2853396.81249  -5090489.61047  22904551.7534                   22904551.4914
        41.7504         25.7504
   -329870.98449   -259493.74947  20602919.9954                   20602918.3434
        50.0004         38.5004
  -2903332.63349  -2259215.18248  20332001.3474                   20331998.6444
        50.5004         41.2504
  -2573867.94549  -4743870.26347  22278233.0424                   22278231.6594
        47.5004         32.2504
   3139280.39549   2435583.22647  23384921.0814                   23384923.0544
        41.2504         26.5004
  -2957783.19949  -2303488.36846  23916101.6124                   23916103.0154
        44.7504         19.2504
 03  1 14 17 16 59.9990000  0 10G 7G 8G10G13G26G27G28G29G31G11
  -7349808.60549  -5696718.63047  22301725.3784                   22301725.6754
        47.2504         31.0004
  -1748541.05149  -1361472.56448  19885611.2144                   19885608.9994
        50.5004         41.0004
    860899.43449   1259652.03946  24324462.0734                   24324462.0264
        38.0004         15.5004
   4340278.18049   3366370.78646  23902670.4484                   23902672.9054
        43.0004         21.7504
  -2967211.46949  -5179176.36946  22882893.6124                   22882893.3194
        42.2504         25.2504
   -327117.23449   -257348.04347  20603443.8704                   20603442.4294
        50.5004         38.7504
  -2947910.57849  -2293951.27048  20323518.5974                   20323515.6244
        50.5004         40.7504
  -2675587.10249  -4823131.94347  22258876.8554                   22258875.3824
        47.0004         33.2504
   3205708.52349   2487345.20746  23397562.2064                   23397563.9914
        41.5004         24.5004
  -3038738.18049  -2366570.03746  23900695.8704                   23900696.2184
        42.5004         19.0004
 03  1 14 17 17 29.9990000  0 10G 7G 8G10G13G26G27G28G29G31G11
  -7476257.45749  -5795250.15947  22277663.1594                   22277662.8864
        47.2504         31.0004
  -1770560.03549  -1378630.25848  19881421.0654                   19881418.8274
        50.7504         40.7504
    896825.57449   1287646.36346  24331297.9954                   24331299.4524
        37.0004         16.7504
   4420996.62949   3429268.02846  23918030.7224                   23918033.5464
        43.0004         20.7504
  -3080678.30149  -5267592.08647  22861301.3474                   22861301.3584
        41.5004         26.5004
   -324043.03149   -254952.64547  20604028.9724                   20604027.6514
        50.5004         38.7504
  -2992209.16849  -2328469.67548  20315088.9404                   20315085.8744
        51.0004         41.0004
  -2776905.33649  -4902081.24447  22239596.6674                   22239595.1554
        47.0004         31.7504
   3272406.22749   2539317.22646  23410254.5814                   23410256.3434
        39.2504         21.7504
  -3119417.11749  -2429436.52046  23885343.0814                   23885343.3624
        44.5004         15.5004
 03  1 14 17 17 59.9990000  0 10G 7G 8G10G13G26G27G28G29G31G11
  -7602477.19949  -5893603.11947  22253644.5734                   22253644.2374
        47.5004         31.0004
  -1792235.97749  -1395520.64248  19877296.5814                   19877294.2614
        50.5004         41.0004
    932916.80149   1315769.28446  24338166.2064                   24338168.1554
        39.5004         19.2504
   4501774.88349   3492211.83846  23933402.5974                   23933405.1014
        43.2504         21.5004
  -3193789.25849  -5355730.50647  22839777.8004                   22839776.6324
        43.5004         26.5004
   -320642.34449   -252302.82147  20604676.3234                   20604675.0694
        50.7504         39.0004
  -3036223.64549  -2362766.69148  20306713.1514                   20306709.7844
        51.0004         41.0004
  -2877814.75049  -4980711.96947  22220393.9564                   22220392.8084
        46.5004         31.7504
   3339376.82049   2591501.87646  23422999.1054                   23423000.5544
        37.5004         19.7504
  -3199811.57449  -2492081.45746  23870044.5814                   23870043.5074
        42.2504         16.7504
 03  1 14 17 18 29.9990000  0 10G 7G 8G10G13G26G27G28G29G31G11
  -7728469.75049  -5991779.05947  22229668.3704                   22229668.3124
        47.0004         31.2504
  -1813571.99249  -1412146.13948  19873236.3394                   19873234.0584
        51.2504         41.7504
    969166.00849   1344015.16946  24345064.0654                   24345065.6444
        38.2504         18.5004
   4582606.13349   3555196.93846  23948784.3704                   23948787.2654
        43.5004         22.5004
  -3306546.09049  -5443592.97846  22818321.0424                   22818319.7454
        42.7504         25.2504
   -316918.90249   -249401.50347  20605385.0974                   20605383.5624
        50.5004         38.7504
  -3079958.94549  -2396846.16948  20298390.5814                   20298387.3314
        51.0004         41.0004
  -2978317.37149  -5059025.69947  22201268.8704                   22201267.4644
        46.2504         31.7504
   3406613.16049   2643893.64846  23435793.1594                   23435795.2884
        37.0004         17.7504
  -3279923.65249  -2554506.21646  23854798.9954                   23854799.7764
        44.0004         18.5004
 03  1 14 17 18 59.9990000  0 10G 7G 8G10G13G26G27G28G29G31G11
  -7854231.63749  -6089775.24947  22205736.9484                   22205737.0894
        47.0004         31.5004
  -1834566.34449  -1428505.42348  19869241.0504                   19869239.0544
        50.7504         41.0004
   1005571.31349   1372382.82146  24351991.3474                   24351994.2724
        38.0004         20.0004
   4663489.28549   3618222.49546  23964176.1364                   23964178.8394
        42.2504         22.2504
  -3418944.93049  -5531176.53647  22796932.3864                   22796930.8474
        42.5004         26.5004
   -312870.84049   -246247.22147  20606155.2844                   20606153.3744
        50.2504         39.0004
  -3123414.46949  -2430707.63848  20290121.4954                   20290118.2654
        51.0004         41.0004
  -3078409.50849  -5137019.59847  22182222.2534                   22182220.5894
        47.0004         33.0004
   3474113.59848   2696491.14546  23448637.5654                   23448640.4564
        34.0004         16.2504
  -3359749.37549  -2616707.92846  23839608.9954                   23839610.2024
        42.7504         20.2504
 03  1 14 17 19 29.9990000  0 10G 7G 8G10G13G26G27G28G29G31G11
  -7979755.75049  -6187586.16847  22181849.5814                   22181850.2924
        46.0004         31.0004
  -1855213.14549  -1444593.88848  19865312.1444                   19865310.4564
        50.5004         40.5004
   1042134.31649   1400873.24846  24358950.4094                   24358952.3904
        40.0004         22.0004
   4744426.43849   3681290.08046  23979578.5974                   23979580.9684
        41.5004         22.7504
  -3530978.66049  -5618475.55247  22775612.8784                   22775611.5264
        41.5004         25.7504
   -308492.92649   -242835.93147  20606988.5264                   20606986.7374
        50.2504         38.7504
  -3166586.18749  -2464347.96348  20281906.4804                   20281902.9564
        50.7504         41.5004
  -3178084.05549  -5214688.09947  22163254.1054                   22163253.1124
        46.2504         33.5004
   3541880.12149   2749295.95446  23461534.6984                   23461535.9444
        37.5004         18.5004
  -3439281.38749  -2678680.79246  23824474.2534                   23824475.1364
        43.7504         21.5004
 03  1 14 17 19 59.9990000  0 10G 7G 8G10G13G26G27G28G29G31G11
  -8105040.24649  -6285210.37747  22158009.4874                   22158009.3044
        47.2504         31.7504
  -1875512.07049  -1460411.27448  19861449.4644                   19861447.4374
        50.7504         41.0004
   1078852.18449   1429484.53146  24365937.9564                   24365938.6324
        41.2504         21.0004
   4825415.33249   3744397.99146  23994990.3624                   23994992.6444
        41.2504         24.0004
  -3642644.87549  -5705488.19446  22754363.1674                   22754362.5504
        42.0004         25.5004
   -303784.94149   -239167.42247  20607884.2144                   20607882.6714
        50.0004         38.2504
  -3209475.28149  -2497768.06248  20273744.8624                   20273741.5854
        51.2504         41.2504
  -3277339.03949  -5292029.65147  22144366.9254                   22144365.7264
        47.0004         32.7504
   3609909.68049   2802305.82646  23474480.4094                   23474481.9294
        40.5004         19.7504
  -3518517.53949  -2740423.04546  23809396.1284                   23809397.9804
        41.2504         21.7504
 03  1 14 17 20 29.9990000  0 10G 7G 8G10G13G26G27G28G29G31G11
  -8230093.57049  -6382654.44847  22134212.4804                   22134212.6904
        46.2504         31.7504
  -1895473.06649  -1475965.34748  19857650.9094                   19857648.8904
        51.2504         41.2504
   1115710.86749   1458205.43846  24372951.1984                   24372952.6594
        40.0004         21.5004
   4906442.31349   3807535.59446  24010409.4174                   24010412.1204
        40.0004         22.2504
  -3753952.02349  -5792220.99847  22733182.3624                   22733181.5544
        43.7504         26.7504
   -298757.11349   -235249.68847  20608841.0734                   20608839.6444
        50.2504         38.2504
  -3252093.39149  -2530976.99148  20265634.6984                   20265631.6444
        51.2504         41.0004
  -3376183.10549  -5369051.01547  22125557.2454                   22125556.6324
        46.2504         33.0004
   3678188.30149   2855509.73846  23487473.3704                   23487474.4874
        42.5004         21.5004
  -3597466.13349  -2801941.23546  23794373.0654                   23794373.7414
        42.7504         22.5004
 03  1 14 17 20 59.9990000  0 10G 7G 8G10G13G26G27G28G29G31G11
  -8354898.25049  -6479904.75347  22110462.8004                   22110462.5034
        47.5004         31.7504
  -1915080.00049  -1491243.50048  19853920.1284                   19853918.0304
        51.2504         41.5004
   1152722.57449   1487045.63046  24379994.3234                   24379996.4484
        40.2504         22.5004
   4987520.19949   3870712.88546  24025838.5504                   24025841.2964
        41.5004         22.7504
  -3864882.25849  -5878660.17947  22712073.0974                   22712072.1874
        42.7504         28.2504
   -293393.66049   -231070.43047  20609861.7614                   20609860.3234
        50.0004         38.0004
  -3294425.90249  -2563963.36548  20257579.1204                   20257575.8474
        50.7504         41.0004
  -3474598.76249  -5445738.53947  22106829.9644                   22106828.7924
        47.0004         33.2504
   3746728.35549   2908917.39146  23500515.9484                   23500517.7104
        43.2504         24.0004
  -3676109.53949  -2863221.70646  23779407.2844                   23779407.5154
        39.5004         21.2504
 03  1 14 17 21 29.9980000  0  9G 7G 8G13G26G27G28G29G31G11
  -8479453.18449  -6576960.48447  22086760.8734                   22086760.9554
        47.2504         31.7504
  -1934336.95749  -1506248.97148  19850255.7954                   19850253.5884
        50.5004         41.0004
   5068638.51649   3933921.66146  24041275.4434                   24041277.8304
        41.7504         22.7504
  -3975434.79749  -5964805.02747  22691035.1234                   22691034.6394
        42.7504         26.7504
   -287699.73849   -226633.66647  20610945.3504                   20610943.7564
        49.5004         38.5004
  -3336477.55549  -2596730.91048  20249577.0454                   20249573.9944
        51.0004         41.2504
  -3572585.56649  -5522091.89947  22088183.5454                   22088182.2174
        46.7504         32.5004
   3815519.37949   2962520.58947  23513606.8034                   23513608.5224
        44.0004         26.0004
  -3754447.47748  -2924264.11846  23764499.7874                   23764500.6824
        35.7504         18.5004
 03  1 14 17 21 59.9980000  0  9G 7G 8G13G26G27G28G29G31G11
  -8603765.78549  -6673827.36447  22063104.6624                   22063104.7954
        47.7504         32.5004
  -1953245.60249  -1520983.02448  19846657.3734                   19846655.6504
        51.5004         41.0004
   5149799.10549   3997163.37246  24056719.3424                   24056722.4714
        40.0004         24.5004
  -4085615.87949  -6050660.41747  22670068.3974                   22670068.0534
        42.2504         26.5004
   -281675.73849   -221939.69447  20612091.8974                   20612090.4004
        50.5004         38.2504
  -3378253.18449  -2629283.36148  20241627.0534                   20241624.3504
        50.5004         40.7504
  -3670149.37549  -5598115.65247  22069617.7254                   22069616.3774
        47.5004         32.5004
   3884562.39849   3016320.11146  23526745.3734                   23526747.0614
        44.2504         25.5004
  -3832484.41849  -2985071.95346  23749650.0454                   23749651.2794
        37.5004         19.2504
 03  1 14 17 22 29.9980000  0  9G 7G 8G13G26G27G28G29G31G11
  -8727823.34049  -6770495.51647  22039497.1004                   22039497.4904
        47.5004         32.0004
  -1971798.24649  -1535439.67048  19843126.9514                   19843124.8544
        51.2504         40.7504
   5231003.15249   4060438.88346  24072172.4824                   24072175.1314
        40.2504         22.0004
  -4195412.92249  -6136216.57247  22649174.7954                   22649174.2294
        41.2504         27.5004
   -275315.03549   -216983.36247  20613302.1234                   20613301.1234
        51.0004         38.5004
  -3419745.62949  -2661615.15748  20233731.5224                   20233728.4944
        50.2504         41.0004
  -3767278.12549  -5673800.39147  22051134.5844                   22051133.3384
        47.5004         33.2504
   3953858.31349   3070316.77646  23539932.2014                   23539933.4864
        44.5004         25.5004
  -3910208.76248  -3045636.25046  23734859.0374                   23734860.8424
        33.0004         17.2504
 03  1 14 17 22 59.9980000  0  9G 7G 8G13G26G27G28G29G31G11
  -8851619.24249  -6866959.80247  22015939.4904                   22015939.8814
        47.5004         33.5004
  -1989989.81249  -1549614.96348  19839665.1934                   19839663.2324
        51.0004         41.0004
   5312252.20349   4123749.53846  24087633.7484                   24087637.3224
        39.5004         22.7504
  -4304819.23049  -6221468.21847  22628355.6934                   22628355.2484
        42.5004         26.0004
   -268612.90249   -211760.97647  20614577.5454                   20614576.4284
        50.2504         38.7504
  -3460951.59449  -2693723.72148  20225890.4124                   20225887.3304
        50.2504         41.0004
  -3863965.40649  -5749141.14147  22032735.9754                   22032734.4904
        47.5004         32.7504
   4023408.38749   3124511.47646  23553167.4514                   23553168.9594
        45.0004         25.2504
  -3987613.80148  -3105951.77746  23720129.8654                   23720130.5574
        32.0004         17.2504
 03  1 14 17 23 29.9980000  0  9G 7G 8G13G26G27G28G29G31G11
  -8975158.51649  -6963224.09947  21992431.2174                   21992430.8464
        48.0004         33.0004
  -2007826.68749  -1563513.86548  19836271.1864                   19836268.9514
        50.5004         41.2504
   5393536.77049   4187087.78446  24103101.1544                   24103105.3344
        37.0004         22.0004
  -4413839.30549  -6306418.96347  22607609.9044                   22607609.4044
        41.2504         27.0004
   -261575.96149   -206277.69347  20615916.5764                   20615915.1974
        50.5004         39.0004
  -3501878.78549  -2725615.06348  20218102.0684                   20218098.8074
        50.7504         40.5004
  -3960215.99649  -5824141.60847  22014419.7174                   22014418.5644
        47.2504         33.5004
   4093203.00049   3178896.74047  23566449.0684                   23566451.3304
        43.7504         25.7504
  -4064704.10258  -3166021.99256  23705458.1394                   23705461.1314
        32.0004         16.2504
 03  1 14 17 23 59.9980000  0  9G 7G 8G13G26G27G28G29G31G11
  -9098438.12949  -7059286.09847  21968971.0684                   21968971.6474
        47.7504         31.7504
  -2025307.35949  -1577135.20448  19832944.4204                   19832942.9754
        50.7504         40.7504
   5474855.41049   4250452.60246  24118576.7324                   24118579.9594
        37.0004         21.7504
  -4522470.15649  -6391066.38047  22586938.5224                   22586937.3224
        41.5004         27.5004
   -254203.09049   -200532.65547  20617319.5374                   20617318.3424
        49.5004         39.0004
  -3542527.39849  -2757289.32348  20210366.9124                   20210363.8074
        50.5004         41.0004
  -4056027.07849  -5898799.60247  21996187.8114                   21996186.2484
        47.7504         32.5004
   4163239.89149   3233470.68246  23579776.9674                   23579778.9824
        43.5004         23.5004
  -4141476.26248  -3225844.32246  23690850.3034                   23690851.8934
        35.2504         19.0004
 03  1 14 17 24 29.9980000  0  9G 7G 8G13G26G27G28G29G31G11
  -9221453.84049  -7155142.46747  21945562.8974                   21945561.9394
        49.0004         33.5004
  -2042429.12949  -1590476.88348  19829686.6074                   19829684.4324
        51.0004         41.2504
   5556207.44149   4313843.45146  24134057.4434                   24134061.9364
        36.7504         22.0004
  -4630707.30549  -6475407.03147  22566340.9904                   22566340.4984
        42.7504         27.7504
   -246491.88749   -194523.98047  20618786.9824                   20618786.2604
        50.2504         38.7504
  -3582896.11749  -2788745.48348  20202685.0144                   20202681.6744
        50.5004         41.0004
  -4151394.49649  -5973111.88847  21978040.1704                   21978038.7134
        47.7504         32.5004
   4233517.94149   3288232.62246  23593150.0924                   23593152.3074
        43.0004         24.5004
  -4217926.51649  -3285415.89646  23676301.8504                   23676303.4244
        39.0004         22.7504
 03  1 14 17 24 59.9980000  0  9G 7G 8G13G26G27G28G29G31G11
  -9344204.68449  -7250792.42547  21922203.2094                   21922203.6664
        47.5004         32.5004
  -2059192.37549  -1603539.18748  19826496.5534                   19826494.5884
        51.2504         41.5004
   5637589.50849   4377257.67946  24149543.7404                   24149548.2094
        36.2504         22.2504
  -4738549.30549  -6559439.77147  22545819.7014                   22545819.0294
        43.2504         28.0004
   -238442.96549   -188252.14247  20620318.6474                   20620317.5254
        50.5004         38.5004
  -3622986.89549  -2819985.07848  20195056.3504                   20195053.2214
        50.5004         41.5004
  -4246316.95749  -6047077.43947  21959976.9204                   21959975.5374
        48.0004         33.5004
   4304033.59849   3343179.74746  23606569.1314                   23606570.5764
        42.0004         22.0004
  -4294052.37949  -3344734.70146  23661816.2174                   23661816.7294
        40.7504         23.5004
 03  1 14 17 25 29.9980000  0  9G 7G 8G13G26G27G28G29G31G11
  -9466692.64149  -7346237.56547  21898895.2014                   21898894.6744
        47.7504         32.7504
  -2075600.54749  -1616324.81948  19823374.1474                   19823372.4434
        50.7504         41.0004
   5718994.82049   4440690.01846  24165035.9124                   24165039.1194
        38.2504         20.5004
  -4845998.15249  -6643166.16847  22525372.0684                   22525372.2014
        41.2504         27.5004
   -230060.39149   -181720.32347  20621914.1624                   20621913.0574
        50.2504         38.5004
  -3662804.82849  -2851012.05548  20187478.9284                   20187475.6894
        50.7504         40.7504
  -4340796.80549  -6120698.12347  21941997.8184                   21941996.6934
        47.0004         33.2504
   4374779.69549   3398306.46246  23620031.6544                   23620033.8304
        39.5004         21.2504
  -4369856.69549  -3403802.94946  23647391.6704                   23647392.0254
        42.5004         25.5004
 03  1 14 17 25 59.9980000  0  9G 7G 8G13G26G27G28G29G31G11
  -9588913.85549  -7441474.82847  21875636.9124                   21875637.3424
        47.2504         33.5004
  -2091651.12949  -1628831.80248  19820320.0454                   19820318.1354
        50.5004         41.0004
   5800422.49649   4504139.75046  24180531.1074                   24180535.0224
        37.7504         21.5004
  -4953049.60249  -6726582.89647  22505001.6154                   22505000.8074
        42.5004         28.2504
   -221341.75049   -174926.63747  20623573.2874                   20623571.6894
        50.2504         38.5004
  -3702348.92249  -2881825.65748  20179954.2014                   20179951.1824
        50.5004         41.0004
  -4434829.97349  -6193970.73147  21924104.0064                   21924102.6194
        47.5004         33.0004
   4445755.21149   3453611.83546  23633537.4674                   23633539.9394
        40.0004         20.5004
  -4445334.93449  -3462617.06647  23633027.9044                   23633029.0924
        43.0004         26.7504
 03  1 14 17 26 29.9980000  0  9G 7G 8G13G26G27G28G29G31G11
  -9710862.59049  -7536499.80347  21852430.9284                   21852430.9984
        46.5004         33.5004
  -2107339.95749  -1641056.89848  19817334.4434                   19817332.6354
        50.5004         40.5004
   5881873.57849   4567607.80246  24196030.5294                   24196034.6894
        39.5004         22.0004
  -5059697.66849  -6809685.28147  22484707.0924                   22484706.2404
        42.2504         27.7504
   -212283.26649   -167868.13047  20625297.0064                   20625295.7294
        50.2504         38.0004
  -3741616.23449  -2912423.59448  20172481.5684                   20172478.7294
        50.7504         41.2504
  -4528410.98849  -6266891.01747  21906295.8424                   21906294.9204
        46.2504         33.0004
   4516960.72349   3509096.45646  23647087.7094                   23647090.3384
        40.7504         22.0004
  -4520481.14549  -3521172.53147  23618728.3814                   23618728.9824
        45.0004         26.7504
 03  1 14 17 26 59.9980000  0  9G 7G 8G13G26G27G28G29G31G11
  -9832546.77749  -7631318.63347  21829275.1934                   21829275.0184
        46.7504         32.7504
  -2122676.47749  -1653007.46948  19814415.9124                   19814414.2444
        50.7504         41.7504
   5963335.71749   4631084.38846  24211532.6154                   24211536.7564
        39.7504         21.5004
  -5165950.14549  -6892479.41747  22464487.5844                   22464487.3464
        41.0004         27.7504
   -202894.63749   -160552.38747  20627083.6784                   20627082.4364
        50.2504         38.5004
  -3780617.78549  -2942814.43948  20165059.7874                   20165056.7994
        50.2504         40.5004
  -4621547.54749  -6339464.96047  21888573.3264                   21888571.5254
        46.5004         33.0004
   4588383.25849   3564750.22046  23660679.5764                   23660681.9634
        43.0004         20.7504
  -4595302.73849  -3579474.97847  23604490.0534                   23604490.9164
        44.7504         25.7504
 03  1 14 17 27 29.9980000  0  8G 7G 8G26G27G28G29G31G11
  -9953957.24249  -7725924.15447  21806171.4754                   21806171.3934
        45.7504         34.0004
  -2137652.96949  -1664677.50548  19811566.3504                   19811564.0724
        49.7504         41.0004
  -5271797.65649  -6974958.00147  22444345.2324                   22444345.7524
        41.0004         28.5004
   -193168.55549   -152973.67947  20628934.3734                   20628933.4514
        50.0004         38.7504
  -3819347.54749  -2972993.50048  20157689.8574                   20157686.7094
        50.2504         41.2504
  -4714230.75449  -6411685.66847  21870935.4364                   21870934.9124
        46.0004         33.2504
   4660026.80549   3620576.24546  23674312.2324                   23674315.4364
        42.0004         22.5004
  -4669790.76649  -3637517.55247  23590315.3504                   23590316.1934
        44.2504         26.7504
 03  1 14 17 27 59.9980000  0  8G 7G 8G26G27G28G29G31G11
 -10075093.89849  -7820316.35647  21783120.1074                   21783119.7444
        47.5004         33.7504
  -2152270.69949  -1676067.97348  19808784.5684                   19808782.6894
        50.0004         41.0004
  -5377239.77749  -7057120.73247  22424281.1704                   22424280.8424
        42.5004         28.5004
   -183106.66449   -145133.31047  20630849.3034                   20630848.6474
        50.0004         38.5004
  -3857808.26649  -3002962.92448  20150370.8654                   20150367.9394
        50.5004         41.0004
  -4806460.43049  -6483552.96247  21853385.0294                   21853383.5334
        47.7504         33.5004
   4731886.95349   3676570.99746  23687987.5064                   23687989.8734
        41.2504         22.0004
  -4743944.91449  -3695299.95346  23576203.9284                   23576204.5684
        44.0004         24.7504
 03  1 14 17 28 29.9980000  0  8G 7G 8G26G27G28G29G31G11
 -10195952.27749  -7914491.68347  21760121.2724                   21760121.2994
        47.2504         33.2504
  -2166526.70749  -1687176.58548  19806071.7874                   19806070.1974
        50.5004         41.2504
  -5482271.93049  -7138963.97547  22404293.8734                   22404293.2644
        42.2504         28.2504
   -172706.25849   -137029.16447  20632828.3504                   20632827.0574
        50.0004         38.2504
  -3895998.22749  -3032721.36548  20143103.5224                   20143100.9044
        51.0004         41.2504
  -4898232.32049  -6555063.54547  21835921.4434                   21835920.1004
        46.7504         34.7504
   4803962.99649   3732733.97146  23701703.2794                   23701705.5844
        42.0004         22.5004
  -4817760.26249  -3752818.32446  23562157.1624                   23562158.1504
        45.2504         25.5004
 03  1 14 17 28 59.9980000  0  8G 7G 8G26G27G28G29G31G11
 -10316530.26649  -8008448.55147  21737176.3034                   21737175.9434
        47.5004         33.7504
  -2180420.27749  -1698002.77948  19803427.7094                   19803426.1114
        50.5004         41.0004
  -5586891.71149  -7220485.88147  22384385.7014                   22384385.0964
        42.5004         28.5004
   -161967.04349   -128661.00647  20634872.1624                   20634871.0644
        49.7504         38.5004
  -3933918.39849  -3062269.58448  20135888.0224                   20135885.1394
        50.0004         40.5004
  -4989544.07449  -6626215.58647  21818545.2174                   21818544.6864
        47.7504         33.5004
   4876252.13349   3789062.99246  23715460.1314                   23715462.0494
        43.0004         22.0004
  -4891234.62549  -3810071.03846  23548175.2324                   23548176.4714
        44.2504         25.5004
 03  1 14 17 29 29.9980000  0  8G 7G 8G26G27G28G29G31G11
 -10436819.70749  -8102180.55447  21714285.8344                   21714285.5684
        48.2504         34.2504
  -2193944.63749  -1708541.28448  19800854.4044                   19800852.6194
        50.5004         41.2504
  -5691090.72749  -7301679.93347  22364557.0924                   22364556.2724
        42.7504         28.2504
   -150882.70749   -120023.93647  20636981.2724                   20636980.2174
        49.2504         38.2504
  -3971563.34449  -3091603.34548  20128724.3264                   20128721.4714
        50.2504         41.2504
  -5080387.65649  -6697002.80847  21801258.3184                   21801257.0184
        48.0004         33.5004
   4948757.63749   3845560.59146  23729256.8344                   23729259.5614
        42.2504         21.5004
  -4964359.59849  -3867051.43646  23534260.2254                   23534261.8814
        45.5004         25.5004
 03  1 14 17 29 59.9980000  0  8G 7G 8G26G27G28G29G31G11
 -10556826.86749  -8195692.61947  21691449.3264                   21691449.3654
        47.7504         34.0004
  -2207108.14149  -1718798.59748  19798349.3034                   19798347.4714
        50.7504         41.0004
  -5794875.23049  -7382551.01047  22344807.5064                   22344806.5254
        42.7504         28.0004
   -139461.38749   -111124.26747  20639154.9674                   20639153.5964
        49.5004         37.5004
  -4008942.43449  -3120729.93548  20121611.4674                   20121608.4824
        50.5004         41.0004
  -5170769.88749  -6767430.53847  21784058.7564                   21784058.1864
        47.2504         34.0004
   5021468.20749   3902218.10546  23743093.5534                   23743096.0964
        42.7504         21.2504
  -5037141.22749  -3923764.40546  23520409.9124                   23520411.5534
        43.7504         22.0004
 03  1 14 17 30 29.9980000  0  8G 7G 8G26G27G28G29G31G11
 -10676549.00049  -8288982.56547  21668666.6864                   21668666.6394
        48.7504         34.0004
  -2219908.63749  -1728773.05848  19795913.6004                   19795911.7214
        50.0004         41.5004
  -5898241.83249  -7463096.42047  22325136.9824                   22325136.6504
        43.2504         27.5004
   -127701.81249   -101961.05447  20641392.4514                   20641391.4794
        49.2504         38.0004
  -4046055.68049  -3149649.37448  20114548.8344                   20114545.7754
        50.5004         40.5004
  -5260687.26249  -6837496.05547  21766948.5614                   21766947.3344
        48.2504         34.2504
   5094381.77749   3959033.73646  23756968.5764                   23756970.9394
        41.5004         22.0004
  -5109576.37949  -3980207.33346  23506626.3504                   23506627.7094
        44.5004         22.7504
 03  1 14 17 30 59.9980000  0  8G 7G 8G26G27G28G29G31G11
 -10795980.47349  -8382046.03747  21645940.1934                   21645939.9204
        48.7504         34.7504
  -2232342.28949  -1738461.65348  19793547.3654                   19793545.7524
        50.2504         40.7504
  -6001184.94149  -7543311.81647  22305547.3734                   22305547.5614
        43.2504         29.5004
   -115600.45349    -92531.49347  20643695.2174                   20643694.5684
        49.5004         38.0004
  -4082900.71549  -3178359.82348  20107537.5764                   20107534.6274
        50.2504         40.7504
  -5350134.91849  -6907195.53547  21749927.7484                   21749926.2564
        48.5004         34.0004
   5167499.11749   4016008.03046  23770882.3974                   23770885.3544
        42.0004         25.0004
  -5181659.39549  -4036375.85846  23492909.3264                   23492911.1474
        43.2504         23.7504
 03  1 14 17 31 29.9980000  0  8G 7G 8G26G27G28G29G31G11
 -10915121.06649  -8474882.82047  21623267.9674                   21623267.6744
        48.0004         34.2504
  -2244410.13749  -1747865.21348  19791250.8264                   19791249.2724
        51.2504         40.7504
  -6103704.04749  -7623196.84847  22286038.5614                   22286038.9824
        43.0004         28.2504
   -103158.87149    -82836.81647  20646062.9044                   20646062.1974
        49.2504         38.2504
  -4119479.94949  -3206863.15148  20100576.9594                   20100574.0924
        50.0004         40.5004
  -5439112.41049  -6976528.66247  21732996.3184                   21732994.3544
        48.0004         32.7504
   5240815.39849   4073137.40446  23784834.8114                   23784837.6744
        40.7504         25.2504
  -5253389.72749  -4092269.59946  23479259.9514                   23479260.2684
        44.7504         23.0004
 03  1 14 17 31 59.9980000  0  8G 7G 8G26G27G28G29G31G11
 -11033971.48049  -8567493.51647  21600651.7484                   21600651.5724
        47.5004         34.5004
  -2256114.59049  -1756985.60748  19789023.8734                   19789022.0614
        50.7504         41.5004
  -6205799.69149  -7702751.91847  22266611.1864                   22266610.6074
        43.2504         29.0004
    -90379.39149    -72878.85747  20648494.9824                   20648494.5064
        49.5004         38.0004
  -4155796.93449  -3235162.13048  20093666.0224                   20093663.2444
        50.2504         41.5004
  -5527620.55149  -7045496.06247  21716153.3734                   21716151.8544
        47.0004         33.2504
   5314325.15649   4130417.50146  23798822.5614                   23798825.8504
        39.2504         22.7504
  -5324768.19949  -4147889.14346  23465676.8894                   23465676.9474
        43.5004         22.2504
 03  1 14 17 32 29.9980000  0  8G 7G 8G26G27G28G29G31G11
 -11152526.72349  -8659874.20147  21578091.1314                   21578090.7364
        47.2504         34.5004
  -2267452.13749  -1765820.11048  19786866.4594                   19786865.1664
        50.2504         41.0004
  -6307466.62949  -7781972.92747  22247264.7404                   22247264.0644
        44.2504         28.5004
    -77259.09849    -62655.33147  20650991.8654                   20650991.1314
        49.5004         38.2504
  -4191849.54349  -3263255.09848  20086805.9594                   20086802.8894
        50.7504         41.0004
  -5615654.43049  -7114093.91147  21699400.8734                   21699399.7404
        48.0004         33.7504
   5388028.64149   4187848.56246  23812848.6864                   23812851.4084
        38.5004         22.0004
  -5395789.34449  -4203230.29046  23452162.1074                   23452162.2684
        42.5004         22.0004
 03  1 14 17 32 59.9980000  0  7G 7G 8G26G27G28G29G11
 -11270786.97749  -8752025.01047  21555586.6234                   21555586.8734
        46.7504         34.7504
  -2278424.25449  -1774369.84848  19784778.3734                   19784776.9324
        50.0004         41.2504
  -6408704.94549  -7860859.94047  22227999.3814                   22227999.2524
        43.0004         29.5004
    -63799.80149    -52167.66247  20653552.9044                   20653552.3384
        49.2504         37.7504
  -4227641.01649  -3291144.58548  20079994.8894                   20079991.8504
        51.0004         41.5004
  -5703214.56249  -7182322.60047  21682738.6004                   21682737.4434
        45.5004         34.0004
  -5466453.18749  -4258293.03846  23438715.1154                   23438715.3504
        39.5004         22.2504
 03  1 14 17 33 29.9980000  0  7G 7G 8G26G27G28G29G11
 -11388749.94549  -8843944.16847  21533138.9754                   21533139.0644
        47.5004         34.7504
  -2289030.07049  -1782634.16548  19782760.2484                   19782758.6974
        50.5004         41.0004
  -6509512.05149  -7939410.94947  22208816.7794                   22208816.1584
        43.5004         29.5004
    -50001.03949    -41415.46047  20656178.8184                   20656177.9864
        49.2504         37.2504
  -4263171.69549  -3318830.85548  20073233.2484                   20073230.6504
        50.5004         41.5004
  -5790298.51649  -7250180.24347  21666166.9434                   21666165.8074
        47.0004         33.7504
  -5536757.72749  -4313075.82946  23425336.2404                   23425337.1584
        39.7504         21.0004
 03  1 14 17 33 59.9980000  0  7G 7G 8G26G27G28G29G11
 -11506409.07449  -8935626.58747  21510749.1154                   21510749.3574
        48.5004         34.5004
  -2299264.39849  -1790609.01748  19780812.8504                   19780811.2404
        50.5004         41.0004
  -6609881.15249  -8017620.63947  22189716.9124                   22189716.5804
        44.5004         29.5004
    -35857.94549    -30394.95747  20658870.4514                   20658869.5104
        49.0004         38.0004
  -4298437.76649  -3346310.94348  20066522.4984                   20066519.8264
        50.7504         41.2504
  -5876899.71149  -7317661.70347  21649687.3264                   21649686.0254
        47.7504         34.0004
  -5606695.40649  -4367572.72346  23412027.8574                   23412028.7794
        37.2504         21.5004
 03  1 14 17 34 29.9980000  0  7G 7G 8G26G27G28G29G11
 -11623757.78149  -9027067.10847  21488418.7404                   21488418.3344
        46.7504         35.0004
  -2309122.23049  -1798290.49248  19778936.9984                   19778935.1584
        50.0004         41.0004
  -6709805.36749  -8095483.66947  22170701.7564                   22170701.8384
        43.0004         29.5004
    -21365.94149    -19102.57447  20661628.0924                   20661627.5454
        50.0004         37.7504
  -4333435.70749  -3373582.08348  20059862.5844                   20059859.5884
        50.0004         41.0004
  -5963011.91849  -7384762.14047  21633300.7724                   21633299.5884
        46.2504         34.2504
  -5676259.88748  -4421778.83246  23398789.3184                   23398790.8184
        33.5004         18.2504
 03  1 14 17 34 59.9980000  0  7G 7G 8G26G27G28G29G11
 -11740795.18049  -9118265.04747  21466147.3974                   21466146.9394
        47.7504         35.2504
  -2318604.22749  -1805679.10748  19777132.3264                   19777131.2134
        50.7504         41.0004
  -6809283.85549  -8172999.39047  22151772.1474                   22151771.6974
        43.5004         28.2504
     -6525.99649     -7539.07047  20664452.1544                   20664451.3264
        50.0004         38.0004
  -4368167.60249  -3400645.92548  20053253.3504                   20053250.2684
        50.5004         41.0004
  -6048634.31649  -7451480.90647  21617007.1704                   21617006.1824
        46.5004         33.7504
  -5745450.07848  -4475693.35046  23385623.5924                   23385624.5294
        34.2504         19.0004
 03  1 14 17 35 29.9980000  0  7G 7G 8G26G27G28G29G11
 -11857518.35549  -9209218.13347  21443935.7324                   21443934.7914
        48.0004         34.5004
  -2327708.71549  -1812773.55748  19775399.9754                   19775398.3854
        51.0004         41.0004
  -6908313.37549  -8250165.26047  22132927.7954                   22132926.9324
        43.7504         29.2504
      8663.09449      4296.50447  20667342.6624                   20667341.8854
        50.0004         37.7504
  -4402633.24649  -3427502.28948  20046694.8264                   20046691.7524
        50.5004         41.2504
  -6133764.09849  -7517815.82547  21600806.9044                   21600806.3184
        47.0004         34.5004
  -5814263.02048  -4529313.74646  23372529.2254                   23372530.1194
        33.2504         15.5004
 03  1 14 17 35 59.9980000  0  7G 7G 8G26G27G28G29G11
 -11973931.08649  -9299929.31247  21421782.6784                   21421783.0104
        48.5004         35.2504
  -2336441.09849  -1819578.06648  19773738.5374                   19773736.8304
        50.5004         40.7504
  -7006897.59849  -8326984.13247  22114167.4124                   22114167.1044
        43.7504         29.7504
     24195.66049     16399.70447  20670298.3344                   20670297.7014
        49.0004         37.2504
  -4436839.00049  -3454156.15048  20040185.6934                   20040183.0374
        50.7504         41.5004
  -6218405.27349  -7583769.99847  21584701.8264                   21584699.9394
        47.7504         34.5004
                                  23359504.6234                   23359505.7444
        30.5004         16.7504
 03  1 14 17 36 29.9980000  0  6G 7G 8G26G27G28G29
 -12090031.22349  -9390396.91047  21399690.0144                   21399689.3854
        48.7504         35.0004
  -2344800.35249  -1826091.82148  19772147.4904                   19772146.2754
        50.2504         41.0004
  -7105033.97349  -8403454.07047  22095492.8264                   22095491.8504
        45.0004         30.7504
     40072.09449     28770.86147  20673319.4124                   20673318.9554
        49.0004         37.7504
  -4470785.70349  -3480608.15048  20033726.1934                   20033722.9864
        50.2504         41.2504
  -6302555.61749  -7649341.71747  21568687.7254                   21568686.5884
        47.7504         34.7504
 03  1 14 17 36 59.9980000  0  7G 7G 8G26G27G28G29G11
 -12205817.74249  -9480620.13547  21377656.1934                   21377656.1704
        49.2504         35.7504
  -2352787.09049  -1832315.30548  19770627.9594                   19770626.6074
        50.7504         41.0004
  -7202721.34449  -8479574.11147  22076903.9284                   22076902.5964
        45.0004         30.0004
     56291.64149     41409.38847  20676406.1544                   20676405.4004
        49.2504         36.7504
  -4504475.18749  -3506859.71848  20027315.0764                   20027311.9124
        49.7504         41.2504
  -6386214.57449  -7714530.53047  21552767.6624                   21552767.0764
        48.0004         34.0004
  -6018464.27718                  23333672.193
        34.250
 03  1 14 17 37 29.9980000  0  7G 7G 8G26G27G28G29G11
 -12321285.18449  -9570594.72847  21355683.7174                   21355683.6044
        49.5004         35.5004
  -2360397.37549  -1838245.44948  19769180.0294                   19769178.1934
        51.2504         41.5004
  -7299954.16049  -8555339.96447  22058400.5064                   22058400.1704
        45.5004         30.5004
     72857.81649     54317.99447  20679558.4284                   20679558.1704
        49.5004         37.2504
  -4537904.79349  -3532908.78448  20020953.6314                   20020950.3184
        50.5004         41.5004
  -6469376.65249  -7779332.15947  21536942.6314                   21536941.5064
        49.0004         34.7504
  -6085766.76248  -4740876.03156  23320865.5064                   23320866.6234
        34.5004         19.5004
 03  1 14 17 37 59.9980000  0  7G 7G 8G26G27G28G29G11
 -12436431.96149  -9660319.44147  21333771.8184                   21333771.6974
        49.7504         36.0004
  -2367630.94549  -1843882.04548  19767803.3034                   19767801.4904
        51.0004         40.2504
  -7396730.54349  -8630750.14847  22039984.6934                   22039984.2994
        44.7504         30.7504
     89770.50049     67496.61947  20682777.2564                   20682776.7684
        50.0004         37.0004
  -4571075.43449  -3558756.05948  20014641.4824                   20014638.2294
        51.0004         41.0004
  -6552040.26249  -7843745.38747  21521212.4984                   21521211.4244
        48.5004         34.5004
  -6152684.44149  -4793019.66646  23308131.4044                   23308133.3074
        38.0004         21.0004
 03  1 14 17 38 29.9980000  0  7G 7G 8G26G27G28G29G11
 -12551259.62949  -9749795.51347  21311920.9124                   21311920.4044
        49.0004         35.5004
  -2374490.86349  -1849227.48748  19766498.0924                   19766496.3424
        51.2504         40.5004
  -7493052.15249  -8705805.94847  22021655.4434                   22021655.0454
        44.5004         30.0004
    107026.17649     80942.50647  20686060.8034                   20686060.5294
        49.2504         36.7504
  -4603991.73449  -3584405.14248  20008377.4674                   20008375.0924
        50.5004         41.0004
  -6634207.45349  -7907771.78247  21505576.2484                   21505575.4794
        48.0004         34.0004
  -6219219.24649  -4844864.89446  23295470.5764                   23295472.3734
        40.0004         22.7504
 03  1 14 17 38 59.9980000  0  7G 7G 8G26G27G28G29G11
 -12665767.24649  -9839022.18647  21290130.4904                   21290130.2684
        49.7504         36.0004
  -2380977.44549  -1854282.01048  19765263.5294                   19765261.5144
        51.0004         40.5004
  -7588917.51249  -8780506.21747  22003413.0534                   22003412.6044
        44.7504         30.2504
    124624.11749     94655.09247  20689409.7324                   20689409.4364
        49.5004         37.2504
  -4636655.57049  -3609857.50248  20002161.7324                   20002158.9634
        51.2504         41.2504
  -6715877.15249  -7971410.53147  21490035.1154                   21490034.2094
        49.0004         34.0004
  -6285369.59449  -4896410.59646  23282883.0924                   23282884.1044
        41.5004         25.2504
 03  1 14 17 39 29.9980000  0  7G 7G 8G26G27G28G29G11
 -12779955.13349  -9927999.71647  21268401.3814                   21268400.8264
        49.7504         35.5004
  -2387092.40249  -1859046.97648  19764100.3034                   19764098.5414
        51.0004         41.0004
  -7684326.85249  -8854851.16647  21985256.9904                   21985256.8614
        44.5004         30.2504
    142562.16449    108632.69547  20692823.3974                   20692822.9164
        49.7504         36.7504
  -4669069.59449  -3635115.20848  19995993.8424                   19995991.0064
        50.0004         41.5004
  -6797049.99649  -8034662.10847  21474588.6234                   21474587.4944
        48.7504         34.5004
  -6351135.49649  -4947656.68647  23270367.9824                   23270369.0724
        41.7504         25.7504
 03  1 14 17 39 59.9980000  0  7G 7G 8G26G27G28G29G11
 -12893820.21949 -10016725.73947  21246733.8654                   21246733.1074
        49.7504         36.0004
  -2392834.48449  -1863521.38248  19763007.4674                   19763006.0644
        51.0004         40.7504
  -7779277.09049  -8928838.38147  21967188.6474                   21967188.3074
        44.5004         31.2504
    160841.33249    122876.10047  20696302.0144                   20696301.2684
        49.7504         36.5004
  -4701233.83249  -3660178.27548  19989873.1154                   19989870.2484
        50.5004         41.5004
  -6877723.20749  -8097524.35847  21459237.1154                   21459235.9324
        49.0004         34.5004
  -6416514.36349  -4998601.20247  23257926.5684                   23257928.0374
        42.5004         26.0004
 03  1 14 17 40 29.9980000  0  7G 7G 8G26G27G28G29G11
 -13007353.14149 -10105192.92747  21225129.3344                   21225129.0534
        50.0004         35.5004
  -2398195.39149  -1867698.76048  19761987.6934                   19761986.0884
        50.2504         41.0004
  -7873758.50049  -9002460.26747  21949210.0224                   21949209.0254
        44.2504         31.2504
    179469.42249    137391.39347  20699846.8344                   20699846.1004
        49.5004         36.7504
  -4733141.58249  -3685041.47748  19983801.3734                   19983798.3304
        51.2504         41.0004
  -6957887.47749  -8159990.05347  21443982.1864                   21443981.3034
        49.2504         34.2504
  -6481496.11349  -5049236.30047  23245561.7094                   23245561.8384
        43.0004         26.0004
 03  1 14 17 40 59.9980000  0  7G 7G 8G26G27G28G29G11
 -13120558.37949 -10193404.76347  21203586.8974                   21203586.1664
        49.5004         35.5004
  -2403181.10949  -1871583.78148  19761039.0844                   19761037.3814
        50.5004         41.0004
  -7967775.57049  -9075720.31147  21931318.4904                   21931318.0614
        43.5004         31.0004
    198440.05149    152173.61847  20703456.8654                   20703456.3114
        49.5004         36.7504
  -4764799.90249  -3709710.32648  19977776.8734                   19977774.0764
        50.2504         41.0004
  -7037547.57049  -8222062.85147  21428823.5144                   21428821.9474
        49.0004         34.7504
  -6546085.38349  -5099565.53547  23233270.6314                   23233271.2834
        42.0004         28.2504
 03  1 14 17 41 29.9980000  0  7G 7G 8G26G27G28G29G11
 -13233429.32449 -10281356.12047  21182108.0614                   21182107.8464
        50.0004         36.2504
  -2407786.38749  -1875172.36748  19760162.5224                   19760160.7604
        50.5004         40.5004
  -8061321.43749  -9148613.21247  21913517.6864                   21913516.6154
        42.5004         30.2504
    217757.89149    167226.37247  20707132.8814                   20707132.2794
        49.0004         37.2504
  -4796205.08249  -3734181.92948  19971800.9754                   19971797.8344
        50.5004         41.5004
  -7116697.02049  -8283737.77547  21413761.5224                   21413760.8344
        48.7504         34.5004
  -6610275.55149  -5149583.78247  23221055.1784                   23221057.1004
        43.0004         28.0004
 03  1 14 17 41 59.9980000  0  7G 7G 8G26G27G28G29G11
 -13345967.69549 -10369048.33247  21160692.8654                   21160692.7684
        49.5004         36.7504
  -2412014.51649  -1878467.07448  19759358.2014                   19759356.1434
        50.5004         40.5004
  -8154397.51649  -9221140.05647  21895805.3184                   21895804.7134
        44.0004         30.5004
    237419.56649    182547.06047  20710874.5294                   20710873.9434
        49.2504         38.0004
  -4827361.43449  -3758459.63648  19965871.9824                   19965868.8934
        50.2504         41.0004
  -7195337.80149  -8345016.32747  21398796.9984                   21398795.6664
        49.0004         34.5004
  -6674067.97749  -5199292.10047  23208915.8734                   23208916.7794
        42.0004         27.7504
 03  1 14 17 42 29.9980000  0  7G 7G 8G26G27G28G29G11
 -13458169.90249 -10456478.61147  21139341.7874                   21139341.5334
        49.7504         36.5004
  -2415863.08249  -1881465.99848  19758625.6154                   19758624.0614
        50.0004         40.5004
  -8247000.16849  -9293297.96347  21878184.0534                   21878183.1434
        45.0004         31.0004
    257426.78549    198136.99347  20714681.7644                   20714681.4714
        49.5004         37.2504
  -4858267.91049  -3782542.63048  19959990.7954                   19959987.7054
        50.0004         41.0004
  -7273466.58649  -8405895.91447  21383929.5924                   21383929.0064
        48.5004         34.7504
  -6737459.06649  -5248687.71747  23196852.9044                   23196854.4044
        43.0004         27.2504
 03  1 14 17 42 59.9980000  0  7G 7G 8G26G27G28G29G11
 -13570037.01249 -10543647.76547  21118053.8114                   21118053.6394
        50.2504         36.0004
  -2419334.80949  -1884171.30048  19757965.0534                   19757963.5724
        50.5004         40.7504
  -8339130.41849  -9365087.78847  21860651.7874                   21860651.5294
        43.2504         30.0004
    277776.63749    213993.93547  20718554.7014                   20718553.8384
        49.7504         37.2504
  -4888928.50049  -3806434.03248  19954156.0924                   19954153.5884
        50.0004         41.5004
  -7351084.51649  -8466377.43047  21369159.3504                   21369158.7364
        48.7504         35.0004
  -6800449.87549  -5297771.39347  23184866.0684                   23184867.4554
        43.2504         28.0004
 03  1 14 17 43 29.9980000  0  7G 7G 8G26G27G28G29G11
 -13681563.85249 -10630551.77047  21096831.3654                   21096831.0884
        50.0004         37.2504
  -2422425.80149  -1886579.93448  19757377.0374                   19757375.3894
        49.5004         40.5004
  -8430782.81649  -9436505.24547  21843210.4434                   21843210.3774
        44.0004         30.2504
    298472.41449    230120.41547  20722492.5684                   20722492.5724
        49.5004         37.0004
  -4919340.52349  -3830131.74848  19948368.9904                   19948366.1934
        50.0004         41.0004
  -7428186.59849  -8526456.99847  21354487.3184                   21354486.6624
        49.0004         34.7504
  -6863034.91449  -5346538.91347  23172956.6004                   23172957.4084
        42.0004         27.2504
 03  1 14 17 43 59.9980000  0  7G 7G 8G26G27G28G29G11
 -13792750.19149 -10717190.47347  21075672.7954                   21075672.4864
        49.0004         36.7504
  -2425137.35549  -1888692.88548  19756860.9984                   19756859.3734
        50.7504         40.7504
  -8521957.02749  -9507550.12847  21825861.2014                   21825861.0334
        43.7504         31.5004
    319512.50049    246515.18047  20726496.5144                   20726496.4084
        50.0004         37.0004
  -4949506.38749  -3853637.65048  19942628.3114                   19942625.8574
        49.7504         41.0004
  -7504773.23049  -8586134.91547  21339913.5844                   21339912.8074
        49.2504         35.5004
  -6925213.84449  -5394990.01847  23161124.1864                   23161125.1934
        43.5004         26.0004
 03  1 14 17 44 29.9980000  0  7G 7G 8G26G27G28G29G11
 -13903591.59449 -10803560.37247  21054580.5224                   21054580.1234
        50.2504         37.5004
  -2427466.32049  -1890507.73348  19756417.6074                   19756416.1824
        50.2504         40.7504
  -8612648.50449  -9578218.79347  21808603.8894                   21808602.5494
        44.0004         31.0004
    340899.65649    263180.38847  20730566.7324                   20730565.9124
        50.0004         36.7504
  -4979424.34849  -3876950.38948  19936935.1934                   19936932.4904
        49.5004         41.0004
  -7580839.83649  -8645407.60447  21325438.8424                   21325437.3384
        49.0004         35.0004
  -6986982.23049  -5443121.23247  23149370.1934                   23149370.7254
        41.7504         26.2504
 03  1 14 17 44 59.9980000  0  7G 7G 8G26G27G28G29G11
 -14014086.63349 -10889660.39247  21033553.9514                   21033553.9244
        49.5004         37.5004
  -2429412.85249  -1892024.57748  19756047.4824                   19756045.9084
        50.5004         41.0004
  -8702855.57849  -9648510.06847  21791437.8894                   21791437.3184
        44.0004         29.7504
    362633.24249    280115.55547  20734702.4594                   20734701.8814
        49.7504         36.5004
  -5009095.69949  -3900070.95548  19931289.1394                   19931286.5024
        50.0004         41.0004
  -7656385.33249  -8704274.23547  21311062.7954                   21311061.8344
        49.0004         35.5004
  -7048338.80549  -5490931.54146  23137693.6934                   23137694.9394
        44.2504         25.2504
 03  1 14 17 45 29.9970000  0  7G 7G 8G26G27G28G29G11
 -14124234.78149 -10975490.10847  21012593.6344                   21012593.1574
        50.5004         37.5004
  -2430981.20749  -1893246.72948  19755749.0244                   19755747.6384
        49.5004         40.5004
  -8792578.33249  -9718423.89947  21774364.0634                   21774363.9544
        43.5004         31.5004
    384707.80149    297316.42347  20738902.9704                   20738902.3454
        49.7504         37.0004
  -5038524.98849  -3923002.90548  19925688.9854                   19925686.2864
        48.7504         41.0004
  -7731410.63349  -8762735.52947  21296786.1734                   21296785.1464
        49.5004         35.0004
  -7109284.16849  -5538421.44847  23126096.8454                   23126098.0874
        43.0004         27.0004
 03  1 14 17 45 59.9970000  0  7G 7G 8G26G27G28G29G11
 -14234036.92649 -11061050.22847  20991699.0564                   20991698.2434
        51.0004         37.0004
  -2432166.55949  -1894170.44748  19755523.5634                   19755522.2864
        49.7504         40.2504
  -8881816.11749  -9787959.87647  21757382.5634                   21757382.3804
        44.2504         31.2504
    407129.26249    314787.58147  20743169.5404                   20743169.4584
        49.5004         37.0004
  -5067710.39549  -3945744.81248  19920135.2124                   19920132.0634
        48.5004         41.2504
  -7805914.91049  -8820790.83547  21282608.2984                   21282606.7314
        48.7504         35.5004
  -7169816.26649  -5585589.35247  23114578.5324                   23114579.4194
        43.0004         27.0004
 03  1 14 17 46 29.9970000  0  7G 7G 8G26G27G28G29G11
 -14343490.28149 -11146338.55347  20970870.8064                   20970869.9314
        50.5004         37.5004
  -2432971.27349  -1894797.55548  19755370.2354                   19755369.1104
        49.5004         40.7504
  -8970566.83249  -9857116.28347  21740493.1574                   21740493.3804
        44.5004         31.7504
    429894.14149    332526.34247  20747501.8374                   20747501.4744
        49.2504         37.0004
  -5096654.62549  -3968298.79548  19914627.2904                   19914624.3724
        49.0004         40.5004
  -7879896.41049  -8878438.77547  21268530.1734                   21268529.1344
        49.5004         35.2504
  -7229933.50449  -5632433.98847  23103138.1424                   23103138.9584
        42.5004         26.0004
 03  1 14 17 46 59.9970000  0  7G 7G 8G26G27G28G29G11
 -14452589.19149 -11231350.67847  20950109.9154                   20950109.2474
        50.0004         38.0004
  -2433390.92249  -1895124.61448  19755290.3294                   19755289.3024
        49.7504         40.7504
  -9058824.52749  -9925888.53047  21723698.7744                   21723698.4424
        45.0004         31.7504
    453006.32449    350535.73647  20751900.3294                   20751899.7784
        49.7504         36.5004
  -5125354.45349  -3990662.34348  19909165.7744                   19909163.4034
        49.2504         41.0004
  -7953349.86749  -8935675.27447  21254552.5244                   21254551.4384
        49.5004         36.0004
  -7289630.32049  -5678951.01046  23091778.1734                   23091778.7594
        44.0004         25.2504
 03  1 14 17 47 29.9970000  0  7G 7G 8G26G27G28G29G11
 -14561333.38749 -11316086.40847  20929416.5794                   20929415.9664
        50.2504         37.5004
  -2433426.78149  -1895152.61548  19755283.8294                   19755282.4074
        50.0004         40.5004
  -9146588.98049  -9994276.42847  21706998.2354                   21706997.5634
        44.7504         32.2504
    476464.19149    368814.48647  20756363.7354                   20756363.4704
        50.0004         36.5004
  -5153812.15649  -4012837.21748  19903750.5634                   19903748.0364
        47.7504         40.7504
  -8026275.52749  -8992500.48347  21240674.9074                   21240674.0834
        49.2504         35.0004
  -7348906.36349  -5725140.21046  23080498.2124                   23080498.9854
        42.7504         24.5004
 03  1 14 17 47 59.9970000  0  7G 7G 8G26G27G28G29G11
 -14669722.75049 -11400545.64447  20908790.7124                   20908789.9854
        50.5004         38.0004
  -2433080.03149  -1894882.46848  19755349.9154                   19755348.5324
        50.5004         40.0004
  -9233859.93049 -10062279.77747  21690390.6424                   21690390.3454
        44.5004         32.5004
    500266.04749    387361.28347  20760893.0874                   20760892.7594
        49.7504         36.2504
  -5182030.27349  -4034825.39148  19898380.8684                   19898378.0914
        48.7504         40.7504
  -8098673.27049  -9048914.33247  21226898.3844                   21226897.2164
        49.7504         35.5004
  -7407761.59849  -5771001.50646  23069298.3064                   23069299.4234
        42.2504         25.5004
 03  1 14 17 48 29.9970000  0  7G 7G 8G26G27G28G29G11
 -14777759.59049 -11484730.18047  20888231.8534                   20888231.7284
        50.7504         37.5004
  -2432354.33649  -1894317.04848  19755487.8374                   19755486.6144
        48.2504         40.2504
  -9320639.39549 -10129900.15047  21673877.0564                   21673877.1144
        44.5004         32.0004
    524408.00449    406173.08247  20765487.7044                   20765487.4234
        49.2504         35.7504
  -5210013.32449  -4056630.41048  19893056.0634                   19893053.3104
        47.5004         40.7504
  -8170545.82849  -9104918.95147  21213221.5564                   21213220.2594
        49.2504         36.0004
  -7466197.70349  -5816536.19647  23058177.8134                   23058179.7244
        41.0004         26.2504
 03  1 14 17 48 59.9970000  0  7G 7G 8G26G27G28G29G11
 -14885434.30949 -11568632.55247  20867742.0874                   20867741.5794
        51.0004         37.7504
  -2431241.56249  -1893450.01848  19755699.7904                   19755698.4274
        46.7504         40.5004
  -9406917.80949 -10197130.11047  21657459.0404                   21657459.0244
        45.7504         32.5004
    548897.43849    425255.64847  20770148.0484                   20770147.3684
        49.2504         35.5004
  -5237754.47349  -4078246.92248  19887777.0404                   19887774.1854
        45.7504         41.0004
  -8241883.78949  -9160507.00147  21199646.3994                   21199645.3294
        49.5004         35.5004
  -7524205.61349  -5861737.21646  23047140.1494                   23047140.8844
        40.5004         24.7504
 03  1 14 17 49 29.9970000  0  7G 7G 8G26G27G28G29G11
 -14992748.79749 -11652254.21947  20847321.0564                   20847320.3764
        51.0004         38.5004
  -2429744.84049  -1892283.79448  19755984.5094                   19755983.3684
        48.0004         39.7504
  -9492696.89549 -10263970.96647  21641135.6344                   21641135.7864
        46.0004         32.2504
    573730.96949    444606.33947  20774874.2044                   20774873.0794
        48.7504         36.0004
  -5265258.05549  -4099678.32048  19882543.2204                   19882540.6494
        47.0004         40.7504
  -8312689.54749  -9215680.34547  21186172.5634                   21186171.4464
        49.5004         35.5004
  -7581787.09049  -5906605.97646  23036182.3764                   23036184.1144
        41.0004         24.0004
 03  1 14 17 49 59.9970000  0  7G 7G 8G26G27G28G29G11
 -15099696.34049 -11735589.95147  20826969.4314                   20826968.8764
        50.5004         37.2504
  -2427859.27749  -1890814.58248  19756343.3994                   19756342.3334
        49.7504         40.2504
  -9577969.93749 -10330417.50447  21624908.7434                   21624908.7554
        46.5004         32.5004
    598913.14849    464228.70947  20779665.7354                   20779665.5564
        49.2504         35.5004
  -5292520.01649  -4120921.44248  19877355.5324                   19877352.4894
        48.5004         40.7504
  -8382956.59049  -9270433.92247  21172801.0874                   21172800.2744
        50.2504         35.5004
  -7638935.34449  -5951137.12746  23025307.6104                   23025308.7744
        40.7504         25.2504
 03  1 14 17 50 29.9970000  0  7G 7G 8G26G27G28G29G11
 -15206285.05949 -11818646.09347  20806686.1344                   20806685.9034
        51.0004         38.0004
  -2425593.82449  -1889049.34648  19756774.7204                   19756773.4034
        49.7504         40.2504
  -9662744.94549 -10396475.94947  21608776.6884                   21608777.0014
        46.0004         32.7504
    624434.20749    484115.13747  20784522.4784                   20784522.0754
        49.7504         35.5004
  -5319550.60249  -4141984.28148  19872211.7124                   19872209.3534
        49.2504         41.0004
  -8452693.59049  -9324774.47847  21159530.7354                   21159529.6964
        49.5004         35.5004
  -7695658.26249  -5995336.89146  23014513.6964                   23014514.7284
        41.2504         24.7504
 03  1 14 17 50 59.9970000  0  7G 7G 8G26G27G28G29G11
 -15312506.53149 -11901416.05547  20786473.0954                   20786472.1854
        50.7504         37.5004
  -2422941.78149  -1886982.88448  19757279.3374                   19757278.0094
        50.0004         40.0004
  -9747013.40249 -10462139.71247  21592740.6814                   21592740.7744
        47.0004         33.5004
    650300.58249    504270.63347  20789444.6184                   20789444.3334
        49.5004         36.0004
  -5346344.03949  -4162862.32248  19867113.2284                   19867110.6964
        50.5004         40.7504
  -8521892.34049  -9378695.61047  21146362.5714                   21146361.8644
        49.5004         36.0004
  -7751947.39849  -6039198.65046  23003802.3764                   23003803.4314
        40.0004         22.7504
 03  1 14 17 51 29.9970000  0  7G 7G 8G26G27G28G29G11
 -15418363.17649 -11983901.75847  20766329.2354                   20766328.5014
        51.0004         37.2504
  -2419906.80149  -1884618.01848  19757856.8214                   19757855.4194
        50.7504         40.0004
  -9830777.64149 -10527410.54147  21576801.3604                   21576801.2434
        47.7504         33.0004
    676508.30949    524692.12147  20794431.8924                   20794431.8134
        49.0004         36.0004
  -5372905.34049  -4183559.48148  19862058.8134                   19862056.1384
        50.0004         40.7504
  -8590555.63749  -9432199.51947  21133296.2284                   21133295.5094
        49.0004         36.7504
  -7807805.38749  -6082724.46146  22993172.4624                   22993174.0564
        40.7504         23.5004
 03  1 14 17 51 59.9970000  0  7G 7G 8G26G27G28G29G11
 -15523850.90649 -12066099.95847  20746255.3134                   20746254.7044
        50.5004         37.5004
  -2416486.33649  -1881952.77448  19758507.7594                   19758506.5634
        50.7504         40.5004
  -9914033.39849 -10592285.16847  21560958.3064                   21560957.9664
        47.2504         33.2504
    703059.48449    545381.23347  20799484.3534                   20799484.2514
        49.0004         36.0004
  -5399232.64849  -4204074.29848  19857048.9234                   19857046.3064
        49.5004         41.0004
  -8658679.78549  -9485283.29947  21120332.5954                   21120331.8374
        49.2504         36.0004
  -7863227.90649  -6125910.91646  22982626.2674                   22982628.1464
        38.7504         24.5004
 03  1 14 17 52 29.9970000  0  7G 7G 8G26G27G28G29G11
 -15628969.83249 -12148010.78947  20726251.7434                   20726251.3534
        50.7504         37.5004
  -2412681.91449  -1878988.34848  19759231.8294                   19759230.3684
        52.0004         40.0004
  -9996780.99649 -10656763.81847  21545212.2284                   21545211.8254
        47.0004         33.0004
    729952.12149    566336.41247  20804602.0954                   20804602.0524
        49.0004         35.5004
  -5425328.74249  -4224408.95848  19852082.9074                   19852080.4384
        50.2504         41.0004
  -8726265.32049  -9537947.37947  21107472.0794                   21107470.8294
        49.7504         36.0004
  -7918215.15649  -6168758.19746  22972162.6884                   22972164.6344
        41.0004         24.5004
 03  1 14 17 52 59.9970000  0  7G 7G 8G26G27G28G29G11
 -15733714.69549 -12229630.13647  20706319.6654                   20706318.9424
        50.0004         37.5004
  -2408489.38349  -1875721.48048  19760029.3764                   19760028.3604
        51.2504         40.0004
 -10079014.78149 -10720842.08947  21529563.9704                   21529563.1264
        47.2504         33.0004
    757189.60949    587560.31147  20809785.0484                   20809785.3254
        48.7504         36.2504
  -5451190.50049  -4244561.01548  19847161.7514                   19847159.3294
        50.7504         41.2504
  -8793307.21549  -9590187.85547  21094714.4544                   21094713.0524
        50.0004         35.5004
  -7972761.90249  -6211262.22946  22961782.8214                   22961783.9934
        42.0004         24.7504
 03  1 14 17 53 29.9970000  0  7G 7G 8G26G27G28G29G11
 -15838088.92649 -12310960.68247  20686457.8684                   20686457.3374
        50.7504         38.0004
  -2403913.72349  -1872156.08448  19760900.4934                   19760899.3534
        50.2504         40.5004
 -10160738.38749 -10784522.84547  21514012.2284                   21514011.5994
        47.2504         33.0004
    784766.84049    609048.92747  20815033.2124                   20815033.3214
        48.5004         36.0004
  -5476823.95749  -4264535.18648  19842284.0174                   19842281.5404
        49.5004         41.0004
  -8859809.38749  -9642007.76047  21082059.0564                   21082058.1104
        49.0004         36.0004
  -8026871.37549  -6253425.50946  22951486.3844                   22951487.7864
        40.2504         25.0004
 03  1 14 17 53 59.9970000  0  7G 7G 8G26G27G28G29G11
 -15942082.30949 -12391994.46347  20666668.7354                   20666667.6614
        50.7504         38.0004
  -2398946.14549  -1868285.31048  19761845.7594                   19761844.3374
        50.0004         40.2504
 -10241941.32049 -10847797.86247  21498559.0874                   21498559.2944
        46.5004         32.5004
    812692.08649    630808.73347  20820346.9074                   20820347.3644
        49.0004         35.2504
  -5502221.30149  -4284325.36248  19837451.0094                   19837448.2394
        49.5004         40.5004
  -8925761.97749  -9693399.42747  21069508.2904                   21069507.9424
        48.7504         35.5004
  -8080533.50449  -6295240.24946  22941274.5484                   22941276.4234
        40.7504         24.0004
 03  1 14 17 54 29.9970000  0  7G 7G 8G26G27G28G29G11
 -16045700.36349 -12472735.78147  20646950.6424                   20646950.2634
        50.5004         38.0004
  -2393593.37949  -1864114.36348  19762864.3534                   19762862.8924
        50.0004         39.7504
 -10322629.21149 -10910671.54547  21483204.9154                   21483204.7594
        47.0004         32.7504
    840958.12949    652834.09347  20825725.9154                   20825726.5284
        48.5004         35.5004
  -5527390.08649  -4303937.43848  19832661.3134                   19832659.0244
        49.5004         40.7504
  -8991171.00449  -9744367.52847  21057061.4314                   21057060.9074
        49.5004         36.0004
  -8133753.75049  -6336710.65246  22931147.7204                   22931148.8334
        40.5004         25.5004
 03  1 14 17 54 59.9970000  0  7G 7G 8G26G27G28G29G11
 -16148934.56649 -12553177.98847  20627305.8994                   20627305.2554
        50.5004         38.2504
  -2387848.38749  -1859637.80048  19763957.5404                   19763956.5634
        50.0004         39.7504
 -10402793.32049 -10973137.10447  21467950.3134                   21467949.7744
        47.7504         33.5004
    869571.75849    675130.29747  20831171.5404                   20831171.3254
        48.5004         35.0004
  -5552324.36749  -4323366.78448  19827916.9544                   19827914.5674
        49.7504         41.2504
  -9056028.16849  -9794905.61947  21044720.0954                   21044719.2084
        49.0004         36.0004
  -8186523.48449  -6377830.01947  22921105.7284                   22921107.9704
        43.0004         26.0004
 03  1 14 17 55 29.9970000  0  7G 7G 8G26G27G28G29G11
 -16251789.17649 -12633324.41847  20607733.3214                   20607732.5284
        51.0004         38.5004
  -2381716.74649  -1854859.95148  19765124.4854                   19765123.5364
        48.0004         39.7504
 -10482438.05949 -11035197.94347  21452794.4704                   21452793.9704
        47.2504         33.0004
    898526.61349    697692.39447  20836681.6034                   20836681.7474
        48.5004         35.7504
  -5577030.87949  -4342618.64148  19823215.2354                   19823212.7284
        48.0004         41.7504
  -9120338.42649  -9845017.54547  21032482.2674                   21032481.2244
        49.0004         35.7504
  -8238847.21549  -6418601.84147  22911149.5564                   22911150.6814
        43.0004         27.2504
 03  1 14 17 55 59.9970000  0  7G 7G 8G26G27G28G29G11
 -16354264.73849 -12713175.47747  20588232.9074                   20588232.0134
        50.5004         38.0004
  -2375200.48449  -1849782.39748  19766364.5564                   19766363.4384
        48.7504         40.0004
 -10561563.76249 -11096854.34147  21437737.5874                   21437737.0174
        48.0004         32.7504
    927820.46549    720518.64147  20842255.5874                   20842256.1814
        49.0004         35.5004
  -5601512.26249  -4361695.07648  19818556.8214                   19818554.1224
        48.0004         41.2504
  -9184102.56249  -9894703.91147  21020348.3994                   21020347.4624
        49.0004         35.5004
  -8290725.36749  -6459026.46147  22901277.5404                   22901278.3024
        44.0004         26.0004
 03  1 14 17 56 29.9970000  0  7G 7G 8G26G27G28G29G11
 -16456353.78149 -12792725.36747  20568805.7044                   20568805.1654
        50.7504         38.0004
  -2368293.30549  -1844400.22848  19767678.8994                   19767677.6494
        47.5004         40.5004
 -10640163.08649 -11158100.59047  21422780.8294                   21422780.2044
        48.0004         33.5004
    957458.98049    743613.46547  20847895.7984                   20847896.0484
        48.7504         35.2504
  -5625763.28549  -4380592.01048  19813941.8134                   19813939.4424
        48.0004         41.0004
  -9247313.55949  -9943959.26747  21008319.9854                   21008318.9894
        49.7504         35.7504
  -8342150.55549  -6499098.10946  22891490.9464                   22891492.3994
        41.2504         23.7504
 03  1 14 17 56 59.9970000  0  7G 7G 8G26G27G28G29G11
 -16558056.18449 -12871973.97047  20549452.6734                   20549452.0874
        51.0004         39.0004
  -2360996.41449  -1838714.39848  19769067.6734                   19769066.5564
        49.5004         39.5004
 -10718235.68749 -11218936.39447  21407923.7904                   21407923.1854
        48.5004         33.0004
    987440.40649    766975.46647  20853600.7124                   20853601.5094
        48.5004         35.0004
  -5649786.17249  -4399311.17048  19809370.6494                   19809367.9664
        49.0004         41.0004
  -9309971.76249  -9992783.87347  20996396.5094                   20996395.2314
        49.5004         36.0004
  -8393122.61349  -6538816.72146  22881791.1964                   22881793.0564
        41.7504         24.7504
 03  1 14 17 57 29.9970000  0  7G 7G 8G26G27G28G29G11
 -16659372.29349 -12950921.57247  20530172.6494                   20530172.3294
        51.0004         38.7504
  -2353311.67249  -1832726.33148  19770530.0244                   19770528.9194
        50.0004         40.0004
 -10795782.09449 -11279362.17247  21393167.6034                   21393166.7634
        48.0004         32.7504
   1017762.60549    790603.01547  20859371.3604                   20859371.3844
        48.0004         34.0004
  -5673583.64149  -4417854.69748  19804842.0014                   19804839.6494
        50.0004         41.0004
  -9372077.98849 -10041178.36247  20984578.0874                   20984577.2784
        49.5004         36.0004
  -8443641.80149  -6578182.38346  22872177.9854                   22872180.1224
        41.0004         25.2504
 03  1 14 17 57 59.9970000  0  7G 7G 8G26G27G28G29G11
 -16760299.03149 -13029565.75647  20510967.1034                   20510966.5564
        50.7504         38.5004
  -2345237.11349  -1826434.52848  19772066.4074                   19772065.5484
        50.5004         39.5004
 -10872799.16849 -11339375.49247  21378511.3924                   21378510.7244
        48.0004         33.0004
   1048426.89149    814497.12147  20865206.5404                   20865207.1694
        47.7504         34.0004
  -5697154.81249  -4436221.86648  19800356.5564                   19800354.0054
        49.7504         41.0004
  -9433629.67249 -10089140.74247  20972865.2434                   20972864.0404
        49.0004         36.5004
  -8493705.44149  -6617193.04746  22862651.0244                   22862652.9464
        42.0004         25.0004
 03  1 14 17 58 29.9970000  0  7G 7G 8G26G27G28G29G11
 -16860831.04349 -13107902.37347  20491836.3374                   20491835.9074
        50.5004         38.2504
  -2336769.05149  -1819836.08848  19773677.8214                   19773676.9584
        51.2504         39.5004
 -10949281.42649 -11398972.06647  21363957.4234                   21363956.8104
        47.7504         33.0004
   1079436.78949    838660.54547  20871108.3684                   20871108.1774
        47.5004         34.5004
  -5720496.53149  -4454410.24348  19795915.3214                   19795912.3844
        50.5004         40.7504
  -9494621.90249 -10136667.18047  20961258.6734                   20961257.8844
        48.0004         36.5004
  -8543307.85949  -6655844.33846  22853211.5404                   22853214.0404
        41.0004         25.5004
 03  1 14 17 58 59.9970000  0  7G 7G 8G26G27G28G29G11
 -16960973.27749 -13185935.26247  20472780.0874                   20472779.2084
        51.2504         38.5004
  -2327913.65649  -1812935.82148  19775363.0484                   19775361.9504
        49.2504         39.5004
 -11025233.95349 -11458155.83947  21349504.0564                   21349503.5794
        48.5004         33.7504
   1110785.52749    863087.98747  20877073.6494                   20877073.9274
        46.5004         34.5004
  -5743615.90649  -4472425.37448  19791515.6344                   19791512.8884
        49.5004         41.0004
  -9555060.05149 -10183761.88047  20949757.4464                   20949756.7314
        48.5004         36.5004
  -8592453.89149  -6694139.97246  22843860.0244                   22843861.3564
        41.5004         23.5004
 03  1 14 17 59 29.9970000  0  7G 7G 8G26G27G28G29G11
 -17060722.03549 -13263661.55147  20453798.0714                   20453797.8104
        50.7504         38.7504
  -2318668.55549  -1805731.90648  19777122.4154                   19777121.6534
        51.0004         39.7504
 -11100652.94149 -11516923.90647  21335151.8374                   21335151.4894
        47.5004         33.2504
   1142474.94949    887780.90447  20883104.0014                   20883104.3884
        46.2504         34.5004
  -5766511.46149  -4490266.09248  19787158.7204                   19787155.8804
        51.0004         40.7504
  -9614941.00849 -10230422.40047  20938362.7044                   20938361.7394
        48.2504         36.7504
  -8641140.03549  -6732077.25446  22834595.2984                   22834596.8964
        40.7504         22.5004
 03  1 14 17 59 59.9970000  0  7G 7G 8G26G27G28G29G11
 -17160074.62549 -13341079.13547  20434892.0404                   20434891.9894
        50.7504         39.0004
  -2309032.33249  -1798223.20948  19778956.2044                   19778955.1924
        51.5004         40.2504
 -11175535.70349 -11575274.12547  21320902.6184                   21320902.1304
        48.0004         33.2504
   1174505.89849    912739.95647  20889199.7824                   20889199.6224
        45.0004         35.0004
  -5789182.77349  -4507932.08648  19782844.1574                   19782841.9504
        51.0004         40.2504
  -9674262.57449 -10276647.02847  20927074.1964                   20927073.5054
        47.5004         36.5004
  -8689363.68049  -6769654.07946  22825418.5794                   22825420.3414
        41.7504         21.5004
 03  1 14 18  0 29.9970000  0  7G 7G 8G26G27G28G29G11
 -17259029.74249 -13418186.99447  20416061.4384                   20416061.0524
        50.7504         39.0004
  -2299005.27349  -1790409.97248  19780864.3454                   19780863.1064
        51.0004         40.0004
 -11249881.25849 -11633205.74647  21306755.0794                   21306754.3804
        47.7504         33.5004
   1206877.88349    937964.73247  20895359.6264                   20895360.0014
        46.5004         35.2504
  -5811630.94549  -4525424.19448  19778572.8924                   19778569.8564
        51.0004         40.7504
  -9733024.05149 -10322435.22147  20915892.3534                   20915891.5174
        48.0004         36.2504
  -8737123.78549  -6806869.79046  22816330.0094                   22816331.8104
        41.2504         22.7504
 03  1 14 18  0 59.9970000  0  7G 7G 8G26G27G28G29G11
 -17357590.00049 -13494987.18747  20397306.2434                   20397305.7004
        50.0004         39.2504
  -2288590.93049  -1782294.95447  19782846.0244                   19782845.2434
        51.5004         39.0004
 -11323691.71549 -11690720.41147  21292708.9624                   21292709.1614
        48.0004         33.5004
   1239586.71549    963451.98547  20901584.4464                   20901584.6854
        46.7504         34.5004
  -5833860.34049  -4542745.83248  19774342.5014                   19774340.1224
        51.2504         41.2504
  -9791228.38349 -10367789.27447  20904816.2904                   20904815.7514
        48.5004         36.5004
  -8784422.93049  -6843726.18046  22807329.5634                   22807331.0244
        41.2504         22.0004
 03  1 14 18  1 29.9970000  0  7G 7G 8G26G27G28G29G11
 -17455752.69949 -13571477.58948  20378626.7594                   20378626.0444
        51.0004         39.5004
  -2277788.14849  -1773877.26748  19784901.9624                   19784901.2514
        51.7504         39.7504
 -11396964.67649 -11747816.22147  21278766.4784                   21278765.4894
        48.0004         34.5004
   1272633.19149    989202.34847  20907872.7204                   20907872.9584
        47.5004         34.2504
  -5855870.40649  -4559896.56648  19770154.3294                   19770151.4464
        51.5004         40.5004
  -9848873.38349 -10412707.47147  20893847.0174                   20893846.4114
        49.0004         36.2504
  -8831258.42649  -6880221.35346  22798416.8684                   22798418.2314
        41.5004         22.0004
 03  1 14 18  1 59.9970000  0  7G 7G 8G26G27G28G29G11
 -17553512.40649 -13647653.97248  20360023.5404                   20360023.0994
        50.5004         39.5004
  -2266592.84049  -1765153.70148  19787032.4784                   19787031.3994
        51.5004         39.5004
 -11469694.89149 -11804489.14147  21264925.4154                   21264925.2984
        47.5004         33.5004
   1306020.80949   1015218.55047  20914225.8534                   20914226.8024
        47.5004         34.2504
  -5877657.98449  -4576873.93848  19766008.4154                   19766005.6224
        51.5004         41.0004
  -9905954.24249 -10457186.09647  20882984.7824                   20882983.7904
        48.7504         36.5004
  -8877624.91849  -6916350.96946  22789593.6884                   22789594.9384
        41.7504         22.5004
 03  1 14 18  2 29.9970000  0  7G 7G 8G26G27G28G29G11
 -17650870.56249 -13723517.45747  20341496.8454                   20341496.1614
        51.0004         38.7504
  -2255007.64149  -1756126.34947  19789236.8604                   19789236.1424
        51.5004         39.0004
 -11541883.55949 -11860740.06847  21251188.8844                   21251188.4354
        48.5004         33.5004
   1339746.44549   1041498.12647  20920644.2284                   20920644.5444
        48.5004         34.7504
  -5899226.63349  -4593680.70648  19761903.8604                   19761901.3254
        51.0004         41.0004
  -9962472.93049 -10501226.66247  20872229.3764                   20872229.1344
        49.2504         36.0004
  -8923524.18449  -6952116.56146  22780859.5324                   22780861.1264
        42.2504         21.2504
 03  1 14 18  2 59.9970000  0  7G 7G 8G26G27G28G29G11
 -17747821.01249 -13799063.24048  20323047.3924                   20323047.1104
        51.2504         39.7504
  -2243028.01249  -1746791.63048  19791516.5564                   19791515.7124
        51.0004         39.7504
 -11613524.80149 -11916564.41947  21237555.8134                   21237555.6144
        48.5004         33.0004
   1373814.36349   1068044.41447  20927126.9544                   20927127.5404
        49.0004         34.0004
  -5920572.41449  -4610313.82148  19757841.8534                   19757839.4194
        51.2504         41.0004
 -10018424.00049 -10544824.92047  20861582.7204                   20861581.9074
        50.2504         36.2504
  -8968949.94949  -6987513.18746  22772214.7824                   22772216.4504
        42.2504         21.7504
 03  1 14 18  3 29.9970000  0  7G 7G 8G26G27G28G29G11
 -17844361.50049 -13874289.57447  20304676.5564                   20304675.9424
        51.0004         39.2504
  -2230652.91449  -1737148.74948  19793871.4934                   19793870.5364
        50.7504         39.5004
 -11684616.37549 -11971960.47447  21224027.5794                   21224027.5244
        48.2504         33.5004
   1408225.15649   1094857.88847  20933675.4544                   20933676.0794
        48.0004         33.5004
  -5941694.75049  -4626772.80948  19753822.6964                   19753819.8534
        51.0004         40.7504
 -10073805.70349 -10587979.52147  20851043.6494                   20851042.9464
        48.7504         36.5004
  -9013899.94549  -7022539.09846  22763661.6034                   22763662.3964
        42.7504         21.2504
 03  1 14 18  3 59.9970000  0  7G 7G 8G26G27G28G29G11
 -17940495.33249 -13949199.04648  20286382.8374                   20286382.1614
        51.2504         39.5004
  -2217886.69549  -1727201.10948  19796301.1184                   19796300.2314
        50.7504         39.7504
 -11755161.46549 -12026930.69247  21210603.3214                   21210602.8994
        48.7504         33.7504
   1442973.79349   1121934.60647  20940287.5484                   20940288.6614
        47.5004         34.2504
  -5962599.15249  -4643062.01248  19749844.5954                   19749841.9544
        50.7504         40.7504
 -10128621.66849 -10630693.28947  20840612.6264                   20840612.1064
        49.0004         36.7504
  -9058377.51649  -7057196.85546  22755197.6034                   22755198.8844
        42.5004         21.2504
 03  1 14 18  4 29.9970000  0  7G 7G 8G26G27G28G29G11
 -18036222.57449 -14023791.68948  20268166.4854                   20268166.2164
        51.0004         39.7504
  -2204731.13349  -1716950.08447  19798804.5874                   19798803.3994
        50.5004         39.2504
 -11825160.41849 -12081475.33547  21197282.9234                   21197282.9154
        48.0004         33.0004
   1478058.11349   1149272.90047  20946964.5794                   20946965.0444
        46.0004         33.5004
  -5983288.04349  -4659183.25548  19745907.3994                   19745904.9154
        50.7504         41.7504
 -10182872.96149 -10672967.05247  20830289.0244                   20830288.3214
        48.0004         36.5004
  -9102383.11749  -7091486.91246  22746823.1884                   22746824.5834
        43.0004         21.5004
 03  1 14 18  4 59.9970000  0  7G 7G 8G26G27G28G29G11
 -18131537.21149 -14098062.82048  20250028.7204                   20250028.0834
        51.2504         39.7504
  -2191181.38749  -1706391.90348  19801383.0634                   19801382.0874
        50.7504         40.0004
 -11894607.26649 -12135589.76647  21184067.6964                   21184067.2594
        48.0004         33.0004
   1513482.48849   1176876.20547  20953705.3134                   20953706.2984
        47.0004         34.0004
  -6003757.03149  -4675133.15148  19742012.5244                   19742009.8564
        51.0004         40.7504
 -10236553.81649 -10714796.32547  20820073.8454                   20820073.2474
        48.5004         36.5004
  -9145910.95349  -7125404.61446  22738539.8924                   22738540.5564
        42.0004         19.7504
 03  1 14 18  5 29.9970000  0  7G 7G 8G26G27G28G29G11
 -18226443.36349 -14172015.64247  20231968.7744                   20231968.0404
        51.0004         39.2504
  -2177242.66449  -1695530.61848  19804035.7434                   19804034.9624
        50.7504         39.5004
 -11963506.02749 -12189277.13747  21170956.7674                   21170956.2204
        48.0004         33.5004
   1549241.09849   1204739.90647  20960510.3764                   20960511.0674
        45.0004         34.0004
  -6024012.29349  -4690916.51548  19738158.1344                   19738155.5404
        50.7504         41.0004
 -10289669.04349 -10756184.84447  20809966.2284                   20809966.1654
        48.2504         37.0004
  -9188965.09049  -7158953.23946  22730347.2124                   22730347.5714
        43.5004         20.2504
 03  1 14 18  5 59.9970000  0  7G 7G 8G26G27G28G29G11
 -18320941.93049 -14245650.88548  20213986.3294                   20213985.7124
        51.2504         40.0004
  -2162917.33249  -1684368.08148  19806761.2824                   19806760.7744
        50.2504         40.0004
 -12031857.85949 -12242538.32047  21157949.9854                   21157949.3924
        47.5004         34.0004
   1585331.18449   1232861.91447  20967378.3684                   20967378.6144
        46.0004         34.0004
  -6044056.59049  -4706535.49948  19734343.6104                   19734341.4854
        50.5004         40.7504
 -10342220.21549 -10797133.83047  20799966.3604                   20799965.6924
        48.0004         36.5004
  -9231546.35249  -7192133.40746  22722244.0634                   22722245.4234
        42.5004         20.7504
 03  1 14 18  6 29.9970000  0  7G 7G 8G26G27G28G29G11
 -18415022.62549 -14318960.49948  20196083.4384                   20196082.8494
        51.2504         39.7504
  -2148196.41049  -1672897.30048  19809562.9784                   19809562.1264
        51.0004         39.5004
 -12099652.41449 -12295365.25347  21145049.1494                   21145048.7314
        47.7504         33.7504
   1621761.32449   1261248.93347  20974310.5634                   20974310.7984
        46.0004         33.0004
  -6063881.66849  -4721983.65348  19730571.5874                   19730569.0634
        50.0004         41.5004
 -10394197.41049 -10837635.56947  20790075.5324                   20790074.8764
        47.5004         36.7504
  -9273644.53149  -7224937.17746  22714232.7904                   22714234.3334
        43.0004         21.0004
 03  1 14 18  6 59.9970000  0  7G 7G 8G26G27G28G29G11
 -18508691.13349 -14391948.93248  20178258.7124                   20178258.4624
        51.2504         40.2504
  -2133086.76249  -1661123.61047  19812438.2434                   19812437.3964
        50.2504         39.0004
 -12166895.58249 -12347762.55447  21132252.8604                   21132252.4384
        48.0004         33.5004
   1658524.13749   1289895.14047  20981305.8294                   20981307.4664
        46.5004         33.7504
  -6083495.36749  -4737267.08948  19726838.9074                   19726836.7744
        49.7504         41.5004
 -10445607.30949 -10877695.26647  20780292.1884                   20780291.5634
        46.5004         36.2504
  -9315265.67249  -7257369.21246  22706312.9464                   22706313.3254
        44.2504         21.5004
 03  1 14 18  7 29.9970000  0  7G 7G 8G26G27G28G29G11
 -18601942.09049 -14464612.00648  20160513.9314                   20160512.9194
        51.5004         40.0004
  -2117584.34449  -1649043.86547  19815388.3064                   19815387.4894
        51.0004         39.0004
 -12233582.15649 -12399726.14147  21119563.0014                   21119562.5634
        48.5004         34.0004
   1695623.01249   1318803.20647  20988365.9624                   20988366.9544
        47.0004         34.2504
  -6102894.12149  -4752383.05748  19723147.4234                   19723145.1734
        49.7504         41.2504
 -10496445.05549 -10917309.10347  20770618.0714                   20770617.7124
        47.5004         36.0004
  -9356404.59449  -7289425.51946  22698485.0244                   22698485.0524
        43.7504         20.5004
 03  1 14 18  7 59.9970000  0  7G 7G 8G26G27G28G29G11
 -18694776.69949 -14536950.64748  20142847.9384                   20142847.1144
        51.2504         39.7504
  -2101691.84849  -1636660.17847  19818412.3924                   19818411.6064
        51.0004         39.2504
 -12299713.31249 -12451256.93247  21106978.6344                   21106978.6224
        48.5004         34.2504
   1733055.01249   1347970.87147  20995488.9544                   20995490.4744
        46.5004         33.7504
  -6122081.13349  -4767334.02548  19719496.1654                   19719494.0874
        50.2504         41.0004
 -10546712.53549 -10956478.60347  20761053.0954                   20761052.3684
        48.7504         36.5004
  -9397062.53949  -7321107.04146  22690747.8294                   22690748.2904
        44.0004         20.7504
 03  1 14 18  8 29.9970000  0  7G 7G 8G26G27G28G29G11
 -18787193.50449 -14608963.72948  20125261.2824                   20125260.5914
        50.7504         39.5004
  -2085408.95749  -1623972.26648  19821511.0874                   19821510.4704
        50.7504         39.5004
 -12365287.79349 -12502353.95347  21094500.1034                   21094500.2784
        48.0004         33.7504
   1770819.97749   1377397.99847  21002675.8994                   21002677.2554
        46.5004         33.2504
  -6141056.75849  -4782120.26348  19715885.1574                   19715883.2394
        50.0004         41.0004
 -10596408.71149 -10995202.91647  20751595.8994                   20751595.3454
        49.2504         36.0004
  -9437238.16449  -7352412.75546  22683102.5244                   22683103.5954
        43.7504         21.0004
 03  1 14 18  8 59.9970000  0  7G 7G 8G26G27G28G29G11
 -18879189.81249 -14680649.15548  20107754.8994                   20107754.3024
        51.5004         39.5004
  -2068734.22349  -1610979.02948  19824684.2284                   19824683.4894
        51.0004         39.5004
 -12430303.10249 -12553015.27347  21082128.4234                   21082127.9664
        48.5004         34.0004
   1808918.72749   1407085.19447  21009925.4624                   21009927.4854
        46.5004         33.0004
  -6159820.09049  -4796741.09448  19712314.6494                   19712312.7124
        51.0004         41.0004
 -10645531.71149 -11033480.61547  20742248.1104                   20742247.4114
        49.7504         36.7504
  -9476929.06649  -7383340.77046  22675549.8844                   22675550.0834
        44.7504         21.2504
 03  1 14 18  9 29.9960000  0  7G 7G 8G26G27G28G29G11
 -18970757.83249 -14752000.84448  20090330.3564                   20090329.7234
        51.2504         39.7504
  -2051664.93449  -1597678.36347  19827932.8324                   19827931.7934
        51.0004         39.2504
 -12494752.43749 -12603235.56747  21069864.2234                   21069863.8164
        48.2504         34.0004
   1847352.92649   1437033.80347  21017239.8794                   21017241.0944
        47.0004         33.7504
  -6178367.63749  -4811193.78948  19708785.2544                   19708783.4024
        51.0004         41.2504
 -10694075.91849 -11071307.29647  20733010.6764                   20733010.0784
        49.2504         36.7504
  -9516129.30149  -7413886.45246  22668090.0904                   22668091.1454
        44.5004         22.0004
 03  1 14 18  9 59.9960000  0  7G 7G 8G26G27G28G29G11
 -19061904.82849 -14823024.48748  20072985.5824                   20072985.2034
        51.0004         40.0004
  -2034202.29349  -1584071.19947  19831255.8164                   19831254.9574
        50.7504         39.2504
 -12558641.32849 -12653019.14747  21057706.8714                   21057705.9574
        48.5004         33.5004
   1886122.33649   1467243.58947  21024617.6524                   21024618.4384
        47.0004         33.2504
  -6196703.69149  -4825481.66948  19705296.3014                   19705294.2854
        50.5004         41.5004
 -10742046.41449 -11108686.92547  20723882.3954                   20723881.1174
        48.7504         36.7504
  -9554842.71149  -7444052.84346  22660723.3164                   22660724.6454
        44.5004         21.5004
 03  1 14 18 10 29.9960000  0  7G 7G 8G26G27G28G29G11
 -19152627.04749 -14893717.11548  20055721.6994                   20055720.7384
        51.0004         40.0004
  -2016347.29349  -1570158.28048  19834653.5354                   19834652.6524
        50.5004         39.5004
 -12621967.07449 -12702363.91147  21045656.0664                   21045656.1134
        47.7504         34.0004
   1925224.59049   1497712.74347  21032058.7704                   21032059.5274
        46.7504         33.0004
  -6214828.56249  -4839604.98848  19701847.1604                   19701844.9224
        49.5004         41.2504
 -10789441.43049 -11145618.12747  20714863.2854                   20714862.4224
        48.0004         36.2504
  -9593067.46949  -7473838.45046  22653449.6994                   22653451.1994
        44.2504         21.0004
 03  1 14 18 10 59.9960000  0  7G 7G 8G26G27G28G29G11
 -19242921.07049 -14964076.08948  20038539.1994                   20038538.9184
        51.0004         40.2504
  -1998097.99249  -1555938.11347  19838126.4344                   19838125.3524
        51.0004         38.7504
 -12684726.41849 -12751267.32647  21033713.7234                   21033713.2894
        48.0004         34.5004
   1964661.29749   1528442.51447  21039563.1994                   21039564.4264
        47.0004         33.7504
  -6232740.66849  -4853562.51648  19698438.6524                   19698436.6454
        49.0004         41.0004
 -10836258.57449 -11182099.03347  20705954.2384                   20705953.6884
        48.0004         36.5004
  -9630800.50449  -7503240.87746  22646269.2234                   22646270.0394
        44.5004         21.7504
 03  1 14 18 11 29.9960000  0  7G 7G 8G26G27G28G29G11
 -19332789.46949 -15034103.40748  20021438.1134                   20021437.1884
        51.0004         40.0004
  -1979458.02749  -1541413.55548  19841673.1134                   19841672.3404
        51.0004         39.5004
 -12746922.10549 -12799731.53347  21021878.1604                   21021878.0084
        48.5004         34.2504
   2004428.19149   1559429.55647  21047130.4344                   21047132.1524
        47.0004         33.2504
  -6250444.46549  -4867357.72748  19695069.9184                   19695067.6134
        50.5004         40.5004
 -10882500.71549 -11218131.89347  20697154.4264                   20697153.9654
        49.5004         36.7504
  -9668044.29749  -7532262.05346  22639182.3714                   22639181.8714
        44.5004         20.7504
 03  1 14 18 11 59.9960000  0  7G 7G 8G26G27G28G29G11
 -19422229.23449 -15103796.72248  20004417.9494                   20004417.6604
        50.0004         40.5004
  -1960425.85549  -1526583.37347  19845294.9884                   19845294.3714
        50.0004         39.0004
 -12808551.33649 -12847754.34547  21010150.1294                   21010150.2034
        46.7504         34.5004
   2044526.40249   1590674.77547  21054761.3484                   21054762.1844
        46.5004         32.7504
  -6267938.73449  -4880989.66548  19691741.0274                   19691738.9614
        49.2504         41.2504
 -10928165.87549 -11253715.16447  20688464.9104                   20688464.0634
        47.7504         37.0004
  -9704796.24649  -7560900.05846  22632188.1374                   22632188.6844
        43.5004         21.5004
 03  1 14 18 12 29.9960000  0  7G 7G 8G26G27G28G29G11
 -19511241.60549 -15173157.00048  19987479.4654                   19987479.1024
        50.7504         40.7504
  -1941003.90249  -1511449.44747  19848990.8564                   19848990.4184
        51.5004         39.2504
 -12869615.50449 -12895336.83747  20998529.9574                   20998529.9024
        47.7504         34.0004
   2084953.09449   1622175.96647  21062453.9574                   21062455.8204
        46.2504         33.0004
  -6285226.23449  -4894460.48748  19688451.2234                   19688448.8014
        50.2504         40.2504
 -10973255.82049 -11288850.22347  20679884.5984                   20679884.0044
        48.7504         36.5004
  -9741057.31249  -7589155.52346  22625288.7704                   22625288.7584
        44.7504         20.7504
 03  1 14 18 12 59.9960000  0  7G 7G 8G26G27G28G29G11
 -19599822.62549 -15242181.17748  19970623.3954                   19970622.7464
        51.0004         41.0004
  -1921189.42649  -1496009.68747  19852761.5044                   19852761.1804
        51.2504         39.2504
 -12930110.79749 -12942476.06747  20987017.9184                   20987018.2584
        47.0004         34.2504
   2125710.46549   1653934.80247  21070210.8874                   21070212.1454
        47.2504         33.5004
  -6302304.87949  -4907768.56348  19685201.1134                   19685199.2624
        50.5004         41.0004
 -11017767.59049 -11323534.74947  20671414.2464                   20671413.5124
        49.0004         35.7504
  -9776824.27049  -7617025.88846  22618481.8404                   22618482.8954
        45.0004         21.2504
 03  1 14 18 13 29.9960000  0  7G 7G 8G26G27G28G29G11
 -19687974.93449 -15310871.28748  19953848.5204                   19953847.9064
        50.0004         40.5004
  -1900986.34849  -1480267.10647  19856606.0984                   19856605.2734
        50.7504         39.0004
 -12990039.91449 -12989174.10447  20975613.8164                   20975613.9224
        44.7504         34.2504
   2166794.25849   1685948.02347  21078027.9494                   21078030.2074
        45.0004         33.5004
  -6319178.91449  -4920917.19448  19681990.0204                   19681987.9414
        50.5004         41.2504
 -11061704.09849 -11357771.01747  20663053.1994                   20663052.4224
        50.0004         36.0004
  -9812099.63349  -7644513.28446  22611769.5044                   22611769.8594
        44.5004         21.5004
 03  1 14 18 13 59.9960000  0  7G 7G 8G26G27G28G29G11
 -19775694.85249 -15379224.46048  19937155.9884                   19937155.2774
        51.0004         40.7504
  -1880392.19949  -1464219.80148  19860525.3714                   19860524.5124
        51.0004         40.0004
 -13049399.65249 -13035428.45347  20964318.7234                   20964318.3564
        46.2504         34.0004
   2208206.37149   1718217.03947  21085908.8714                   21085909.7034
        45.2504         31.2504
  -6335846.32449  -4933904.82348  19678818.3244                   19678816.2854
        51.0004         40.5004
 -11105062.83649 -11391557.07147  20654802.1604                   20654801.3244
        49.2504         36.5004
  -9846880.12149  -7671615.03546  22605151.0204                   22605152.0084
        44.7504         22.7504
 03  1 14 18 14 29.9960000  0  7G 7G 8G26G27G28G29G11
 -19862979.60949 -15447238.56148  19920546.1994                   19920545.6134
        50.5004         40.7504
  -1859405.31249  -1447866.48747  19864519.2234                   19864518.6994
        50.7504         39.2504
 -13108187.19149 -13081236.94847  20953131.4654                   20953131.2894
        45.7504         33.7504
   2249947.77049   1750742.68147  21093852.2934                   21093853.9414
        46.5004         32.5004
  -6352305.95749  -4946730.55548  19675686.4574                   19675684.2734
        50.5004         40.5004
 -11147841.65649 -11424891.26347  20646662.1524                   20646661.8564
        49.2504         36.5004
  -9881163.00049  -7698329.02746  22598627.0744                   22598627.3914
        44.5004         21.5004
 03  1 14 18 14 59.9960000  0  7G 7G 8G26G27G28G29G11
 -19949830.52049 -15514914.59548  19904018.9574                   19904018.5234
        51.2504         41.2504
  -1838028.45749  -1431209.30547  19868587.0514                   19868586.2974
        50.5004         39.0004
 -13166404.19549 -13126600.89147  20942052.9104                   20942053.0824
        46.7504         34.7504
   2292015.35949   1783522.45847  21101857.3634                   21101859.4344
        45.2504         33.5004
  -6368560.77049  -4959396.68448  19672593.4814                   19672591.1724
        50.2504         40.7504
 -11190042.66449 -11457775.20847  20638631.1764                   20638630.7734
        49.7504         36.7504
  -9914950.18049  -7724656.69346  22592197.4964                   22592198.3444
        45.0004         22.0004
 03  1 14 18 15 29.9960000  0  7G 7G 8G26G27G28G29G11
 -20036244.90249 -15582250.47848  19887575.1844                   19887574.1174
        49.7504         41.2504
  -1816260.02349  -1414246.96848  19872729.2384                   19872728.8754
        50.7504         39.7504
 -13224048.16849 -13171518.30047  20931083.8164                   20931083.5434
        44.5004         33.5004
   2334410.46549   1816557.45347  21109924.8164                   21109926.2074
        44.0004         32.5004
  -6384609.84849  -4971902.49648  19669539.4104                   19669537.1994
        50.2504         40.7504
 -11231664.05549 -11490207.49847  20630710.9264                   20630710.4144
        49.0004         36.5004
  -9948238.59449  -7750595.75146  22585862.9884                   22585864.2464
        44.7504         22.0004
 03  1 14 18 15 59.9960000  0  7G 7G 8G26G27G28G29G11
 -20122225.27749 -15649248.17848  19871213.2154                   19871212.9384
        50.5004         40.7504
  -1794103.94549  -1396982.58947  19876945.6214                   19876944.9614
        51.2504         39.2504
 -13281121.91049 -13215991.37047  20920222.7384                   20920222.7504
        47.2504         34.0004
   2377128.50049   1849844.09547  21118054.5434                   21118055.2934
        45.7504         32.2504
  -6400457.23049  -4984251.15148  19666523.7854                   19666521.7424
        49.5004         40.7504
 -11272709.02049 -11522190.63447  20622900.6214                   20622900.0434
        49.5004         36.0004
  -9981031.53149  -7776148.72446  22579622.8714                   22579623.3754
        45.2504         22.0004
 03  1 14 18 16 29.9960000  0  7G 7G 8G26G27G28G29G11
 -20207769.10249 -15715905.69348  19854934.8564                   19854934.1764
        51.0004         40.7504
  -1771558.89549  -1379415.11847  19881236.0044                   19881235.2314
        50.7504         38.7504
 -13337623.10949 -13260018.29247  20909471.3404                   20909471.2344
        47.2504         34.2504
   2420170.37949   1883383.09747  21126244.5904                   21126246.1414
        45.5004         32.7504
  -6416101.91049  -4996441.84548  19663546.4654                   19663544.3284
        50.0004         40.5004
 -11313175.84049 -11553723.26447  20615199.9024                   20615199.7464
        49.7504         36.5004
 -10013326.52349  -7801313.61646  22573477.1914                   22573477.8794
        45.0004         22.7504
 03  1 14 18 16 59.9960000  0  7G 7G 8G26G27G28G29G11
 -20292876.84849 -15782223.42248  19838739.3634                   19838738.6844
        51.0004         41.0004
  -1748626.53949  -1361545.84547  19885599.7074                   19885599.2894
        51.5004         38.5004
 -13393552.53149 -13303599.67847  20898828.4184                   20898828.0434
        47.2504         33.7504
   2463533.94549   1917172.71747  21134496.2774                   21134498.6254
        43.5004         33.0004
  -6431545.91449  -5008476.16748  19660607.8404                   19660605.7624
        50.0004         40.5004
 -11353065.69549 -11584806.32047  20607609.2544                   20607608.9414
        49.0004         36.2504
 -10045124.12149  -7826090.97946  22567426.5904                   22567427.6884
        45.0004         22.2504
 03  1 14 18 17 29.9960000  0  7G 7G 8G26G27G28G29G11
 -20377546.63749 -15848199.86748  19822627.3484                   19822626.5784
        50.2504         41.0004
  -1725306.11749  -1343374.17547  19890037.5514                   19890036.7074
        51.2504         38.5004
 -13448908.39849 -13346734.14347  20888294.3874                   20888294.0594
        46.2504         34.0004
   2507219.44549   1951213.20547  21142809.4574                   21142811.4024
        44.0004         31.5004
  -6446788.82849  -5020353.79248  19657706.9734                   19657704.8634
        51.0004         40.7504
 -11392377.73849 -11615439.11547  20600128.7234                   20600127.9844
        49.0004         36.2504
 -10076422.77349  -7850479.54846  22561470.5664                   22561471.8564
        44.5004         21.5004
 03  1 14 18 17 59.9960000  0  7G 7G 8G26G27G28G29G11
 -20461772.12949 -15913830.11448  19806599.5904                   19806599.1564
        50.5004         41.2504
  -1701592.65249  -1324896.25147  19894550.3164                   19894550.0204
        50.7504         39.2504
 -13503684.69149 -13389416.99347  20877871.2854                   20877870.8284
        46.2504         33.7504
   2551231.39549   1985508.08547  21151185.2074                   21151186.1844
        45.0004         31.2504
  -6461825.90249  -5032071.03448  19654845.6684                   19654843.5944
        50.2504         40.0004
 -11431106.44149 -11645617.37147  20592758.4024                   20592758.2194
        48.7504         36.0004
 -10107216.68049  -7874474.76046  22555610.5514                   22555612.1884
        44.2504         21.0004
 03  1 14 18 18 29.9960000  0  7G 7G 8G26G27G28G29G11
 -20545561.70349 -15979120.70248  19790654.9814                   19790654.2544
        51.5004         41.0004
  -1677495.54749  -1306119.39147  19899136.0124                   19899135.4774
        50.0004         39.0004
 -13557889.94549 -13431654.86947  20867555.9884                   20867555.8204
        48.5004         34.0004
   2595559.89149   2020049.63247  21159620.7234                   21159622.9844
        43.2504         32.2504
  -6476667.00449  -5043635.57448  19652021.4964                   19652019.3634
        50.2504         40.5004
 -11469260.81249 -11675348.10647  20585498.0044                   20585497.6094
        49.0004         36.5004
 -10137513.80149  -7898082.86046  22549845.3564                   22549846.1954
        44.5004         21.2504
 03  1 14 18 18 59.9960000  0  7G 7G 8G26G27G28G29G11
 -20628905.76249 -16044064.12748  19774795.1684                   19774794.8634
        51.2504         41.0004
  -1653006.42649  -1287037.07247  19903795.7854                   19903795.2544
        49.5004         38.7504
 -13611515.06649 -13473440.68947  20857351.3874                   20857351.5944
        48.2504         34.7504
   2640212.77349   2054843.93347  21168118.1914                   21168120.1254
        45.7504         33.2504
  -6491304.00049  -5055041.06448  19649236.3244                   19649234.2274
        50.7504         40.5004
 -11506832.35949 -11704624.68347  20578348.6454                   20578348.0784
        49.2504         35.7504
 -10167305.10949  -7921296.84846  22544176.0274                   22544176.9574
        44.0004         21.0004
 03  1 14 18 19 29.9960000  0  7G 7G 8G26G27G28G29G11
 -20711802.07849 -16108658.65148  19759020.5984                   19759019.9694
        52.0004         41.0004
  -1628124.34449  -1267648.54647  19908530.8404                   19908530.5044
        48.7504         38.5004
 -13664557.95349 -13514772.85747  20847257.6994                   20847257.3954
        48.7504         34.5004
   2685190.65249   2089891.44447  21176676.9814                   21176679.3014
        44.5004         31.2504
  -6505735.89149  -5066286.73548  19646490.0514                   19646487.9304
        50.7504         40.5004
 -11543819.48849 -11733445.87247  20571310.2314                   20571309.8284
        47.5004         36.0004
 -10196588.98449  -7944115.39746  22538603.0824                   22538603.8444
        43.7504         20.5004
 03  1 14 18 19 59.9960000  0  7G 7G 8G26G27G28G29G11
 -20794254.29349 -16172907.11948  19743330.3164                   19743329.5554
        52.0004         41.0004
  -1602854.12549  -1247957.56247  19913339.5434                   19913339.5784
        49.7504         38.7504
 -13717022.60249 -13555654.40647  20837274.3164                   20837274.0864
        49.2504         35.0004
   2730488.10949   2125188.00747  21185296.4494                   21185298.1724
        44.5004         30.5004
  -6519967.92249  -5077376.65648  19643781.6134                   19643779.6844
        51.0004         41.0004
 -11580226.92649 -11761815.32947  20564382.4574                   20564381.5004
        48.0004         36.5004
 -10225369.05149  -7966541.37146  22533126.6604                   22533127.4534
        44.5004         21.0004
 03  1 14 18 20 29.9960000  0  7G 7G 8G26G27G28G29G11
 -20876262.65249 -16236809.74448  19727724.6064                   19727723.8404
        51.7504         40.7504
  -1577197.25049  -1227965.31247  19918222.1214                   19918222.0664
        48.0004         39.0004
 -13768909.39549 -13596085.69447  20827400.6524                   20827400.5314
        48.5004         34.5004
   2776103.28549   2160732.17447  21193977.8244                   21193979.4144
        46.0004         31.7504
  -6534001.66049  -5088312.07748  19641111.1134                   19641109.0554
        50.7504         40.7504
 -11616055.59849 -11789733.83047  20557564.2624                   20557563.8324
        46.5004         36.0004
 -10253645.71149  -7988575.08146  22527745.8874                   22527746.4414
        44.5004         21.5004
 03  1 14 18 20 59.9960000  0  7G 7G 8G26G27G28G29G11
 -20957825.72349 -16300365.37748  19712203.7154                   19712203.3874
        51.0004         41.0004
  -1551153.31249  -1207671.43747  19923178.0904                   19923178.0434
        49.2504         38.2504
 -13820217.32049 -13636065.92647  20817637.1524                   20817636.9844
        47.5004         34.7504
   2822035.90649   2196523.67347  21202718.6914                   21202720.4964
        45.7504         32.5004
  -6547836.98449  -5099092.88648  19638478.5354                   19638476.2934
        51.0004         40.5004
 -11651304.94549 -11817200.90747  20550856.6914                   20550855.8444
        49.0004         36.2504
 -10281418.05149  -8010215.81146  22522460.7384                   22522462.2814
        44.5004         22.0004
 03  1 14 18 21 29.9960000  0  7G 7G 8G26G27G28G29G11
 -21038940.34049 -16363571.57048  19696768.1604                   19696767.3834
        51.0004         41.0004
  -1524720.50049  -1187074.55047  19928208.1914                   19928208.0704
        49.0004         38.5004
 -13870943.65249 -13675592.94747  20807984.1844                   20807984.0744
        47.7504         34.0004
   2868287.57849   2232563.73347  21211519.3324                   21211521.7074
        43.7504         29.0004
  -6561472.19949  -5109717.76648  19635883.9964                   19635881.8794
        51.7504         40.0004
 -11685972.81249 -11844214.86847  20544259.4574                   20544259.1024
        48.0004         36.7504
 -10308683.14849  -8031461.32846  22517272.5744                   22517272.7814
        45.0004         21.7504
 03  1 14 18 21 59.9960000  0  7G 7G 8G26G27G28G29G11
 -21119612.13749 -16426432.71648  19681416.6994                   19681416.6954
        52.0004         41.0004
  -1497905.59449  -1166179.95647  19933310.8404                   19933310.7114
        49.2504         39.0004
 -13921094.09449 -13714671.24447  20798440.6994                   20798440.5944
        48.5004         34.5004
   2914851.02749   2268846.76547  21220381.5514                   21220381.9494
        45.0004         29.0004
  -6574914.41849  -5120192.25748  19633325.5514                   19633323.4574
        51.5004         40.0004
 -11720065.54749 -11870780.68747  20537772.0664                   20537771.5274
        47.2504         36.5004
 -10335447.05949  -8052316.33246  22512179.6134                   22512180.2734
        44.2504         22.7504
 03  1 14 18 22 29.9960000  0  7G 7G 8G26G27G28G29G11
 -21199836.09849 -16488944.88648  19666150.7934                   19666150.1994
        51.0004         41.5004
  -1470704.60549  -1144984.49147  19938487.4414                   19938487.2154
        50.2504         38.5004
 -13970664.14149 -13753297.26647  20789007.6374                   20789007.6294
        47.7504         34.5004
   2961729.52749   2305375.35347  21229301.9264                   21229302.4924
        46.2504         30.2504
  -6588160.03949  -5130513.53948  19630805.1524                   19630803.2504
        51.0004         40.2504
 -11753579.40649 -11896895.42847  20531394.5354                   20531393.8794
        49.0004         37.0004
 -10361704.78149  -8072776.86146  22507182.9494                   22507183.2344
        45.0004         22.0004
 03  1 14 18 22 59.9960000  0  7G 7G 8G26G27G28G29G11
 -21279615.77749 -16551110.86948  19650969.0434                   19650968.4924
        51.5004         41.0004
  -1443122.57849  -1123492.12047  19943736.1374                   19943735.9264
        49.5004         38.5004
 -14019657.54749 -13791473.98147  20779684.3954                   20779684.4574
        48.0004         34.7504
   3008917.91049   2342145.37547  21238280.8794                   21238283.5354
        43.7504         29.7504
  -6601213.64849  -5140685.20948  19628321.4574                   19628319.2464
        50.5004         40.5004
 -11786518.64849 -11922562.42547  20525126.3484                   20525125.7974
        49.0004         36.0004
 -10387460.35949  -8092846.16046  22502281.7854                   22502282.6214
        44.5004         21.5004
 03  1 14 18 23 29.9960000  0  7G 7G 8G26G27G28G29G11
 -21358945.14149 -16612925.96048  19635873.5984                   19635872.5124
        51.7504         41.5004
  -1415154.32449  -1101698.79047  19949058.5514                   19949058.4064
        50.2504         38.7504
 -14068068.68049 -13829196.95247  20770472.0984                   20770472.3594
        47.7504         34.0004
   3056420.57449   2379160.24047  21247321.2314                   21247323.1064
        44.0004         29.5004
  -6614070.34049  -5150703.44948  19625874.7074                   19625872.7344
        51.2504         40.5004
 -11818878.03549 -11947777.56647  20518968.4884                   20518968.2544
        49.5004         36.2504
 -10412707.85249  -8112519.56546  22497477.2774                   22497477.6994
        44.7504         22.0004
 03  1 14 18 23 59.9960000  0  7G 7G 8G26G27G28G29G11
 -21437829.19149 -16674394.05148  19620862.0514                   19620861.5084
        49.5004         41.5004
  -1386806.11749  -1079609.38747  19954453.3014                   19954452.9224
        50.2504         38.2504
 -14115902.97749 -13866470.44947  20761369.9344                   20761370.0554
        44.5004         34.5004
   3104230.85249   2416414.83647  21256419.2234                   21256420.9694
        44.5004         30.2504
  -6626736.64849  -5160573.33648  19623464.6764                   19623462.3674
        51.2504         40.5004
 -11850663.69949 -11972545.66447  20512919.7314                   20512919.4414
        49.0004         36.0004
 -10437452.66449  -8131801.27646  22492768.5274                   22492768.7584
        44.2504         21.5004
 03  1 14 18 24 29.9960000  0  7G 7G 8G26G27G28G29G11
 -21516264.34849 -16735512.35948  19605936.5664                   19605935.7464
        51.2504         41.2504
  -1358075.51649  -1057222.02647  19959920.1914                   19959920.0594
        50.5004         38.0004
 -14163157.10549 -13903291.89347  20752377.4574                   20752377.6294
        46.7504         35.0004
   3152350.85549   2453910.81347  21265575.7854                   21265577.4184
        43.5004         28.0004
  -6639209.98449  -5170292.84848  19621091.2934                   19621089.1294
        50.7504         40.2504
 -11881872.99249 -11996864.64047  20506981.0664                   20506981.0084
        49.0004         36.2504
 -10461691.71949  -8150688.88346  22488155.7074                   22488156.3164
        43.7504         20.5004
 03  1 14 18 24 59.9960000  0  7G 7G 8G26G27G28G29G11
 -21594249.77349 -16796280.22148  19591096.3404                   19591095.6954
        51.5004         41.5004
  -1328962.80149  -1034536.90447  19965460.3404                   19965460.1454
        49.7504         38.5004
 -14209830.64849 -13939660.90847  20743496.0984                   20743496.3244
        47.5004         34.7504
   3200779.47749   2491647.25147  21274791.9344                   21274793.6064
        43.7504         28.0004
  -6651490.88349  -5179862.40948  19618753.8244                   19618751.6524
        51.0004         40.2504
 -11912505.94149 -12020734.51247  20501152.1684                   20501152.0514
        49.0004         37.0004
 -10485424.13349  -8169181.69946  22483639.7154                   22483640.7074
        44.0004         21.7504
 03  1 14 18 25 29.9960000  0  7G 7G 8G26G27G28G29G11
 -21671782.89849 -16856695.63848  19576342.5124                   19576341.6914
        50.7504         41.2504
  -1299466.68449  -1011553.03447  19971073.3164                   19971073.4304
        50.2504         38.2504
 -14255921.35249 -13975575.76247  20734725.0044                   20734725.2034
        46.2504         35.0004
   3249518.16049   2529625.21947  21284066.1764                   21284069.0354
        42.5004         28.5004
  -6663577.86749  -5189280.87248  19616454.1684                   19616452.0234
        50.5004         40.5004
 -11942560.85949 -12044153.98247  20495432.6454                   20495432.3014
        49.5004         37.2504
 -10508647.75449  -8187278.05846  22479220.9574                   22479222.8404
        44.0004         21.5004
 03  1 14 18 25 59.9960000  0  7G 7G 8G26G27G28G29G11
 -21748864.01249 -16916758.84048  19561674.1454                   19561673.8524
        50.7504         41.2504
  -1269588.40249   -988271.37747  19976758.9264                   19976759.2194
        49.7504         38.0004
 -14301429.98449 -14011037.05947  20726065.4264                   20726065.1414
        46.0004         34.7504
   3298564.54349   2567842.97547  21293400.2154                   21293402.5514
        43.0004         30.0004
  -6675472.52349  -5198549.46348  19614190.6764                   19614188.5784
        51.0004         41.0004
 -11972039.24649 -12067124.20847  20489823.1914                   20489822.9304
        48.7504         37.2504
 -10531363.53949  -8204978.76246  22474898.5044                   22474898.9534
        43.7504         22.0004
 03  1 14 18 26 29.9960000  0  7G 7G 8G26G27G28G29G11
 -21825493.05949 -16976469.78748  19547092.2544                   19547091.4774
        51.0004         40.7504
  -1239329.25449   -964692.94747  19982517.4654                   19982517.5904
        48.7504         38.5004
 -14346356.80549 -14046044.99447  20717515.9574                   20717516.0314
        48.0004         35.2504
   3347917.25449   2606299.47147  21302791.8954                   21302793.9454
        42.5004         29.2504
  -6687175.73449  -5207668.88048  19611963.7074                   19611961.5784
        50.5004         40.5004
 -12000941.85549 -12089645.77347  20484323.4574                   20484322.9614
        47.0004         37.0004
 -10553571.38349  -8222283.60546  22470671.6844                   22470673.5514
        44.0004         22.5004
 03  1 14 18 26 59.9960000  0  7G 7G 8G26G27G28G29G11
 -21901672.11349 -17035830.08548  19532595.9414                   19532595.4104
        50.2504         41.0004
  -1208692.25449   -940820.07847  19988347.4964                   19988347.6844
        48.2504         38.5004
 -14390704.22749 -14080601.45647  20709077.0274                   20709077.1064
        46.0004         35.2504
   3397572.75449   2644991.89547  21312240.7704                   21312242.8874
        43.0004         27.5004
  -6698690.82849  -5216641.71748  19609772.5514                   19609770.3484
        50.5004         40.7504
 -12029271.68749 -12111721.00447  20478932.2934                   20478932.0944
        47.7504         36.5004
 -10575273.77349  -8239194.60346  22466541.9104                   22466543.1294
        44.0004         21.5004
 03  1 14 18 27 29.9960000  0  7G 7G 8G26G27G28G29G11
 -21977395.63749 -17094835.42648  19518186.0044                   19518185.5664
        50.2504         41.2504
  -1177673.15249   -916649.47247  19994250.5904                   19994250.8634
        48.2504         38.5004
 -14434467.30949 -14114702.58647  20700749.3244                   20700749.1724
        45.0004         34.5004
   3447534.87549   2683923.17547  21321749.3324                   21321751.1374
        44.2504         28.7504
  -6710013.39849  -5225464.54248  19607617.6604                   19607615.7734
        50.7504         41.2504
 -12057024.32849 -12133346.49347  20473650.6604                   20473650.9734
        47.7504         36.5004
 -10596465.89549  -8255708.00946  22462509.9574                   22462511.2114
        44.7504         21.5004
 03  1 14 18 27 59.9960000  0  7G 7G 8G26G27G28G29G11
 -22052663.35249 -17153485.59448  19503863.1454                   19503862.6454
        51.2504         41.5004
  -1146272.68049   -892181.68547  20000225.6374                   20000226.0394
        48.5004         38.0004
 -14477646.07849 -14148348.41747  20692532.1214                   20692532.8324
        46.5004         34.7504
   3497802.22349   2723092.35947  21331314.7464                   21331316.8164
        45.0004         30.5004
  -6721144.19549  -5234137.92648  19605499.9344                   19605497.5234
        50.7504         40.2504
 -12084200.49649 -12154522.77647  20468479.6994                   20468479.2504
        47.7504         36.5004
 -10617147.33649  -8271823.49746  22458573.9184                   22458575.4614
        44.0004         22.7504
 03  1 14 18 28 29.9960000  0  7G 7G 8G26G27G28G29G11
 -22127475.32449 -17211780.64048  19489626.8094                   19489625.9884
        51.7504         41.0004
  -1114491.90249   -867417.55247  20006273.1604                   20006273.7234
        49.0004         38.0004
 -14520240.92249 -14181539.23747  20684427.0354                   20684427.4064
        46.0004         35.0004
   3548373.33649   2762498.23747  21340938.3714                   21340940.3984
        41.7504         29.5004
  -6732084.48449  -5242662.85748  19603418.0274                   19603415.8984
        50.5004         40.5004
 -12110801.41049 -12175250.79547  20463417.8634                   20463417.7854
        48.7504         36.7504
 -10637318.66049  -8287541.43446  22454735.4814                   22454737.4344
        44.5004         22.5004
 03  1 14 18 28 59.9960000  0  7G 7G 8G26G27G28G29G11
 -22201833.80549 -17269722.29748  19475476.7624                   19475476.0004
        51.7504         41.5004
  -1082334.38749   -842359.86147  20012393.0044                   20012393.3524
        48.2504         38.2504
 -14562254.59049 -14214277.19547  20676432.1914                   20676432.4964
        46.7504         35.5004
   3599244.18449   2802137.64347  21350618.5044                   21350620.7584
        43.5004         28.7504
  -6742837.42649  -5251041.82248  19601371.5124                   19601369.6844
        50.2504         41.0004
 -12136830.15649 -12195532.98247  20458464.7624                   20458464.6094
        48.5004         37.0004
 -10656982.48449  -8302863.96146  22450993.3874                   22450995.5474
        45.0004         22.7504
 03  1 14 18 29 29.9960000  0  7G 7G 8G26G27G28G29G11
 -22275738.23049 -17327310.17248  19461413.2854                   19461412.5744
        51.5004         41.7504
  -1049800.65249   -817009.01347  20018583.7934                   20018584.5514
        49.7504         37.7504
 -14603687.09849 -14246562.29447  20668547.6914                   20668547.8364
        47.0004         34.5004
   3650413.88349   2842009.95747  21360355.7074                   21360357.8284
        41.7504         29.0004
  -6753403.55549  -5259275.20948  19599360.9734                   19599359.1844
        50.0004         40.2504
 -12162287.29749 -12215369.77747  20453620.3714                   20453620.6804
        49.5004         37.2504
 -10676138.57849  -8317790.79046  22447348.9344                   22447350.4574
        45.0004         22.7504
 03  1 14 18 29 59.9960000  0  7G 7G 8G26G27G28G29G11
 -22349187.14849 -17384543.09948  19447436.5594                   19447436.0394
        51.7504         41.5004
  -1016890.24649   -791364.66747  20024846.8014                   20024846.9884
        49.7504         37.2504
 -14644537.18049 -14278393.56447  20660774.2234                   20660774.3834
        47.7504         34.5004
   3701882.17649   2882114.95647  21370149.8324                   21370152.0474
        42.0004         29.5004
  -6763782.31249  -5267362.58848  19597385.9494                   19597384.3564
        51.0004         40.5004
 -12187172.27049 -12234760.72047  20448885.3404                   20448885.3594
        50.0004         37.0004
 -10694785.93749  -8332321.25746  22443800.2154                   22443801.7234
        44.7504         22.2504
 03  1 14 18 30 29.9960000  0  7G 7G 8G26G27G28G29G11
 -22422184.25049 -17441423.94148  19433545.5594                   19433545.0664
        52.0004         42.0004
   -983608.03149   -765430.57847  20031179.8954                   20031180.5904
        49.5004         38.0004
 -14684809.07449 -14309774.28947  20653110.6064                   20653110.8914
        46.5004         34.7504
   3753644.21949   2922448.78347  21380000.5434                   21380003.4184
        43.0004         30.2504
  -6773978.21949  -5275307.49748  19595445.5434                   19595444.2384
        51.0004         40.2504
 -12211489.87149 -12253709.53647  20444257.6134                   20444257.7664
        49.7504         36.7504
 -10712928.62549  -8346458.44246  22440347.8014                   22440348.8324
        44.5004         22.2504
 03  1 14 18 30 59.9960000  0  7G 7G 8G26G27G28G29G11
 -22494727.39149 -17497951.06748  19419741.2314                   19419740.3594
        52.0004         41.0004
   -949953.08649   -739206.06147  20037585.1214                   20037585.0204
        50.2504         38.0004
 -14724501.34449 -14340703.36747  20645557.3954                   20645557.9534
        47.7504         35.0004
   3805700.12949   2963011.62547  21389906.5664                   21389908.4064
        43.0004         29.5004
  -6783990.44949  -5283109.28148  19593540.5274                   19593538.5474
        50.5004         41.0004
 -12235239.19549 -12272215.55047  20439738.1064                   20439738.1684
        49.5004         37.0004
 -10730564.98449  -8360201.08146  22436991.8564                   22436992.6254
        44.5004         21.2504
 03  1 14 18 31 29.9960000  0  7G 7G 8G26G27G28G29G11
 -22566810.77349 -17554119.93848  19406024.0274                   19406023.4384
        51.0004         42.0004
   -915920.55949   -712687.32447  20044060.5594                   20044061.1994
        50.0004         37.5004
 -14763608.43049 -14371176.44547  20638116.0594                   20638116.3014
        47.2504         35.5004
   3858054.52049   3003807.05047  21399868.1454                   21399871.5124
        40.2504         27.5004
  -6793813.69149  -5290763.80848  19591671.3404                   19591669.7384
        50.2504         40.5004
 -12258415.25049 -12290274.85447  20435328.4104                   20435328.0234
        49.5004         36.7504
 -10747689.27349  -8373544.73646  22433732.8564                   22433734.2154
        44.2504         21.2504
 03  1 14 18 31 59.9960000  0  7G 7G 8G26G27G28G29G11
 -22638436.51649 -17609932.20248  19392394.4184                   19392393.6374
        50.7504         41.2504
   -881513.68449   -685876.88647  20050608.5664                   20050608.9384
        50.0004         37.0004
 -14802133.03949 -14401195.64547  20630785.1374                   20630785.1884
        45.5004         35.5004
   3910703.53549   3044832.02947  21409888.2154                   21409890.8564
        42.0004         28.7504
  -6803451.44149  -5298273.78948  19589837.3634                   19589835.5164
        49.5004         40.5004
 -12281021.34849 -12307890.06547  20431026.5594                   20431026.1024
        49.7504         37.2504
 -10764304.40249  -8386491.64246  22430570.7234                   22430571.7814
        43.7504         20.7504
 03  1 14 18 32 29.9960000  0  7G 7G 8G26G27G28G29G11
 -22709605.94149 -17665388.89248  19378851.1604                   19378850.2194
        50.7504         41.5004
   -846734.67649   -658776.47047  20057226.6604                   20057227.4574
        50.0004         37.2504
 -14840076.86349 -14430762.29547  20623564.5514                   20623564.8874
        46.5004         35.2504
   3963644.31349   3086084.36247  21419962.3014                   21419965.6484
        43.0004         29.2504
  -6812905.53549  -5305640.66048  19588038.2774                   19588036.4774
        49.5004         40.2504
 -12303059.94949 -12325063.04147  20426832.7624                   20426832.5314
        49.7504         37.2504
 -10780411.86349  -8399042.96746  22427505.4884                   22427507.0594
        44.0004         20.2504
 03  1 14 18 32 59.9960000  0  7G 7G 8G26G27G28G29G11
 -22780317.27349 -17720488.62048  19365395.3244                   19365394.5864
        49.5004         41.5004
   -811583.10549   -631385.74347  20063916.3014                   20063916.4614
        50.0004         37.2504
 -14877438.62949 -14459875.38747  20616455.2704                   20616454.6524
        47.2504         35.0004
   4016877.18449   3127564.29347  21430092.9184                   21430095.7624
        43.7504         28.7504
  -6822175.18749  -5312863.81348  19586274.5664                   19586272.7114
        48.5004         40.0004
 -12324530.35949 -12341793.28247  20422747.1764                   20422747.0474
        49.2504         37.2504
 -10796010.33649  -8411197.65146  22424538.4964                   22424538.2234
        44.5004         19.0004
 03  1 14 18 33 29.9950000  0  7G 7G 8G26G27G28G29G11
 -22850565.75049 -17775227.69348  19352027.2804                   19352026.3744
        47.5004         41.5004
   -776058.64149   -603704.45247  20070676.5154                   20070676.1754
        50.0004         37.0004
 -14914215.27049 -14488532.54547  20609456.5464                   20609457.1904
        46.5004         35.2504
   4070401.07449   3169271.02247  21440277.9134                   21440280.4134
        43.7504         29.0004
  -6831258.46949  -5319941.74048  19584545.9684                   19584544.1754
        46.7504         40.2504
 -12345430.41849 -12358079.10847  20418769.8354                   20418770.0304
        49.7504         37.2504
 -10811097.24249  -8422953.72746  22421667.3274                   22421667.5544
        43.5004         19.7504
 03  1 14 18 33 59.9950000  0  7G 7G 8G26G27G28G29G11
 -22920360.96949 -17829613.56148  19338745.8584                   19338745.3004
        49.5004         41.5004
   -740164.89849   -575735.40347  20077506.3824                   20077507.2064
        49.5004         37.0004
 -14950414.57049 -14516739.81847  20602567.9834                   20602568.4524
        49.5004         35.5004
   4124213.25849   3211202.38847  21450517.9994                   21450521.0344
        44.0004         28.5004
  -6840161.54349  -5326879.23848  19582851.9374                   19582850.0734
        49.0004         40.2504
 -12365767.66449 -12373926.35447  20414899.7804                   20414900.2454
        49.5004         37.0004
 -10825678.93449  -8434316.14546  22418892.0854                   22418892.8904
        42.2504         19.0004
 03  1 14 18 34 29.9950000  0  7G 7G 8G26G27G28G29G11
 -22989697.89849 -17883642.34348  19325551.1874                   19325550.6634
        50.5004         41.5004
   -703901.35249   -547478.20147  20084407.3664                   20084408.0734
        50.0004         36.5004
 -14986033.14149 -14544494.57347  20595790.0544                   20595790.3584
        48.0004         35.7504
   4178313.35949   3253358.08947  21460812.9764                   21460816.9724
        43.0004         29.0004
  -6848882.39549  -5333674.75148  19581192.5624                   19581190.3904
        50.0004         40.5004
 -12385539.75049 -12389333.24347  20411137.4994                   20411137.0424
        49.2504         36.7504
 -10839752.63749  -8445282.72346  22416213.7804                   22416214.5734
        42.5004         19.5004
 03  1 14 18 34 59.9950000  0  7G 7G 8G26G27G28G29G11
 -23058575.27349 -17937313.01448  19312444.4684                   19312443.6324
        51.7504         41.7504
   -667267.91849   -518932.78447  20091378.8664                   20091379.0034
        50.0004         37.5004
 -15021070.30149 -14571796.29047  20589122.3984                   20589123.1834
        47.7504         36.0004
   4232700.99649   3295737.83147  21471163.1714                   21471166.6514
        43.5004         29.0004
  -6857420.48049  -5340327.85048  19579567.5774                   19579565.6984
        50.2504         40.5004
 -12404746.37149 -12404299.50347  20407482.3824                   20407482.4604
        49.7504         37.2504
 -10853317.44949  -8455852.80246  22413632.9054                   22413633.7184
        43.0004         20.0004
 03  1 14 18 35 29.9950000  0  7G 7G 8G26G27G28G29G11
 -23126992.99649 -17990625.51848  19299424.8904                   19299424.1834
        51.5004         42.0004
   -630265.64149   -490099.94547  20098420.5234                   20098420.2304
        50.5004         37.2504
 -15055526.56649 -14598645.36947  20582566.0154                   20582566.1674
        48.7504         35.0004
   4287374.68849   3338340.50047  21481567.7574                   21481570.6794
        43.5004         29.5004
  -6865776.59049  -5346839.13148  19577977.1164                   19577975.4874
        51.2504         40.2504
 -12423388.87149 -12418826.17947  20403934.9684                   20403935.1904
        49.5004         37.2504
 -10866373.89549  -8466026.76246  22411148.5304                   22411148.7764
        44.0004         20.0004
 03  1 14 18 35 59.9950000  0  7G 7G 8G26G27G28G29G11
 -23194951.89549 -18043580.49048  19286492.5384                   19286492.0654
        51.2504         41.5004
   -592896.18749   -460980.99247  20105531.3194                   20105531.5934
        50.2504         37.2504
 -15089403.10549 -14625042.70147  20576119.8514                   20576119.6054
        48.7504         35.5004
   4342332.22349   3381164.31747  21492025.6944                   21492028.6014
        43.0004         27.5004
  -6873952.18449  -5353209.74648  19576421.7884                   19576419.8474
        50.0004         39.7504
 -12441469.01249 -12432914.66847  20400494.6324                   20400494.6874
        49.7504         37.0004
 -10878923.03949  -8475805.37346  22408760.2964                   22408760.8744
        43.5004         20.2504
 03  1 14 18 36 29.9950000  0  7G 7G 8G26G27G28G29G11
 -23262449.35549 -18096175.91248  19273648.5694                   19273647.8004
        50.7504         41.7504
   -555158.20349   -431574.87547  20112712.3744                   20112713.0464
        49.2504         37.2504
 -15122698.08249 -14650986.86647  20569783.7494                   20569783.8584
        48.0004         34.7504
   4397574.56349   3424210.04947  21502537.9604                   21502541.1554
        41.5004         27.7504
  -6881945.58649  -5359438.40148  19574900.7654                   19574898.7184
        51.2504         39.7504
 -12458985.59449 -12446564.01347  20397161.4134                   20397161.2374
        49.7504         37.2504
 -10890962.72749  -8485187.08246  22406469.1714                   22406470.3274
        42.5004         20.5004
 03  1 14 18 36 59.9950000  0  7G 7G 8G26G27G28G29G11
 -23329484.82849 -18148411.33348  19260891.9764                   19260891.2884
        50.0004         42.5004
   -517051.98849   -401881.82247  20119964.2884                   20119964.5034
        50.0004         36.5004
 -15155411.25849 -14676477.68947  20563557.9994                   20563558.8744
        48.7504         35.5004
   4453100.91449   3467477.13447  21513104.7184                   21513107.5154
        43.5004         28.7504
  -6889756.46149  -5365524.81848  19573414.0624                   19573412.6834
        49.0004         40.0004
 -12475938.87149 -12459774.43147  20393934.8124                   20393935.2694
        49.5004         36.7504
 -10902492.76249  -8494171.59746  22404275.1794                   22404276.7654
        43.5004         22.0004
 03  1 14 18 37 29.9950000  0  7G 7G 8G26G27G28G29G11
 -23396060.94149 -18200288.80848  19248223.1324                   19248222.4644
        50.2504         42.0004
   -478581.28149   -371904.76247  20127285.0694                   20127285.1634
        51.2504         37.0004
 -15187546.10549 -14701517.84347  20557443.2804                   20557443.6874
        49.2504         35.0004
   4508907.07449   3510962.23647  21523724.1084                   21523727.5934
        43.5004         29.0004
  -6897388.34049  -5371471.76948  19571961.8984                   19571960.1364
        49.2504         40.0004
 -12492332.89149 -12472549.05047  20390815.7184                   20390815.6944
        49.5004         36.7504
 -10913516.36749  -8502761.48546  22402177.8904                   22402179.1944
        43.5004         22.2504
 03  1 14 18 37 59.9950000  0  7G 7G 8G26G27G28G29G11
 -23462173.70749 -18251805.23948  19235642.4054                   19235641.6984
        49.2504         42.2504
   -439742.94549   -341641.22647  20134674.7414                   20134676.5544
        50.0004         36.7504
 -15219099.09449 -14726104.62947  20551439.0854                   20551439.3434
        49.2504         35.0004
   4564995.84449   3554667.55847  21534397.8354                   21534401.7144
        43.2504         29.2504
  -6904837.69949  -5377276.47448  19570544.4294                   19570542.3314
        48.2504         40.2504
 -12508164.81649 -12484885.68547  20387803.0234                   20387802.9174
        49.5004         37.0004
 -10924029.99249  -8510953.99746  22400177.1084                   22400178.6124
        43.5004         21.7504
 03  1 14 18 38 29.9950000  0  7G 7G 8G26G27G28G29G11
 -23527830.24649 -18302966.17448  19223148.0154                   19223147.5694
        50.2504         42.2504
   -400545.24649   -311097.67047  20142134.6484                   20142135.7334
        50.2504         36.5004
 -15250077.91049 -14750243.99147  20545544.3744                   20545543.9564
        48.7504         34.7504
   4621358.43449   3598586.18047  21545123.5934                   21545127.1984
        42.0004         28.0004
  -6912112.46949  -5382945.14848  19569160.0774                   19569158.2884
        50.0004         39.7504
 -12523442.78149 -12496790.65647  20384895.7264                   20384895.5304
        49.7504         36.5004
 -10934041.14549  -8518754.98046  22398272.2884                   22398273.8904
        42.5004         22.0004
 03  1 14 18 38 59.9950000  0  7G 7G 8G26G27G28G29G11
 -23593023.78549 -18353766.32148  19210742.0624                   19210741.6014
        50.5004         41.5004
   -360982.43049   -280269.61147  20149663.7494                   20149664.0304
        50.7504         37.0004
 -15280476.33249 -14773931.09747  20539759.6084                   20539759.5774
        49.0004         35.0004
   4678000.19949   3642722.33346  21555902.5464                   21555906.4724
        42.0004         24.0004
  -6919206.46949  -5388472.94848  19567810.0154                   19567808.4764
        50.0004         40.2504
 -12538161.34049 -12508259.71747  20382095.0464                   20382094.8084
        49.7504         37.0004
 -10943543.56649  -8526159.50346  22396463.4524                   22396466.0194
        41.5004         22.0004
 03  1 14 18 39 29.9950000  0  7G 7G 8G26G27G28G29G11
 -23657761.38349 -18404211.19248  19198423.1324                   19198422.6014
        51.5004         41.7504
   -321062.62949   -249163.38747  20157260.3194                   20157260.5034
        50.5004         37.0004
 -15310302.04749 -14797171.94347  20534084.0464                   20534084.0624
        49.0004         35.2504
   4734912.69149   3687069.60346  21566732.0234                   21566734.6984
        39.7504         23.5004
  -6926127.11349  -5393865.69248  19566493.1874                   19566491.3664
        51.5004         39.7504
 -12552328.54349 -12519299.15447  20379398.7884                   20379399.0384
        50.0004         36.5004
 -10952544.68449  -8533173.44446  22394750.6714                   22394753.2374
        41.7504         20.5004
 03  1 14 18 39 59.9950000  0  7G 7G 8G26G27G28G29G11
 -23722038.90649 -18454297.56248  19186191.4764                   19186190.6714
        51.7504         41.7504
   -280782.57449   -217776.44547  20164924.9914                   20164925.5304
        50.0004         36.5004
 -15339551.59449 -14819963.82647  20528518.2184                   20528518.1904
        49.5004         35.0004
   4792098.61349   3731629.79847  21577614.3194                   21577618.7694
        40.2504         27.2504
  -6932870.79349  -5399120.52148  19565209.7334                   19565207.9524
        50.5004         40.0004
 -12565941.59849 -12529906.79747  20376808.4444                   20376808.6284
        49.5004         36.0004
 -10961040.71549  -8539793.80446  22393133.9054                   22393136.2454
        36.0004         20.7504
 03  1 14 18 40 29.9950000  0  7G 7G 8G26G27G28G29G11
 -23785857.13349 -18504026.04348  19174047.5384                   19174046.5464
        51.5004         42.0004
   -240144.02749   -186110.15847  20172658.9214                   20172659.0114
        50.0004         36.5004
 -15368226.27049 -14842307.77747  20523061.6404                   20523061.6244
        49.7504         34.7504
   4849555.73849   3776401.32247  21588548.1554                   21588552.4874
        40.7504         26.0004
  -6939438.94949  -5404238.59548  19563960.2414                   19563958.4134
        50.0004         40.0004
 -12579002.46549 -12540084.16547  20374323.2964                   20374323.7654
        49.5004         36.5004
 -10969033.23048  -8546021.74446  22391613.1404                   22391615.5734
        35.7504         20.0004
 03  1 14 18 40 59.9950000  0  7G 7G 8G26G27G28G29G11
 -23849211.98849 -18553393.46848  19161991.2494                   19161990.4054
        51.5004         41.5004
   -199143.76249   -154162.01747  20180460.3824                   20180461.2414
        49.5004         36.5004
 -15396322.57849 -14864201.03847  20517714.8274                   20517715.1444
        49.2504         34.7504
   4907286.75449   3821386.29747  21599534.6944                   21599538.7734
        42.5004         26.0004
  -6945828.06249  -5409217.14347  19562744.3664                   19562742.4804
        50.5004         39.0004
 -12591508.25849 -12549829.00047  20371943.6944                   20371943.7924
        50.0004         36.7504
 -10976518.30949  -8551854.30446  22390188.6484                   22390190.4444
        36.0004         20.0004
 03  1 14 18 41 29.9950000  0  7G 7G 8G26G27G28G29G11
 -23912108.02349 -18602403.35048  19150022.3194                   19150021.7334
        51.5004         41.2504
   -157787.70349   -121936.63447  20188330.0774                   20188331.4014
        49.5004         36.0004
 -15423845.83249 -14885647.75947  20512477.3434                   20512477.6514
        49.5004         35.5004
   4965285.82849   3866580.10446  21610572.8124                   21610575.1404
        41.2504         21.7504
  -6952043.24649  -5414060.16448  19561561.5384                   19561559.7334
        50.7504         39.5004
 -12603464.69949 -12559145.76747  20369668.1794                   20369668.5344
        49.7504         36.2504
 -10983501.45748  -8557295.78446  22388860.2494                   22388862.1444
        35.5004         21.2504
 03  1 14 18 41 59.9950000  0  7G 7G 8G26G27G28G29G11
 -23974546.39549 -18651056.61948  19138140.6404                   19138140.3044
        51.7504         41.2504
   -116077.55149    -89435.33247  20196267.1484                   20196268.4724
        49.5004         36.5004
 -15450797.75849 -14906649.29947  20507348.3044                   20507348.8944
        49.5004         34.7504
   5023550.13749   3911980.76446  21621659.4914                   21621661.7884
        40.7504         25.2504
  -6958086.02749  -5418768.84848  19560411.7024                   19560409.8984
        50.5004         39.5004
 -12614874.20749 -12568036.34947  20367496.9054                   20367497.0154
        49.0004         36.2504
 -10989983.68049  -8562346.90746  22387626.4604                   22387628.2534
        38.2504         21.2504
 03  1 14 18 42 29.9950000  0  7G 7G 8G26G27G28G29G11
 -24036523.43449 -18699350.41348  19126346.8274                   19126346.1944
        51.0004         41.5004
    -74011.00049    -56656.31447  20204273.3664                   20204273.8084
        50.0004         36.2504
 -15477175.46949 -14927203.39547  20502329.2574                   20502329.4724
        49.0004         34.5004
   5082082.09049   3957589.85146  21632797.6404                   21632802.3474
        41.2504         25.2504
  -6963953.11349  -5423340.63348  19559295.3744                   19559293.7614
        51.0004         39.5004
 -12625734.34849 -12576498.87347  20365430.6084                   20365430.7964
        49.5004         36.2504
 -10995962.13349  -8567005.53546  22386489.3744                   22386490.9684
        39.0004         21.7504
 03  1 14 18 42 59.9950000  0  7G 7G 8G26G27G28G29G11
 -24098042.56649 -18747287.39248  19114640.1714                   19114639.4914
        51.5004         41.2504
    -31592.26649    -23602.87347  20212344.8514                   20212346.0234
        49.7504         36.0004
 -15502983.00849 -14947313.21347  20497418.2494                   20497418.7494
        49.5004         35.5004
   5140876.94149   4003403.67846  21643986.5074                   21643989.9054
        40.0004         24.2504
  -6969648.52049  -5427778.62548  19558211.2654                   19558210.0734
        51.2504         39.7504
 -12636049.90649 -12584537.01447  20363467.4604                   20363467.5544
        50.0004         36.5004
 -11001440.60549  -8571274.50146  22385446.2654                   22385448.7614
        37.0004         20.7504
 03  1 14 18 43 29.9950000  0  7G 7G 8G26G27G28G29G11
 -24159100.76249 -18794865.19848  19103021.3354                   19103020.6164
        51.2504         41.5004
     11180.73449      9726.64047  20220484.2494                   20220485.7064
        49.5004         36.7504
 -15528217.82449 -14966976.73747  20492616.1164                   20492616.7764
        49.0004         34.5004
   5199936.25849   4049423.72046  21655224.8044                   21655229.2574
        41.0004         25.5004
  -6975169.31649  -5432080.57048  19557161.0464                   19557159.5654
        50.2504         40.5004
 -12645818.80549 -12592149.20147  20361608.7654                   20361608.7694
        49.5004         36.2504
 -11006416.49249  -8575151.83346  22384499.8744                   22384501.9294
        36.0004         21.5004
 03  1 14 18 43 59.9950000  0  7G 7G 8G26G27G28G29G11
 -24219698.18049 -18842083.96348  19091489.7964                   19091489.5114
        51.0004         42.0004
     54306.84449     43331.28047  20228690.7574                   20228692.0074
        49.0004         36.0004
 -15552880.96149 -14986194.80947  20487923.2414                   20487923.5934
        49.7504         35.5004
   5259258.30549   4095648.45847  21666513.3194                   21666517.8744
        41.0004         25.7504
  -6980516.26649  -5436247.04548  19556143.6404                   19556141.8554
        49.5004         40.0004
 -12655042.94149 -12599336.91247  20359853.5074                   20359853.5584
        49.0004         36.2504
 -11010890.74249  -8578638.35646  22383647.9134                   22383650.8084
        36.0004         22.2504
 03  1 14 18 44 29.9950000  0  7G 7G 8G26G27G28G29G11
 -24279834.33249 -18888943.29548  19080046.4764                   19080045.7844
        51.0004         42.2504
     97785.79749     77210.87947  20236965.0384                   20236966.1484
        49.5004         36.7504
 -15576972.42249 -15004967.40447  20483338.4214                   20483338.7804
        49.5004         35.5004
   5318842.51249   4142077.45846  21677852.0854                   21677856.3194
        39.0004         24.7504
  -6985689.01249  -5440277.77548  19555159.3044                   19555157.5544
        51.0004         39.7504
 -12663722.55949 -12606100.30347  20358201.4914                   20358201.7224
        49.7504         36.0004
 -11014863.17649  -8581733.77946  22382892.2964                   22382894.9724
        38.0004         21.5004
 03  1 14 18 44 59.9950000  0  7G 7G 8G26G27G28G29G11
 -24339511.89849 -18935445.28248  19068690.1484                   19068689.6554
        51.0004         41.7504
    141613.66449    111362.34647  20245304.7494                   20245306.2694
        48.7504         35.7504
 -15600495.66449 -15023297.23047  20478862.2654                   20478862.4994
        49.0004         34.7504
   5378684.77049   4188707.51447  21689240.1634                   21689244.8234
        40.7504         27.0004
  -6990690.80549  -5444175.29548  19554207.6084                   19554205.5464
        50.7504         40.0004
 -12671861.89149 -12612442.71547  20356652.9684                   20356653.1244
        49.0004         36.7504
 -11018337.22349  -8584440.85446  22382231.6404                   22382233.7064
        37.5004         21.5004
 03  1 14 18 45 29.9950000  0  7G 7G 8G26G27G28G29G11
 -24398731.95349 -18981590.76948  19057421.0544                   19057420.0624
        51.2504         42.0004
    185788.57449    145784.23347  20253711.6484                   20253712.3664
        49.2504         35.7504
 -15623452.50849 -15041185.72447  20474493.7184                   20474494.1634
        49.2504         35.2504
   5438782.49649   4235536.71347  21700677.0154                   21700680.1634
        43.7504         27.2504
  -6995522.97349  -5447940.64148  19553288.0934                   19553286.2694
        51.0004         39.5004
 -12679463.13349 -12618365.81747  20355206.5774                   20355206.7374
        48.7504         36.5004
 -11021314.09849  -8586760.55046  22381664.9214                   22381667.0384
        40.7504         21.0004
 03  1 14 18 45 59.9950000  0  7G 7G 8G26G27G28G29G11
 -24457488.91049 -19027375.39948  19046239.8434                   19046238.9294
        51.5004         42.0004
    230315.24249    180480.21947  20262184.9294                   20262185.8784
        49.5004         36.2504
 -15645838.07449 -15058629.06347  20470234.2264                   20470234.3584
        49.0004         35.0004
   5499140.13349   4282568.41947  21712161.9294                   21712166.6594
        42.5004         26.5004
  -7000179.96149  -5451569.48548  19552401.7264                   19552400.2534
        51.7504         40.0004
 -12686522.04749 -12623866.34747  20353863.5854                   20353863.4644
        50.0004         36.5004
 -11023788.77049  -8588688.93046  22381194.0154                   22381196.8624
        40.0004         22.0004
 03  1 14 18 46 29.9950000  0  7G 7G 8G26G27G28G29G11
 -24515785.66849 -19072801.43348  19035146.4214                   19035145.4834
        51.5004         42.0004
    275189.62949    215447.17347  20270724.5304                   20270725.4914
        49.5004         35.7504
 -15667655.89549 -15075629.97647  20466082.1794                   20466082.7024
        49.5004         36.0004
   5559753.33249   4329799.18247  21723696.6714                   21723701.8784
        41.0004         26.7504
  -7004665.21949  -5455064.51747  19551548.2734                   19551546.4804
        49.0004         39.0004
 -12693043.03949 -12628947.69947  20352622.2334                   20352622.4564
        45.7504         36.2504
 -11025765.00049  -8590228.93046  22380818.4054                   22380820.5974
        42.0004         21.2504
 03  1 14 18 46 59.9950000  0  7G 7G 8G26G27G28G29G11
 -24573621.92649 -19117868.63048  19024140.5304                   19024139.7374
        52.0004         41.7504
    320411.26649    250684.69647  20279329.6484                   20279330.7884
        48.7504         36.0004
 -15688906.37949 -15092188.84847  20462038.5854                   20462038.8904
        49.5004         35.2504
   5620621.16449   4377228.40446  21735278.7414                   21735283.7884
        37.7504         22.5004
  -7008978.47349  -5458425.52448  19550727.7184                   19550725.6244
        51.0004         39.7504
 -12699026.95349 -12633610.55347  20351483.9054                   20351484.0384
        50.0004         36.2504
 -11027242.73449  -8591380.48946  22380537.2494                   22380539.1324
        42.0004         22.5004
 03  1 14 18 47 29.9950000  0  7G 7G 8G26G27G28G29G11
 -24630999.83649 -19162578.68048  19013221.5774                   19013220.8004
        51.5004         42.0004
    365977.18849    286190.50647  20288000.3744                   20288001.9374
        47.7504         36.0004
 -15709592.47349 -15108307.91047  20458102.2264                   20458102.6984
        49.0004         35.2504
   5681740.16449   4424853.37447  21746911.9764                   21746915.3584
        43.0004         28.0004
  -7013122.12949  -5461654.38048  19549939.0774                   19549937.2374
        51.5004         40.0004
 -12704477.10249 -12637857.48647  20350446.9214                   20350447.3784
        49.5004         36.0004
 -11028224.68449  -8592145.71546  22380350.4214                   22380352.6164
        42.2504         22.7504
 03  1 14 18 47 59.9950000  0  7G 7G 8G26G27G28G29G11
 -24687913.13749 -19206926.69248  19002391.2024                   19002390.7184
        51.2504         42.0004
    411892.66049    321968.69647  20296736.9294                   20296739.7334
        48.7504         35.2504
 -15729708.62949 -15123982.87247  20454274.1634                   20454274.3124
        49.2504         35.5004
   5743115.25449   4472677.84047  21758589.5234                   21758595.4294
        41.7504         29.0004
  -7017090.19949  -5464746.42448  19549183.7804                   19549182.3784
        51.0004         39.7504
 -12709388.60549 -12641684.69747  20349512.1014                   20349512.5114
        49.7504         36.0004
 -11028705.07449  -8592520.11446  22380259.1484                   22380261.0854
        42.2504         23.0004
 03  1 14 18 48 29.9950000  0  7G 7G 8G26G27G28G29G11
 -24744365.28549 -19250915.36248  18991649.1634                   18991648.3904
        52.0004         42.0004
    458153.25049    358015.78947  20305541.5624                   20305542.9094
        49.2504         35.5004
 -15749259.05549 -15139217.01247  20450553.8194                   20450554.3314
        49.0004         34.7504
   5804741.55549   4520698.00947  21770317.6484                   21770322.8554
        44.0004         30.0004
  -7020886.18049  -5467704.37048  19548461.5464                   19548459.8554
        51.7504         40.0004
 -12713766.16049 -12645095.85247  20348678.9834                   20348679.5464
        49.5004         37.0004
 -11028687.96549  -8592506.80846  22380261.9134                   22380264.4214
        41.2504         23.0004
 03  1 14 18 48 59.9950000  0  7G 7G 8G26G27G28G29G11
 -24800356.43449 -19294544.81248  18980994.2264                   18980993.5034
        51.7504         42.2504
    504757.98849    394331.05747  20314409.9054                   20314410.9404
        49.2504         35.0004
 -15768244.65249 -15154011.01647  20446940.6554                   20446941.3394
        48.5004         35.5004
   5866617.69149   4568912.94146  21782092.4834                   21782097.0034
        43.0004         25.2504
  -7024510.39849  -5470528.46848  19547771.9684                   19547770.5464
        51.2504         39.5004
 -12717611.36749 -12648092.18047  20347947.3824                   20347947.7614
        49.2504         36.5004
 -11028174.09449  -8592106.40946  22380360.2654                   22380361.9174
        42.5004         22.7504
 03  1 14 18 49 29.9950000  0  7G 7G 8G26G27G28G29G11
 -24855890.41449 -19337818.03248  18970426.5384                   18970425.5384
        51.7504         41.7504
    551702.16049    430910.83247  20323342.9994                   20323344.8944
        49.5004         35.2504
 -15786669.95749 -15168368.43347  20443434.3434                   20443435.3904
        48.5004         35.2504
   5928738.64849   4617318.62046  21793912.9524                   21793918.4724
        39.2504         21.5004
  -7027967.02749  -5473221.99248  19547114.1084                   19547112.5584
        50.7504         40.0004
 -12720929.25449 -12650677.61047  20347315.9294                   20347316.7574
        48.7504         36.0004
 -11027167.72749  -8591322.31546  22380551.4524                   22380554.1594
        43.2504         22.5004
 03  1 14 18 49 59.9950000  0  7G 7G 8G26G27G28G29G11
 -24910965.45349 -19380733.62748  18959946.1014                   18959945.2224
        51.2504         42.0004
    598986.59049    467755.75547  20332341.2734                   20332342.9804
        49.0004         35.2504
 -15804534.04749 -15182288.53647  20440035.4294                   20440035.7654
        49.2504         35.2504
   5991104.74649   4665915.33047  21805781.7884                   21805786.6084
        43.0004         26.2504
  -7031254.33649  -5475783.56948  19546488.6244                   19546486.9804
        51.0004         39.5004
 -12723719.44149 -12652851.85047  20346784.8984                   20346786.1364
        49.0004         36.2504
 -11025667.79349  -8590153.51146  22380836.3664                   22380839.4174
        42.5004         24.5004
 03  1 14 18 50 29.9950000  0  7G 7G 8G26G27G28G29G11
 -24965585.40249 -19423294.61048  18949552.4994                   18949551.8084
        51.7504         42.0004
    646606.57449    504862.12247  20341403.2574                   20341404.3664
        49.5004         35.0004
 -15821841.46949 -15195774.88047  20436741.6484                   20436742.7024
        48.7504         35.5004
   6053710.84049   4714699.07047  21817694.2884                   21817701.0304
        41.0004         26.0004
  -7034375.89849  -5478216.00147  19545894.3664                   19545892.9994
        51.2504         39.2504
 -12725987.07449 -12654618.90047  20346354.2574                   20346354.1874
        49.5004         36.7504
 -11023678.37949  -8588603.39046  22381215.4444                   22381218.4804
        44.2504         24.2504
 03  1 14 18 50 59.9950000  0  7G 7G 8G26G27G28G29G11
 -25019746.35949 -19465497.93148  18939246.0934                   18939245.1054
        52.2504         42.2504
    694564.86749    542232.12347  20350528.7264                   20350530.6874
        49.0004         35.2504
 -15838589.30949 -15208825.16747  20433554.4994                   20433555.6634
        48.7504         35.5004
   6116559.66849   4763671.84046  21829654.5304                   21829660.9334
        36.0004         21.7504
  -7037328.26649  -5480516.58048  19545332.8194                   19545331.3004
        51.5004         39.5004
 -12727729.75849 -12655976.90447  20346022.0544                   20346022.6944
        49.0004         36.0004
 -11021196.48849  -8586669.45346  22381687.5934                   22381690.3984
        44.2504         24.5004
 03  1 14 18 51 29.9950000  0  7G 7G 8G26G27G28G29G11
 -25073451.89549 -19507346.38748  18929026.1554                   18929024.9174
        52.2504         42.0004
    742857.47749    579862.61547  20359719.3434                   20359720.4054
        48.5004         35.2504
 -15854781.60549 -15221442.59347  20430473.4134                   20430474.3824
        48.2504         35.2504
   6179646.47349   4812830.07546  21841661.1874                   21841665.4404
        40.0004         22.5004
  -7040114.71949  -5482687.88648  19544802.7964                   19544801.0344
        51.2504         39.7504
 -12728952.19949 -12656929.50447  20345789.7574                   20345790.2104
        49.0004         36.0004
 -11018226.04349  -8584354.83547  22382252.6244                   22382256.2334
        43.7504         25.7504
 03  1 14 18 51 59.9950000  0  7G 7G 8G26G27G28G29G11
 -25126702.20349 -19548840.12848  18918892.8744                   18918891.9524
        51.7504         42.0004
    791483.18849    617752.68147  20368973.2184                   20368974.0074
        50.2504         34.7504
 -15870419.50449 -15233628.00547  20427497.7264                   20427498.5034
        48.5004         35.2504
   6242969.60949   4862172.60147  21853712.0694                   21853716.5504
        44.5004         28.0004
  -7042735.66449  -5484730.22747  19544303.9054                   19544302.5734
        50.2504         39.2504
 -12729656.13349 -12657478.08847  20345655.4214                   20345656.5424
        46.2504         36.5004
 -11014767.50849  -8581659.84746  22382910.8194                   22382913.6014
        43.5004         25.0004
 03  1 14 18 52 29.9950000  0  7G 7G 8G26G27G28G29G11
 -25179490.45349 -19589973.80848  18908847.5234                   18908846.6014
        52.2504         42.5004
    840447.84449    655906.84747  20378289.7184                   20378291.7334
        48.0004         34.0004
 -15885497.02049 -15245376.76147  20424628.5774                   20424629.1244
        49.5004         34.7504
   6306534.75849   4911703.66446  21865807.2264                   21865812.2964
        40.2504         22.7504
  -7045184.31249  -5486638.29248  19543837.7654                   19543836.7964
        51.2504         39.7504
 -12729835.75049 -12657618.11547  20345621.5934                   20345622.3394
        50.0004         36.0004
 -11010815.16049  -8578580.10047  22383663.6244                   22383666.1284
        45.0004         26.5004
 03  1 14 18 52 59.9950000  0  7G 7G 8G26G27G28G29G11
 -25231825.89849 -19630754.65348  18898888.2264                   18898887.6284
        52.0004         42.0004
    889741.51649    694317.37247  20387670.3664                   20387671.9174
        49.0004         34.7504
 -15900024.07449 -15256696.57947  20421864.4914                   20421865.0734
        48.7504         35.0004
   6370331.66049   4961415.19246  21877947.6244                   21877952.7844
        39.0004         18.5004
  -7047469.80949  -5488419.24648  19543403.0694                   19543401.7454
        51.5004         39.5004
 -12729501.97749 -12657358.10747  20345685.4294                   20345686.1754
        48.7504         36.5004
 -11006378.60249  -8575123.02846  22384507.3354                   22384510.4764
        42.7504         25.5004
 03  1 14 18 53 29.9950000  0  7G 7G 8G26G27G28G29G11
 -25283703.12149 -19671178.45048  18889016.2964                   18889015.5934
        52.0004         42.0004
    939368.53549    732987.66447  20397115.0234                   20397115.9684
        49.5004         34.5004
 -15913996.30149 -15267584.06647  20419205.5624                   20419206.2414
        48.7504         35.0004
   6434364.14149   5011310.41646  21890132.8744                   21890137.3784
        40.2504         20.2504
  -7049586.71149  -5490068.82247  19543000.5544                   19542999.1054
        51.2504         39.0004
 -12728650.73049 -12656694.86747  20345847.2574                   20345848.4094
        49.0004         36.0004
 -11001452.91449  -8571284.88147  22385445.0464                   22385447.9954
        43.0004         26.5004
 03  1 14 18 53 59.9950000  0  7G 7G 8G26G27G28G29G11
 -25335126.18049 -19711248.35548  18879230.9834                   18879230.1244
        52.0004         41.7504
    989324.33249    771914.13947  20406621.0074                   20406622.6794
        49.5004         35.2504
 -15927418.40249 -15278042.89947  20416651.4054                   20416651.8664
        49.0004         34.5004
   6498627.12549   5061385.20446  21902360.9134                   21902366.6674
        38.5004         21.5004
  -7051539.00449  -5491590.13348  19542629.0154                   19542627.5264
        51.2504         39.5004
 -12727287.28949 -12655632.50947  20346106.8984                   20346107.4054
        49.2504         35.7504
 -10996042.69149  -8567069.10546  22386474.2734                   22386477.1204
        43.5004         24.5004
 03  1 14 18 54 29.9950000  0  7G 7G 8G26G27G28G29G11
 -25386090.91049 -19750961.10748  18869532.5624                   18869531.6834
        52.2504         41.2504
   1039611.90249    811099.14147  20416190.3124                   20416191.5194
        49.5004         35.0004
 -15940287.00449 -15288070.41447  20414202.2494                   20414203.4874
        49.0004         35.5004
   6563123.44149   5111641.86946  21914634.9684                   21914640.5974
        41.0004         23.0004
  -7053322.48449  -5492979.89548  19542289.2964                   19542288.0974
        51.2504         39.5004
 -12725409.12549 -12654169.06447  20346464.2184                   20346464.5654
        48.0004         35.5004
 -10990144.63749  -8562473.21246  22387596.7264                   22387599.5584
        43.5004         25.2504
 03  1 14 18 54 59.9950000  0  7G 7G 8G26G27G28G29G11
 -25436600.99649 -19790319.60348  18859921.0934                   18859920.0934
        52.0004         42.0004
   1090226.86349    850539.26347  20425821.8434                   20425823.3904
        49.0004         34.5004
 -15952606.82449 -15297670.32547  20411858.2264                   20411859.1794
        49.5004         35.5004
   6627848.23049   5162076.47446  21926951.0774                   21926957.6714
        40.0004         22.0004
  -7054940.68749  -5494240.87247  19541981.5464                   19541980.0544
        50.7504         39.2504
 -12723021.18449 -12652308.39647  20346918.7884                   20346919.2184
        48.5004         35.7504
 -10983762.80949  -8557500.34746  22388811.4684                   22388813.7964
        43.5004         25.5004
 03  1 14 18 55 29.9950000  0  7G 7G 8G26G27G28G29G11
 -25486655.09049 -19829322.78348  18850395.8354                   18850395.1324
        51.5004         42.2504
   1141169.72749    890234.87347  20435516.5304                   20435517.4644
        49.0004         34.2504
 -15964377.27049 -15306842.14047  20409618.6874                   20409619.4174
        49.2504         35.5004
   6692801.68849   5212689.29446  21939312.3824                   21939318.1484
        42.2504         22.5004
  -7056392.24649  -5495372.00147  19541705.2334                   19541703.7574
        51.2504         39.0004
 -12720123.31249 -12650050.39547  20347470.3584                   20347470.7534
        48.7504         36.0004
 -10976896.72749  -8552150.17447  22390117.9374                   22390120.6714
        44.5004         26.0004
 03  1 14 18 55 59.9950000  0  7G 7G 8G26G27G28G29G11
 -25536252.94949 -19867970.45048  18840957.6164                   18840956.8354
        52.0004         42.5004
   1192439.91849    930185.55147  20445272.6404                   20445274.1944
        49.0004         34.0004
 -15975598.85549 -15315586.29047  20407483.4214                   20407483.9954
        49.2504         36.0004
   6757982.82449   5263479.62246  21951715.1794                   21951721.7334
        39.2504         21.2504
  -7057676.74249  -5496372.93548  19541460.6874                   19541459.3044
        51.0004         39.5004
 -12716716.93049 -12647396.12847  20348118.6244                   20348118.7024
        49.0004         36.0004
 -10969546.66849  -8546422.85146  22391516.2654                   22391519.3234
        44.0004         25.2504
 03  1 14 18 56 29.9950000  0  7G 7G 8G26G27G28G29G11
 -25585394.35549 -19906262.43548  18831606.4444                   18831605.5034
        51.2504         42.2504
   1244036.81349    970390.79747  20455091.4294                   20455092.6054
        48.5004         34.0004
 -15986272.43449 -15323903.41547  20405452.1164                   20405452.3944
        49.5004         35.7504
   6823390.86349   5314446.65646  21964163.2264                   21964169.0504
        42.5004         24.0004
  -7058793.27749  -5497243.00947  19541248.2494                   19541247.0734
        51.7504         39.2504
 -12712803.00449 -12644346.39547  20348863.2964                   20348863.9994
        49.0004         35.5004
 -10961712.38749  -8540318.26446  22393007.2334                   22393010.0384
        44.0004         24.5004
 03  1 14 18 56 59.9950000  0  7G 7G 8G26G27G28G29G11
 -25634083.28549 -19944201.85648  18822341.0694                   18822340.0814
        51.5004         42.0004
   1295955.75449   1010846.99347  20464971.4374                   20464972.4644
        48.5004         34.2504
 -15996402.66049 -15331797.14447  20403524.3434                   20403525.2334
        48.0004         36.2504
   6889020.29349   5365586.24246  21976651.7104                   21976658.2494
        41.7504         22.7504
  -7059745.99249  -5497985.41347  19541067.2734                   19541065.8944
        51.5004         39.2504
 -12708387.13349 -12640905.53947  20349703.5694                   20349704.5734
        48.0004         35.2504
 -10953398.94949  -8533840.32646  22394589.6244                   22394591.0264
        43.5004         25.0004
 03  1 14 18 57 29.9940000  0  7G 7G 8G26G27G28G29G11
 -25682317.62949 -19981787.04548  18813162.4324                   18813161.4714
        52.0004         41.7504
   1348194.40249   1051552.30347  20474912.4404                   20474913.6934
        48.7504         34.5004
 -16005989.77749 -15339267.66847  20401700.1194                   20401700.7684
        48.5004         36.0004
   6954868.47749   5416896.39546  21989182.2364                   21989188.0024
        40.2504         16.2504
  -7060534.41049  -5498599.79747  19540917.4324                   19540915.4794
        51.2504         39.0004
 -12703470.35549 -12637074.35947  20350639.2524                   20350640.2404
        48.0004         35.5004
 -10944606.75049  -8526989.27546  22396262.7214                   22396265.0724
        43.5004         25.0004
 03  1 14 18 57 59.9940000  0  7G 7G 8G26G27G28G29G11
 -25730098.18049 -20019018.62648  18804069.9864                   18804069.5494
        51.5004         42.7504
   1400758.11749   1092510.92047  20484915.1904                   20484916.2444
        47.5004         34.0004
 -16015032.79749 -15346314.23247  20399979.3614                   20399979.8114
        48.7504         36.0004
   7020941.00449   5468381.34147  22001756.2754                   22001762.1434
        44.2504         26.0004
  -7061155.73849  -5499083.97548  19540799.0654                   19540797.6664
        51.7504         39.7504
 -12698051.16849 -12632851.68747  20351670.4084                   20351671.6974
        48.7504         35.2504
 -10935333.14549  -8519763.13046  22398027.0334                   22398029.9984
        42.7504         24.2504
 03  1 14 18 58 29.9940000  0  7G 7G 8G26G27G28G29G11
 -25777426.78149 -20055898.05748  18795063.8154                   18795062.9824
        52.0004         42.5004
   1453640.82449   1133718.09047  20494977.5494                   20494980.0924
        46.0004         33.7504
 -16023535.66849 -15352939.89447  20398361.0804                   20398362.1004
        47.2504         35.5004
   7087230.98849   5520035.58447  22014371.0654                   22014377.3304
        45.0004         29.5004
  -7061612.98449  -5499440.30147  19540711.8934                   19540710.7254
        50.2504         39.2504
 -12692134.69149 -12628241.52847  20352796.8074                   20352797.2564
        48.7504         34.5004
 -10925582.78149  -8512165.52147  22399882.5964                   22399885.2794
        44.0004         26.0004
 03  1 14 18 58 59.9940000  0  7G 7G 8G26G27G28G29G11
 -25824304.11749 -20092425.83548  18786143.1974                   18786142.5924
        51.2504         42.7504
   1506841.23449   1175172.84047  20505101.6114                   20505103.9634
        46.5004         33.7504
 -16031499.98849 -15359145.90847  20396845.8854                   20396846.4554
        48.0004         35.5004
   7153736.85249   5571858.08047  22027027.2134                   22027033.0724
        44.5004         28.7504
  -7061906.65649  -5499669.15747  19540656.5804                   19540654.8304
        51.2504         39.0004
 -12685722.99649 -12623245.48047  20354016.8614                   20354017.7834
        48.5004         34.7504
 -10915356.70749  -8504197.21646  22401828.9554                   22401831.1434
        43.5004         23.7504
 03  1 14 18 59 29.9940000  0  7G 7G 8G26G27G28G29G11
 -25870730.85549 -20128602.51948  18777308.5414                   18777307.8694
        51.7504         42.2504
   1560357.64549   1216873.77747  20515285.1584                   20515288.0414
        46.5004         33.5004
 -16038927.37149 -15364933.52847  20395432.6904                   20395433.5574
        47.2504         35.0004
   7220456.70749   5623847.30346  22039722.3464                   22039730.4944
        38.5004         21.5004
  -7062037.19549  -5499770.90148  19540631.5024                   19540630.0024
        51.0004         39.5004
 -12678818.17249 -12617865.17447  20355330.7754                   20355331.3304
        48.5004         34.7504
 -10904656.46549  -8495859.39446  22403865.4164                   22403867.3074
        43.0004         24.0004
 03  1 14 18 59 59.9940000  0  7G 7G 8G26G27G28G29G11
 -25916704.70349 -20164426.29348  18768560.0654                   18768559.3654
        50.7504         42.5004
   1614191.63349   1258822.21647  20525530.5964                   20525532.1584
        46.7504         33.5004
 -16045816.28949 -15370301.57147  20394121.5724                   20394122.2524
        47.2504         35.0004
   7287392.02349   5676004.24246  22052460.6744                   22052468.9084
        39.5004         12.5004
  -7062001.77349  -5499743.33948  19540638.0024                   19540636.7724
        51.5004         39.5004
 -12671419.33649 -12612099.93347  20356738.9164                   20356739.6314
        49.0004         35.0004
 -10893480.03949  -8487150.59546  22405991.5024                   22405994.1044
        42.0004         22.7504
 03  1 14 19  0 29.9940000  0  7G 7G 8G26G27G28G29G11
 -25962229.96949 -20199900.51348  18759896.8074                   18759896.0104
        51.5004         42.5004
   1668338.12949   1301014.16947  20535833.1354                   20535835.7404
        47.7504         33.5004
 -16052172.14849 -15375254.22347  20392912.2134                   20392912.6434
        48.0004         35.2504
   7354536.703 9                  22065238.268
        45.000
  -7061804.71949  -5499589.80647  19540675.5884                   19540674.1114
        51.2504         39.2504
 -12663532.39149 -12605954.34547  20358239.3464                   20358240.5064
        48.2504         34.5004
 -10881832.42649  -8478074.62546  22408208.3934                   22408210.6664
        41.5004         22.0004
 03  1 14 19  0 59.9940000  0  7G 7G 8G26G27G28G29G11
 -26007308.16049 -20235026.37848  18751318.7294                   18751318.1934
        51.7504         42.0004
   1722795.13749   1343448.06647  20546196.5414                   20546198.3384
        47.7504         33.5004
 -16057997.41049 -15379793.41947  20391803.4244                   20391804.3154
        48.5004         34.7504
   7421888.56649   5780806.80357  22078055.0884                   22078061.2324
        44.7504         28.5004
  -7061446.85249  -5499310.97448  19540743.6974                   19540742.5534
        51.0004         39.5004
 -12655160.07449 -12599430.55547  20359832.9404                   20359833.6864
        47.7504         34.5004
 -10869715.80549  -8468633.20246  22410514.0964                   22410516.5334
        41.7504         22.2504
 03  1 14 19  1 29.9940000  0  7G 7G 8G26G27G28G29G11
 -26051942.10249 -20269806.06848  18742825.1114                   18742824.3464
        51.7504         43.0004
   1777558.53949   1386120.71747  20556618.7294                   20556620.4404
        48.5004         34.0004
 -16063295.82849 -15383922.11147  20390795.1744                   20390795.9084
        49.5004         35.2504
   7489443.33649   5833446.65446  22090910.6434                   22090917.2214
        39.0004         25.2504
  -7060930.88749  -5498908.94847  19540841.9004                   19540840.7364
        51.5004         39.0004
 -12646306.91049 -12592532.07247  20361517.6274                   20361518.9824
        47.7504         34.2504
 -10857134.07849  -8458829.39046  22412907.9794                   22412910.8614
        42.0004         22.7504
 03  1 14 19  1 59.9940000  0  6G 7G 8G26G28G29G11
 -26096126.32449 -20304235.33348  18734417.1584                   18734416.3114
        52.2504         42.2504
   1832633.19949   1429035.89147  20567098.4944                   20567100.6154
        47.5004         33.7504
 -16068062.77349 -15387636.64347  20389888.5494                   20389889.2324
        49.0004         35.0004
  -7060250.85949  -5498379.08547  19540971.6114                   19540970.1744
        51.7504         38.7504
 -12636968.74649 -12585255.67147  20363295.0104                   20363295.5374
        48.5004         34.2504
 -10844081.92649  -8448658.95446  22415392.0414                   22415395.2134
        41.5004         22.7504
 03  1 14 19  2 29.9940000  0  7G 7G 8G26G27G28G29G11
 -26139859.64149 -20338313.22848  18726094.8544                   18726094.4554
        51.5004         42.5004
   1888019.75049   1472194.09947  20577637.6974                   20577640.5454
        46.7504         32.2504
 -16072297.92249 -15390936.80947  20389082.1824                   20389083.5024
        48.2504         34.7504
     51670.23859   5890209.79756  22116740.8074                   22116746.7214
        42.2504         22.0004
  -7059404.95749  -5497719.96647  19541132.2134                   19541131.1704
        51.0004         39.0004
 -12627145.69149 -12577601.42147  20365164.0104                   20365165.4674
        47.7504         34.7504
 -10830558.68449  -8438121.51446  22417966.2604                   22417967.7254
        42.0004         21.5004
 03  1 14 19  2 59.9940000  0  9G 7G 8G 4G 9G26G27G28G29G11
 -26183153.17649 -20372048.46248  18717856.5184                   18717855.8424
        52.2504         42.0004
   1943706.35549   1515586.11047  20588235.6274                   20588236.7364
        46.2504         33.0004
   -263231.65259   -185676.51956  22756426.7364                   22756434.3184
        39.2504         22.2504
   -262384.90659   -184818.72356  22593541.1664                   22593544.6114
        39.5004         21.2504
 -16076013.47349 -15393832.09547  20388375.1194                   20388376.2294
        46.2504         33.7504
    119835.68049   5943325.90757  22129711.0574                   22129715.8344
        44.5004         26.7504
  -7058404.01249  -5496940.03147  19541322.5104                   19541321.8384
        51.0004         39.0004
 -12616850.44549 -12569579.25447  20367123.0254                   20367124.4794
        48.0004         35.2504
 -10816576.32449  -8427226.22046  22420626.9244                   22420628.9634
        40.7504         21.5004
 03  1 14 19  3 29.9940000  0  9G 7G 8G 4G 9G26G27G28G29G11
 -26226013.21549 -20405445.89648  18709700.5334                   18709699.9554
        51.7504         42.2504
   1999685.82049   1559206.34947  20598887.9794                   20598890.1474
        45.5004         33.5004
   -400570.71149   -292693.36746  22730290.9004                   22730298.5574
        39.0004         21.7504
   -399239.05949   -291458.30246  22567498.7914                   22567502.3774
        40.7504         22.0004
 -16079216.75449 -15396328.20447  20387765.6904                   20387766.3934
        46.2504         35.2504
    188188.97749   5996588.09357  22142719.2834                   22142724.5144
        44.7504         26.0004
  -7057253.80949  -5496043.78647  19541541.7294                   19541540.4244
        51.5004         39.2504
 -12606090.83649 -12561195.22147  20369170.7834                   20369171.7644
        48.2504         34.7504
 -10802141.71949  -8415978.59146  22423372.6274                   22423376.0374
        39.7504         20.7504
 03  1 14 19  3 59.9940000  0  9G 7G 8G 4G 9G26G27G28G29G11
 -26268442.96949 -20438508.03548  18701626.4004                   18701625.5184
        52.5004         42.5004
   2055954.22349   1603051.67247  20609595.4324                   20609598.1744
        45.0004         33.0004
   -537986.69149   -399770.22946  22704141.5184                   22704148.8694
        40.0004         22.5004
   -536036.85949   -398054.01146  22541467.2444                   22541470.1744
        42.5004         22.5004
 -16081911.80949 -15398428.30447  20387253.2994                   20387254.1314
        47.5004         34.0004
    256726.10948   6049993.47846  22155760.9944                   22155767.2364
        29.5004         20.2504
  -7055957.28149  -5495033.54047  19541788.5414                   19541787.1824
        51.7504         38.7504
 -12594871.51649 -12552452.97947  20371305.7444                   20371306.4864
        47.7504         34.2504
 -10787258.62149  -8404381.57946  22426205.3154                   22426208.3034
        39.0004         19.5004
 03  1 14 19  4 29.9940000  0  9G 7G 8G 4G 9G26G27G28G29G11
 -26310435.22349 -20471229.26948  18693635.6194                   18693634.8734
        52.0004         42.7504
   2112518.02349   1647127.18847  20620359.9084                   20620361.4164
        47.5004         32.0004
   -675468.82049   -506898.61046  22677979.2134                   22677986.5724
        40.5004         22.2504
   -672768.11349   -504597.87146  22515448.1434                   22515451.1074
        44.5004         25.5004
 -16084092.41849 -15400127.52747  20386838.1194                   20386838.7294
        48.7504         35.5004
    325453.69559   6103546.92856  22168839.4944                   22168845.7914
        37.2504         20.2504
  -7054506.27749  -5493902.90147  19542064.7054                   19542063.2324
        51.7504         39.2504
 -12583186.58249 -12543347.91147  20373529.2994                   20373530.3934
        49.0004         35.0004
 -10771920.62149  -8392429.99346  22429124.0574                   22429126.8734
        41.2504         20.0004
 03  1 14 19  4 59.9940000  0  9G 7G 8G 4G 9G26G27G28G29G11
 -26351989.41849 -20503609.17048  18685728.2604                   18685727.4474
        52.0004         42.0004
   2169376.99649   1691432.77447  20631179.1824                   20631181.1784
        46.2504         31.2504
   -813013.01649   -614075.40146  22651805.4634                   22651811.1314
        41.0004         23.0004
   -809429.82449   -611087.51746  22489442.0654                   22489445.1584
        42.0004         23.7504
 -16085759.10549 -15401426.30147  20386520.9084                   20386521.6974
        48.0004         34.0004
    394370.22349   6157247.83547  22181954.2444                   22181960.7994
        43.2504         28.0004
  -7052900.25049  -5492651.48047  19542370.3304                   19542369.0064
        51.0004         38.7504
 -12571037.02749 -12533880.81247  20375841.4944                   20375842.5684
        48.2504         34.7504
 -10756127.61749  -8380123.92046  22432130.5804                   22432132.6044
        42.2504         21.5004
 03  1 14 19  5 29.9940000  0  9G 7G 8G 4G 9G26G27G28G29G11
 -26393105.87149 -20535647.95248  18677903.8694                   18677902.9204
        52.5004         42.5004
   2226530.10949   1735967.50347  20642055.7134                   20642057.5454
        45.7504         32.2504
   -950616.31649   -721298.28346  22625619.6194                   22625626.1234
        41.5004         22.5004
   -946019.60949   -717521.09246  22463450.2994                   22463453.6074
        41.7504         22.7504
 -16086913.10949 -15402325.57447  20386301.3224                   20386302.1904
        47.5004         33.7504
    463474.69149   6211095.33246  22195104.7684                   22195111.4244
        43.7504         22.7504
  -7051138.70749  -5491278.87047  19542705.1904                   19542704.1744
        51.7504         38.5004
 -12558424.84449 -12524053.22347  20378241.3614                   20378242.8614
        47.7504         34.5004
 -10739880.77349  -8367464.14046  22435222.3154                   22435224.0104
        42.5004         22.0004
 03  1 14 19  5 59.9940000  0  9G 7G 8G 4G 9G26G27G28G29G11
 -26433788.12149 -20567348.40648  18670162.2754                   18670161.5724
        52.0004         42.5004
   2283973.29349   1780728.25747  20652987.0574                   20652989.2724
        46.7504         32.0004
  -1088278.54349   -828567.14446  22599422.7214                   22599429.2794
        40.5004         22.7504
  -1082537.95749   -823898.99546  22437471.5574                   22437474.7564
        40.0004         23.5004
 -16087558.95749 -15402828.87647  20386178.5724                   20386179.5104
        46.5004         34.0004
    532762.59849   6265085.85546  22208288.6044                   22208296.2684
        37.2504         14.7504
  -7049224.58649  -5489787.35747  19543069.6504                   19543068.4674
        50.2504         38.7504
 -12545354.85949 -12513868.90047  20380728.6744                   20380729.7954
        48.0004         35.0004
 -10723184.08649  -8354453.87046  22438399.5574                   22438401.7294
        41.5004         21.5004
 03  1 14 19  6 29.9940000  0  9G 7G 8G 4G 9G26G27G28G29G11
 -26474025.99249 -20598702.59348  18662505.6194                   18662504.5884
        52.2504         42.5004
   2341715.76649   1825722.20647  20663974.3694                   20663977.5534
        47.2504         32.0004
  -1225986.09449   -935871.35946  22573218.0494                   22573224.0844
        41.0004         24.0004
  -1218972.18049   -930211.34846  22411509.6274                   22411511.9084
        41.5004         22.5004
 -16087687.47349 -15402929.08947  20386154.2994                   20386155.2794
        48.5004         33.5004
                                  22221510.018
        26.750
  -7047147.41449  -5488168.80447  19543465.1824                   19543463.5844
        51.2504         38.0004
 -12531818.50049 -12503321.17947  20383304.5654                   20383305.7364
        48.0004         35.0004
 -10706028.09449  -8341085.74846  22441663.7684                   22441666.1704
        41.7504         21.5004
 03  1 14 19  6 59.9940000  0  8G 7G 8G 4G 9G26G28G29G11
 -26513823.75049 -20629713.82048  18654932.0414                   18654931.1544
        51.7504         42.2504
   2399752.83249   1870945.78947  20675019.3614                   20675020.9674
        46.2504         31.0004
  -1363739.27349  -1043211.22846  22547004.2364                   22547010.0654
        40.0004         22.7504
  -1355323.46149  -1036459.04546  22385562.2994                   22385565.2834
        39.2504         21.7504
 -16087303.80149 -15402630.18047  20386227.2684                   20386228.0144
        49.0004         34.0004
  -7044910.61349  -5486425.85447  19543890.5024                   19543889.0964
        51.0004         38.0004
 -12517821.04749 -12492414.14747  20385968.7684                   20385969.7014
        48.5004         34.7504
 -10688417.59049  -8327363.44246  22445015.0804                   22445017.7834
        41.5004         21.2504
 03  1 14 19  7 29.9940000  0  9G 7G 8G 4G 9G26G27G28G29G11
 -26553185.19549 -20660385.07348  18647441.7604                   18647440.8264
        51.2504         42.2504
   2458079.86749   1916395.23747  20686118.3224                   20686120.4594
        46.2504         31.7504
  -1501538.80149  -1150587.24546  22520781.5024                   22520788.2094
        42.0004         22.7504
  -1491592.90649  -1142642.94146  22359630.3224                   22359633.3614
        38.5004         20.7504
 -16086412.93049 -15401936.04847  20386396.5104                   20386397.3974
        48.5004         33.7504
     68451.75459   6378683.44857  22248061.4324                   22248068.5104
        43.5004         27.5004
  -7042517.27049  -5484560.93547  19544345.9794                   19544344.7794
        50.5004         38.2504
 -12503368.21949 -12481152.29347  20388719.0334                   20388720.2404
        48.7504         34.5004
 -10670357.09049  -8313290.51746  22448452.0804                   22448455.6434
        41.2504         20.7504
 03  1 14 19  7 59.9940000  0  9G 7G 8G 4G 9G26G27G28G29G11
 -26592110.60249 -20690716.53748  18640034.5654                   18640033.6934
        51.2504         42.5004
   2516695.80949   1962069.82147  20697273.4474                   20697275.4824
        47.0004         33.5004
  -1639380.97749  -1257996.50546  22494550.8304                   22494557.4794
        41.2504         22.5004
  -1627778.12549  -1248761.18646  22333714.7294                   22333718.1354
        38.5004         18.2504
 -16085016.02049 -15400847.59347  20386662.5724                   20386663.2294
        48.2504         34.0004
    138483.37549   6433253.31847  22261388.4864                   22261395.2954
        43.0004         26.7504
  -7039967.18749  -5482573.87647  19544831.5804                   19544830.0064
        51.5004         38.0004
 -12488461.97749 -12469537.11247  20391555.4164                   20391556.5534
        48.7504         34.5004
 -10651847.65649  -8298867.79646  22451974.4404                   22451977.1544
        42.2504         21.7504
 03  1 14 19  8 29.9940000  0  9G 7G 8G 4G 9G26G27G28G29G11
 -26630600.25449 -20720708.46348  18632710.1044                   18632709.5294
        51.2504         42.7504
   2575599.90649   2007968.94847  20708482.2834                   20708485.0374
        46.5004         31.5004
  -1777262.53949  -1365436.60346  22468312.5254                   22468319.4084
        43.0004         22.5004
  -1763876.37949  -1354811.74246  22307817.4714                   22307819.3384
        41.5004         19.5004
 -16083114.50849 -15399365.94347  20387024.1584                   20387025.1354
        48.2504         33.5004
    208694.93849   6487963.31546  22274748.6824                   22274756.5804
        41.0004         25.5004
  -7037259.92649  -5480464.34247  19545346.4404                   19545345.2174
        51.5004         38.5004
 -12473103.70349 -12457569.70647  20394477.9404                   20394479.2524
        48.5004         34.0004
 -10632890.17649  -8284095.86946  22455582.4164                   22455584.9404
        42.2504         21.5004
 03  1 14 19  8 59.9940000  0  9G 7G 8G 4G 9G26G27G28G29G11
 -26668653.92649 -20750360.66648  18625469.1274                   18625468.1354
        51.7504         42.7504
   2634791.44149   2054092.04947  20719745.4864                   20719748.4324
        46.5004         32.0004
  -1915179.32849  -1472904.13546  22442067.2294                   22442074.2994
        42.5004         22.5004
  -1899884.66049  -1460792.06846  22281934.8694                   22281937.5254
        41.2504         19.2504
 -16080709.10549 -15397491.65447  20387481.7834                   20387482.8504
        49.0004         32.7504
    279085.91049   6542812.99246  22288144.0334                   22288152.0494
        38.0004         17.2504
  -7034394.78949  -5478231.78047  19545891.7214                   19545890.4474
        50.7504         38.2504
 -12457294.75449 -12445251.13347  20397486.3384                   20397487.7174
        47.7504         34.0004
 -10613485.13749  -8268975.21046  22459275.3074                   22459277.5574
        43.5004         23.0004
 03  1 14 19  9 29.9940000  0  9G 7G 8G 4G 9G26G27G28G29G11
 -26706271.68049 -20779673.18748  18618310.4164                   18618309.7254
        51.2504         42.5004
   2694269.80949   2100438.68047  20731063.9554                   20731066.9084
        46.0004         32.0004
  -2053127.76649  -1580396.29246  22415817.3614                   22415822.5494
        42.5004         21.5004
  -2035799.81249  -1566699.98446  22256071.9714                   22256073.1074
        42.5004         18.2504
 -16077800.73049 -15395225.45147  20388035.5184                   20388036.6194
        48.0004         33.2504
    349654.97349   6597801.75046  22301573.1584                   22301580.5414
        39.0004         17.2504
  -7031370.93449  -5475875.54447  19546467.4634                   19546465.9004
        51.0004         38.5004
 -12441036.68449 -12432582.60447  20400580.2754                   20400581.6194
        47.7504         33.7504
 -10593633.31649  -8253506.40146  22463052.7364                   22463055.8344
        44.5004         24.7504
 03  1 14 19  9 59.9940000  0  8G 7G 8G 4G 9G26G28G29G11
 -26743455.86349 -20808647.86048  18611234.5254                   18611233.6194
        51.5004         42.0004
   2754031.96549   2147006.42947  20742436.9324                   20742439.4324
        46.5004         31.5004
  -2191106.64849  -1687912.21246  22389560.2834                   22389566.2604
        41.2504         21.5004
  -2171621.37549  -1672535.03346  22230226.0654                   22230227.4754
        44.0004         21.5004
 -16074393.06249 -15392570.17347  20388684.2054                   20388685.0494
        48.0004         33.2504
  -7028190.17249  -5473397.05847  19547072.6354                   19547071.1704
        51.0004         38.2504
 -12424333.52349 -12419567.25847  20403759.0574                   20403760.1194
        48.0004         33.0004
 -10573337.46549  -8237691.53846  22466915.0574                   22466918.8574
        43.5004         24.7504
 03  1 14 19 10 29.9940000  0  8G 7G 8G 4G 9G26G28G29G11
 -26780205.76649 -20837284.13848  18604241.1194                   18604240.1704
        51.7504         42.2504
   2814077.97349   2193795.35447  20753863.5414                   20753866.3114
        46.5004         32.2504
  -2329111.27349  -1795448.27246  22363298.9404                   22363304.7174
        41.7504         19.5004
  -2307345.76249  -1778294.23046  22204397.2214                   22204401.2564
        43.0004         22.2504
 -16070486.34449 -15389526.03847  20389427.5494                   20389428.4634
        48.0004         33.0004
  -7024850.83649  -5470794.99647  19547708.0884                   19547706.3614
        51.0004         38.5004
 -12407185.86749 -12406205.52747  20407021.7914                   20407022.9674
        47.7504         33.0004
 -10552597.25849  -8221530.49146  22470862.2994                   22470864.8384
        43.5004         22.7504
 03  1 14 19 10 59.9940000  0  8G 7G 8G 4G 9G26G28G29G11
 -26816516.66849 -20865578.33748  18597331.2914                   18597330.9044
        51.0004         42.0004
   2874411.76649   2240808.52447  20765344.4244                   20765347.6904
        45.5004         31.5004
  -2467133.14849  -1902997.67746  22337034.0654                   22337040.4044
        42.5004         21.7504
  -2442964.98449  -1883971.44946  22178590.4794                   22178593.9084
        43.7504         24.0004
 -16066076.96149 -15386090.20947  20390266.9714                   20390267.6504
        48.5004         34.2504
  -7021347.69949  -5468065.28547  19548374.7604                   19548373.3734
        51.0004         38.0004
 -12389590.60549 -12392495.01647  20410370.5804                   20410371.2174
        48.0004         32.7504
 -10531409.25449  -8205020.53246  22474894.1584                   22474897.7874
        43.2504         23.0004
 03  1 14 19 11 29.9940000  0  8G 7G 8G 4G 9G26G28G29G11
 -26852381.68749 -20893525.10448  18590506.5254                   18590505.6974
        51.2504         42.0004
   2935039.60949   2288050.82047  20776881.6904                   20776885.3734
        45.7504         31.0004
  -2605161.80149  -2010552.40646  22310768.3544                   22310774.9284
        42.5004         21.5004
  -2578469.24649  -1989559.14246  22152804.7134                   22152807.9204
        44.5004         25.0004
 -16061158.99649 -15382258.08947  20391202.8224                   20391203.5804
        48.2504         33.5004
  -7017672.90649  -5465201.84247  19549073.8854                   19549072.6744
        51.0004         38.0004
 -12371542.21949 -12378431.42047  20413804.6744                   20413806.1234
        48.5004         32.5004
 -10509767.11349  -8188156.63146  22479012.8854                   22479015.5884
        44.5004         22.7504
 03  1 14 19 11 59.9940000  0  8G 7G 8G 4G 9G26G28G29G11
 -26887810.24249 -20921131.75048  18583764.7294                   18583764.1504
        51.0004         42.0004
   2995951.51249   2335514.47747  20788472.8694                   20788475.8774
        47.0004         31.2504
  -2743202.80549  -2118116.69246  22284499.2754                   22284505.8854
        42.7504         21.2504
  -2713864.95349  -2095062.26346  22127039.9404                   22127042.3424
        45.0004         25.5004
 -16055743.01649 -15378037.89947  20392233.3304                   20392234.2094
        48.7504         33.7504
  -7013835.10549  -5462211.35947  19549804.2214                   19549802.9634
        51.0004         37.2504
 -12353051.77049 -12364023.36047  20417323.6504                   20417324.8544
        47.7504         32.7504
 -10487680.55549  -8170946.40346  22483215.8384                   22483218.9984
        44.7504         24.0004
 03  1 14 19 12 29.9940000  0  8G 7G 8G 4G 9G26G28G29G11
 -26922804.71549 -20948400.16648  18577105.6274                   18577104.5764
        51.7504         42.0004
   3057144.52749   2383197.19547  20800118.1584                   20800120.2684
        47.5004         31.2504
  -2881254.50049  -2225689.32246  22258228.9864                   22258235.1974
        42.2504         22.5004
  -2849151.51649  -2200480.30546  22101294.9794                   22101297.8574
        42.7504         24.2504
 -16049832.41049 -15373432.28747  20393358.0884                   20393358.9794
        48.5004         34.0004
  -7009836.04749  -5459095.23447  19550565.0334                   19550564.0064
        51.2504         37.5004
 -12334123.16049 -12349273.87547  20420925.7524                   20420926.6974
        48.0004         33.0004
 -10465153.03149  -8153392.56346  22487502.1504                   22487505.7994
        44.5004         24.7504
 03  1 14 19 12 59.9940000  0  8G 7G 8G 4G 9G26G28G29G11
 -26957360.68749 -20975326.89548  18570529.6584                   18570529.0494
        51.2504         42.7504
   3118622.12549   2431101.68447  20811816.3224                   20811820.0254
        46.0004         31.5004
  -3019309.09049  -2333264.23446  22231958.8614                   22231963.7294
        43.2504         22.5004
  -2984321.51249  -2305807.51446  22075574.0804                   22075576.4554
        44.0004         24.0004
 -16043423.93749 -15368438.72147  20394577.7294                   20394578.5574
        45.7504         34.0004
  -7005670.48049  -5455849.35547  19551358.2684                   19551356.6004
        49.7504         37.7504
 -12314753.64549 -12334180.82547  20424611.7834                   20424612.6544
        47.5004         32.7504
 -10442180.92649  -8135492.30746  22491873.9554                   22491877.2134
        44.0004         24.2504
 03  1 14 19 13 29.9940000  0  8G 7G 8G 4G 9G26G28G29G11
 -26991484.12149 -21001916.58348  18564036.4164                   18564035.0024
        52.0004         42.2504
   3180377.92649   2479222.89947  20823568.1274                   20823571.4714
        46.0004         31.5004
  -3157368.08649  -2440842.55246  22205685.9474                   22205692.6664
        43.0004         22.5004
  -3119377.74649  -2411046.10646  22049873.7914                   22049876.4554
        43.5004         22.7504
 -16036524.44549 -15363062.56347  20395890.2914                   20395891.4824
        49.0004         33.5004
  -7001343.38349  -5452477.60847  19552181.5574                   19552179.6044
        50.7504         38.0004
 -12294950.30149 -12318749.71547  20428380.5494                   20428381.5614
        48.2504         33.5004
 -10418770.36349  -8117250.37846  22496328.3854                   22496332.2174
        44.0004         25.5004
 03  1 14 19 13 59.9940000  0  8G 7G 8G 4G 9G26G28G29G11
 -27025177.48849 -21028171.14948  18557624.4084                   18557623.5614
        51.5004         41.7504
   3242408.73849   2527558.43247  20835372.8154                   20835376.2094
        46.5004         31.5004
  -3295430.33249  -2548423.42546  22179413.9084                   22179419.6314
        43.5004         22.2504
  -3254319.66849  -2516195.59346  22024195.6044                   22024197.6474
        43.5004         23.0004
 -16029137.76249 -15357306.76447  20397296.1044                   20397297.4674
        48.5004         34.2504
  -6996856.57449  -5448981.40847  19553035.2444                   19553033.9404
        50.7504         37.7504
 -12274717.52749 -12302983.99747  20432230.7444                   20432231.7094
        48.7504         33.5004
 -10394924.87549  -8098669.51946  22500866.4164                   22500870.0844
        45.0004         22.7504
 03  1 14 19 14 29.9940000  0  8G 7G 8G 4G 9G26G28G29G11
 -27058436.95749 -21054087.62248  18551295.8384                   18551294.7094
        51.2504         42.5004
   3304717.78549   2576110.75847  20847229.8694                   20847233.1824
        45.5004         31.0004
  -3433488.32849  -2656001.01246  22153142.3544                   22153148.8384
        43.5004         22.5004
  -3389140.08649  -2621250.35446  21998537.5334                   21998542.0724
        39.7504         22.5004
 -16021260.80549 -15351168.92147  20398795.2604                   20398796.6864
        48.2504         34.0004
  -6992205.19949  -5445356.99447  19553920.2754                   19553918.7994
        50.5004         37.5004
 -12254052.72349 -12286881.62247  20436163.1044                   20436163.9944
        48.5004         33.5004
 -10370641.23049  -8079747.27346  22505487.1354                   22505490.9984
        43.2504         22.5004
 03  1 14 19 14 59.9940000  0  8G 7G 8G 4G 9G26G28G29G11
 -27091268.62549 -21079670.73948  18545047.7834                   18545047.1004
        51.0004         42.7504
   3367298.38349   2624874.68047  20859138.9794                   20859141.5534
        46.0004         29.0004
  -3571543.92249  -2763576.74446  22126871.2364                   22126876.8034
        44.0004         22.0004
  -3523841.93449  -2726212.81746  21972906.2364                   21972908.4004
        42.2504         23.0004
 -16012900.94949 -15344654.81547  20400386.0574                   20400387.2644
        48.2504         34.2504
  -6987394.57849  -5441608.47647  19554835.7054                   19554834.6234
        51.2504         38.0004
 -12232963.60549 -12270448.63247  20440176.1904                   20440177.6394
        48.2504         33.2504
 -10345925.98449  -8060488.67646  22510190.5104                   22510194.4904
        43.0004         22.7504
 03  1 14 19 15 29.9940000  0  8G 7G 8G 4G 9G26G28G29G11
 -27123675.06649 -21104922.51448  18538880.9404                   18538880.2444
        51.7504         42.2504
   3430147.18449   2673847.59347  20871098.5024                   20871102.0764
        44.7504         30.2504
  -3709595.79749  -2871149.57546  22100600.7834                   22100606.6864
        44.2504         22.2504
  -3658424.56249  -2831082.29146  21947296.1664                   21947298.6314
        43.0004         22.7504
 -16004061.92649 -15337767.32747  20402068.2524                   20402069.6354
        48.7504         34.7504
  -6982426.17249  -5437737.02447  19555781.2994                   19555779.8114
        51.0004         37.5004
 -12211454.23049 -12253688.15247  20444269.4634                   20444270.6544
        48.7504         33.0004
 -10320782.52749  -8040896.41146  22514975.9324                   22514979.1394
        43.0004         22.0004
 03  1 14 19 15 59.9940000  0  8G 7G 8G 4G 9G26G28G29G11
 -27155655.91849 -21129842.65748  18532795.3224                   18532794.6974
        51.2504         42.5004
   3493264.07449   2723029.42447  20883110.0884                   20883112.6154
        45.7504         31.0004
  -3847639.53549  -2978716.03146  22074331.5334                   22074337.6744
        41.7504         22.7504
  -3792884.52749  -2935856.21046  21921709.2994                   21921711.6864
        43.5004         22.5004
 -15994744.46949 -15330507.03947  20403841.7214                   20403842.4944
        48.5004         34.0004
  -6977298.90649  -5433741.78847  19556756.9864                   19556755.7994
        50.5004         37.2504
 -12189525.87149 -12236601.21347  20448442.0724                   20448443.6274
        48.0004         32.7504
 -10295211.51649  -8020971.11146  22519841.6354                   22519844.4204
        44.2504         21.2504
 03  1 14 19 16 29.9940000  0  8G 7G 8G 4G 9G26G28G29G11
 -27187212.62149 -21154432.29248  18526790.1114                   18526789.2954
        51.5004         42.5004
   3556646.77349   2772418.36247  20895170.6584                   20895174.1624
        43.0004         28.7504
  -3985673.04749  -3086274.53146  22048065.0654                   22048070.5924
        41.5004         24.2504
  -3927220.14549  -3040533.22446  21896145.0494                   21896147.9004
        43.5004         22.2504
 -15984951.19549 -15322875.97747  20405705.1274                   20405706.1274
        48.0004         34.0004
  -6972013.51649  -5429623.32247  19557762.7754                   19557761.4594
        50.5004         37.5004
 -12167181.75049 -12219190.28947  20452694.1194                   20452695.2254
        48.5004         33.7504
 -10269215.09049  -8000714.25746  22524788.2444                   22524791.5104
        43.7504         22.0004
 03  1 14 19 16 59.9940000  0  8G 7G 8G 4G 9G26G28G29G11
 -27218343.07449 -21178689.78048  18520866.3154                   18520865.5764
        51.2504         42.2504
   3620297.25049   2822015.99047  20907283.4474                   20907285.9864
        44.7504         28.5004
  -4123689.59449  -3193819.77846  22021801.4944                   22021807.5494
        43.0004         23.5004
  -4061425.69549  -3145108.93846  21870606.9164                   21870609.8034
        43.7504         22.7504
 -15974680.80949 -15314873.12147  20407659.5884                   20407660.5104
        48.0004         34.2504
  -6966566.46149  -5425378.90047  19558799.3154                   19558797.8424
        50.5004         37.0004
 -12144420.71949 -12201454.50547  20457025.9404                   20457027.0454
        48.7504         33.0004
 -10242791.44549  -7980124.46646  22529817.1664                   22529820.2294
        43.7504         22.0004
 03  1 14 19 17 29.9940000  0  8G 7G 8G 4G 9G26G28G29G11
 -27249051.14849 -21202618.14648  18515022.9244                   18515021.7444
        50.7504         42.2504
   3684210.48449   2871818.31747  20919446.2214                   20919448.8574
        44.0004         29.7504
  -4261689.30949  -3301351.90646  21995540.6824                   21995546.2524
        43.0004         22.7504
  -4195502.30149  -3249584.20046  21845092.9714                   21845095.0374
        44.0004         22.2504
 -15963938.69949 -15306502.70347  20409703.8464                   20409704.9434
        49.0004         34.0004
  -6960960.85949  -5421010.93547  19559866.2524                   19559864.7874
        50.2504         37.2504
 -12121248.60249 -12183398.39147  20461434.8774                   20461436.5804
        48.0004         33.5004
 -10215945.49649  -7959205.66746  22534925.7214                   22534928.2484
        43.5004         19.7504
 03  1 14 19 17 59.9940000  0  8G 7G 8G 4G 9G26G28G29G11
 -27279337.75049 -21226218.09148  18509259.3934                   18509258.5224
        51.5004         42.2504
   3748385.26649   2921824.46947  20931658.5334                   20931661.5374
        44.5004         28.7504
  -4399669.04749  -3408868.44946  21969283.6194                   21969290.1234
        41.0004         22.7504
  -4329447.40249  -3353956.93046  21819604.3934                   21819606.8424
        45.0004         24.7504
 -15952726.65649 -15297766.10247  20411837.6434                   20411838.7644
        48.2504         34.2504
  -6955196.63349  -5416519.36847  19560963.2754                   19560961.9324
        50.7504         37.5004
 -12097667.71149 -12165023.72647  20465922.3694                   20465923.9164
        47.7504         33.0004
 -10188678.53149  -7937958.84246  22540114.9004                   22540117.1354
        42.7504         18.5004
 03  1 14 19 18 29.9940000  0  8G 7G 8G 4G 9G26G28G29G11
 -27309205.69549 -21249491.80948  18503575.8464                   18503574.5884
        51.2504         42.0004
   3812818.12549   2972031.67647  20943919.9404                   20943921.6044
        43.2504         27.5004
  -4537627.46549  -3516368.37746  21943030.9004                   21943036.9204
        41.5004         22.7504
  -4463260.47349  -3458226.82346  21794140.5574                   21794142.6704
        44.7504         22.7504
 -15941048.60949 -15288666.37347  20414059.7134                   20414060.8464
        48.7504         34.0004
  -6949275.44549  -5411905.50347  19562090.0334                   19562088.7914
        51.0004         38.0004
 -12073682.49249 -12146334.04747  20470486.3304                   20470488.3774
        47.5004         33.5004
 -10160994.20349  -7916386.64646  22545382.1114                   22545385.4514
        42.7504         18.5004
 03  1 14 19 18 59.9940000  0  8G 7G 8G 4G 9G26G28G29G11
 -27338654.51649 -21272438.93748  18497971.9474                   18497970.8694
        51.0004         42.0004
   3877508.82049   3022439.84647  20956229.1904                   20956232.4474
        42.5004         28.5004
  -4675560.02349  -3623848.05946  21916783.1114                   21916789.0884
        42.0004         22.5004
  -4596937.79349  -3562390.83546  21768701.5574                   21768704.9754
        43.5004         24.5004
 -15928905.38349 -15279204.17247  20416370.5964                   20416371.8574
        48.5004         34.5004
  -6943196.11349  -5407168.41047  19563246.8224                   19563245.5144
        50.5004         37.7504
 -12049293.83249 -12127330.00447  20475127.5414                   20475129.5254
        47.7504         33.2504
 -10132892.39149  -7894489.26546  22550730.6354                   22550732.6584
        44.0004         19.5004
 03  1 14 19 19 29.9940000  0  8G 7G 8G 4G 9G26G28G29G11
 -27367683.83249 -21295059.17348  18492447.7834                   18492447.0064
        51.2504         42.7504
   3942457.19949   3073048.80947  20968589.0884                   20968591.8504
        44.0004         27.0004
  -4813462.56249  -3731304.27846  21890540.7364                   21890546.8574
        40.0004         23.2504
  -4730475.77349  -3666446.36646  21743290.8304                   21743293.6474
        44.0004         23.7504
 -15916297.81249 -15269380.14047  20418769.7914                   20418771.1354
        49.0004         34.2504
  -6936957.11749  -5402306.89547  19564434.2054                   19564432.6544
        50.7504         37.0004
 -12024503.22349 -12108012.72647  20479845.0804                   20479846.8694
        48.0004         33.0004
 -10104373.95749  -7872267.30646  22556157.2364                   22556160.4474
        43.5004         19.7504
 03  1 14 19 19 59.9940000  0  8G 7G 8G 4G 9G26G28G29G11
 -27396290.73449 -21317350.25648  18487004.2834                   18487003.1004
        51.7504         42.2504
   4007665.69549   3123860.42647  20980998.2364                   20981001.7724
        45.7504         28.5004
  -4951327.72349  -3838731.40646  21864305.7214                   21864311.6974
        40.7504         22.7504
  -4863867.69949  -3770388.03247  21717907.2754                   21717909.5884
        43.7504         26.2504
 -15903223.84849 -15259192.68447  20421257.7054                   20421258.7874
        48.7504         34.0004
  -6930554.45749  -5397317.85747  19565652.7914                   19565651.2754
        50.7504         37.2504
 -11999309.00849 -12088380.94547  20484639.6744                   20484641.0844
        47.5004         33.7504
 -10075436.50049  -7849718.68046  22561664.1974                   22561666.7954
        44.0004         20.7504
 03  1 14 19 20 29.9940000  0  8G 7G 8G 4G 9G26G28G29G11
 -27424480.39849 -21339316.22348  18481639.9554                   18481638.9434
        51.0004         42.5004
   4073128.40249   3174870.15847  20993455.5654                   20993459.2094
        44.0004         28.0004
  -5089156.58649  -3946130.21546  21838077.9944                   21838083.5884
        41.5004         24.5004
  -4997115.61349  -3874217.44946  21692551.2684                   21692553.3544
        43.5004         25.5004
 -15889689.99249 -15248646.86947  20423833.0574                   20423834.2834
        48.5004         34.0004
  -6923992.19949  -5392204.46147  19566901.1904                   19566900.0684
        50.0004         37.5004
 -11973718.05149 -12068440.02547  20489509.6434                   20489510.8774
        48.0004         32.2504
 -10046085.50849  -7826847.89446  22567249.5654                   22567253.4404
        43.5004         21.5004
 03  1 14 19 20 59.9930000  0  8G 7G 8G 4G 9G26G28G29G11
 -27452256.26649 -21360959.74748  18476354.1464                   18476353.4074
        51.0004         42.5004
   4138838.40249   3226072.57747  21005958.6614                   21005963.0994
        43.5004         27.7504
  -5226944.85249  -4053497.35046  21811857.1694                   21811863.0094
        41.5004         25.0004
  -5130216.00049  -3977931.93247  21667223.2084                   21667225.5874
        43.5004         26.0004
 -15875702.35549 -15237747.46347  20426494.7394                   20426496.4854
        48.2504         33.2504
  -6917273.81249  -5386969.39447  19568179.6074                   19568178.6614
        50.7504         37.7504
 -11947736.98449 -12048195.11747  20494453.5754                   20494455.0244
        47.5004         32.5004
 -10016327.87149  -7803660.24046  22572912.3334                   22572915.8024
        44.5004         22.5004
 03  1 14 19 21 29.9930000  0  8G 7G 8G 4G 9G26G28G29G11
 -27479618.43449 -21382280.91348  18471147.3104                   18471146.7284
        51.0004         42.2504
   4204800.99649   3277471.83647  21018511.8724                   21018515.5444
        44.5004         29.5004
  -5364695.73049  -4160835.33146  21785643.4504                   21785649.4664
        42.7504         25.5004
  -5263172.67649  -4081534.47846  21641921.5524                   21641924.6264
        42.7504         25.2504
 -15861259.25449 -15226493.13847  20429243.3494                   20429244.6344
        48.2504         33.5004
  -6910396.10549  -5381610.19047  19569488.8414                   19569487.1654
        50.5004         38.0004
 -11921363.96149 -12027644.78847  20499472.3724                   20499473.6074
        47.5004         32.5004
  -9986160.32049  -7780153.13146  22578653.3644                   22578656.0484
        45.0004         23.7504
 03  1 14 19 21 59.9930000  0  8G 7G 8G 4G 9G26G28G29G11
 -27506565.15649 -21403278.36048  18466019.3804                   18466018.5564
        50.5004         42.0004
   4271014.38749   3329066.43647  21031112.3024                   21031115.4424
        43.0004         29.0004
  -5502399.71549  -4268136.82346  21759439.4034                   21759445.2904
        42.7504         25.0004
  -5395977.06249  -4185018.27246  21616649.7474                   21616652.1034
        42.5004         24.0004
 -15846361.54349 -15214884.59247  20432078.0444                   20432079.6034
        47.5004         34.5004
  -6903357.44149  -5376125.56447  19570827.9354                   19570826.9584
        50.7504         37.5004
 -11894600.45749 -12006790.20147  20504565.7004                   20504566.8534
        47.7504         32.7504
  -9955583.07849  -7756326.83646  22584471.6614                   22584474.9784
        44.5004         23.7504
 03  1 14 19 22 29.9930000  0  8G 7G 8G 4G 9G26G28G29G11
 -27533101.17649 -21423955.77248  18460969.7164                   18460968.9424
        50.5004         42.0004
   4337473.08249   3380852.28047  21043759.0444                   21043762.5674
        45.2504         28.5004
  -5640057.46549  -4375402.27946  21733243.3804                   21733249.0564
        42.7504         24.2504
  -5528630.07049  -4288384.21646  21591406.9974                   21591409.4194
        43.0004         25.5004
 -15831015.02349 -15202926.31747  20434998.6464                   20435000.1814
        48.2504         34.2504
  -6896161.19549  -5370518.16547  19572197.4744                   19572195.9974
        50.5004         37.2504
 -11867453.04349 -11985636.46347  20509731.5364                   20509733.3144
        48.0004         32.7504
  -9924602.09449  -7732185.87846  22590366.9974                   22590371.3724
        44.5004         24.2504
 03  1 14 19 22 59.9930000  0  8G 7G 8G 4G 9G26G28G29G11
 -27559225.92649 -21444312.70748  18455998.4354                   18455997.4424
        51.0004         42.2504
   4404177.44549   3432829.48147  21056452.9974                   21056455.9234
        43.2504         29.7504
  -5777664.07449  -4482627.93947  21707057.7004                   21707063.3104
        43.2504         26.0004
  -5661127.64849  -4391628.94347  21566192.9274                   21566195.7514
        43.2504         26.7504
 -15815220.34449 -15190618.81147  20438004.5834                   20438005.8414
        47.5004         34.7504
  -6888805.75849  -5364786.71147  19573597.2944                   19573596.2324
        51.0004         38.0004
 -11839922.32449 -11964184.03947  20514970.3574                   20514971.8064
        47.0004         32.7504
  -9893217.38749  -7707730.32446  22596339.7244                   22596343.4584
        45.0004         23.5004
 03  1 14 19 23 29.9930000  0  8G 7G 8G 4G 9G26G28G29G11
 -27584933.24649 -21464344.38748  18451106.2784                   18451105.5444
        51.0004         42.0004
   4471132.87549   3485002.39747  21069193.4894                   21069197.1224
        43.7504         28.7504
  -5915209.25849  -4589805.80847  21680883.9424                   21680889.5484
        45.0004         29.5004
  -5793460.46549  -4494745.35647  21541011.1074                   21541014.0404
        43.0004         25.7504
 -15798972.66449 -15177958.33947  20441095.9584                   20441097.3174
        48.0004         34.0004
  -6881283.97349  -5358925.63447  19575028.7554                   19575027.2674
        51.0004         37.5004
 -11812004.08649 -11942429.66047  20520283.1854                   20520284.7634
        47.7504         32.5004
  -9861423.66049  -7682956.09846  22602390.0994                   22602393.4034
        44.0004         25.5004
 03  1 14 19 23 59.9930000  0  8G 7G 8G 4G 9G26G28G29G11
 -27610232.77049 -21484058.29148  18446292.1924                   18446291.2984
        51.2504         42.0004
   4538329.09849   3537362.88947  21081980.6224                   21081985.3254
        43.5004         29.5004
  -6052698.28549  -4696939.89847  21654720.2944                   21654725.9664
        44.2504         28.0004
  -5925634.66449  -4597738.13446  21515859.5674                   21515861.7904
        44.0004         25.2504
 -15782282.71149 -15164953.22247  20444272.0054                   20444273.6224
        47.7504         33.2504
  -6873604.24249  -5352941.47947  19576490.1694                   19576488.8604
        50.0004         37.5004
 -11783709.43749 -11920381.96147  20525667.2554                   20525668.8574
        47.2504         31.7504
  -9829231.09849  -7657871.06446  22608515.9424                   22608518.9894
        44.2504         24.7504
 03  1 14 19 24 29.9930000  0  8G 7G 8G 4G 9G26G28G29G11
 -27635126.36749 -21503455.89648  18441555.2084                   18441554.3104
        51.0004         41.7504
   4605763.74249   3589909.16347  21094813.5604                   21094817.0994
        44.5004         29.0004
  -6190128.98849  -4804028.60646  21628567.7244                   21628573.3964
        43.2504         25.5004
  -6057648.69149  -4700606.12247  21490737.6144                   21490739.8144
        44.5004         26.0004
 -15765153.55149 -15151605.87947  20447531.8334                   20447533.1344
        48.0004         33.5004
  -6865767.19549  -5346834.74647  19577981.2944                   19577980.4074
        49.7504         37.5004
 -11755041.65249 -11898043.50147  20531122.3494                   20531123.8684
        47.0004         31.2504
  -9796642.44549  -7632477.40846  22614717.6924                   22614721.4624
        43.5004         24.5004
 03  1 14 19 24 59.9930000  0  8G 7G 8G 4G 9G26G28G29G11
 -27659612.12949 -21522535.71848  18436895.4034                   18436894.6184
        50.5004         42.0004
   4673438.23849   3642642.36347  21107691.5994                   21107695.5014
        44.5004         30.0004
  -6327494.79749  -4911066.82247  21602428.5524                   21602432.6814
        44.5004         26.5004
  -6189496.87949  -4803344.88046  21465647.7004                   21465650.0794
        44.7504         25.0004
 -15747584.49649 -15137915.75047  20450874.8804                   20450876.6304
        47.5004         33.7504
  -6857769.68749  -5340602.99547  19579503.2634                   19579502.2474
        49.7504         37.2504
 -11726000.40649 -11875414.04347  20536648.9584                   20536650.6104
        47.2504         31.5004
  -9763656.29749  -7606774.02646  22620994.4824                   22620998.0834
        43.2504         24.5004
 03  1 14 19 25 29.9930000  0  8G 7G 8G 4G 9G26G28G29G11
 -27683688.05149 -21541296.19348  18432314.2714                   18432313.1304
        50.0004         42.0004
   4741354.05149   3695563.56547  21120615.8494                   21120618.6424
        44.7504         28.5004
  -6464789.77349  -5018049.87147  21576302.0674                   21576307.2944
        46.0004         29.7504
  -6321173.74249  -4905950.13946  21440589.9744                   21440592.3494
        44.0004         23.5004
 -15729574.79349 -15123882.26547  20454302.4194                   20454303.9274
        48.5004         33.7504
  -6849608.54349  -5334243.71147  19581056.4034                   19581055.1184
        50.0004         37.7504
 -11696585.37549 -11852493.31647  20542246.9354                   20542248.6924
        47.7504         32.0004
  -9730271.60249  -7580760.08846  22627347.4824                   22627351.0094
        41.7504         24.2504
 03  1 14 19 25 59.9930000  0  8G 7G 8G 4G 9G26G28G29G11
 -27707362.76249 -21559744.02348  18427808.7714                   18427807.8924
        50.2504         42.0004
   4809501.96149   3748665.62047  21133584.0914                   21133587.7634
        44.5004         28.7504
  -6602018.07449  -5124980.93747  21550188.4894                   21550193.8964
        45.2504         29.5004
  -6452684.58649  -5008426.02346  21415564.3804                   21415566.7044
        44.2504         24.0004
 -15711134.29349 -15109513.11547  20457811.5754                   20457812.8724
        48.0004         33.5004
  -6841291.14849  -5327762.68747  19582639.4034                   19582638.2164
        49.5004         37.7504
 -11666806.63749 -11829289.19347  20547913.5284                   20547915.4314
        48.0004         32.0004
  -9696497.69549  -7554442.87347  22633774.9664                   22633779.0754
        43.0004         26.0004
 03  1 14 19 26 29.9930000  0  8G 7G 8G 4G 9G26G28G29G11
 -27730634.53549 -21577877.88548  18423380.3644                   18423379.6694
        48.5004         41.7504
   4877883.13749   3801949.47847  21146596.4194                   21146601.8214
        42.2504         29.2504
  -6739173.64549  -5231855.32747  21524087.8804                   21524093.4424
        45.0004         26.7504
  -6584024.01649  -5110768.31746  21390570.8644                   21390574.3374
        44.2504         25.0004
 -15692262.27749 -15094807.69647  20461402.8254                   20461404.5054
        48.2504         34.0004
  -6832814.43449  -5321157.50247  19584252.3414                   19584251.2124
        48.0004         37.5004
 -11636663.94949 -11805801.46547  20553649.8334                   20553651.6184
        48.0004         32.0004
  -9662333.64149  -7527821.65446  22640275.7394                   22640279.6694
        42.2504         24.7504
 03  1 14 19 26 59.9930000  0  8G 7G 8G 4G 9G26G28G29G11
 -27753500.48049 -21595695.51648  18419029.3804                   18419028.4114
        49.5004         42.0004
   4946500.04749   3855417.00847  21159653.5444                   21159659.1964
        42.5004         28.0004
  -6876249.33249  -5338667.56046  21498003.1144                   21498007.7164
        45.0004         24.7504
  -6715185.41049  -5212971.94547  21365612.2634                   21365614.3724
        44.2504         27.2504
 -15672957.24249 -15079764.88147  20465076.5284                   20465077.5834
        48.0004         33.5004
  -6824174.37549  -5314425.05047  19585896.4664                   19585895.4824
        49.0004         37.0004
 -11606156.10249 -11782029.21347  20559454.6774                   20559456.8884
        48.2504         32.0004
  -9627777.12149  -7500894.61846  22646852.0364                   22646855.8144
        40.2504         25.2504
 03  1 14 19 27 29.9930000  0  8G 7G 8G 4G 9G26G28G29G11
 -27775965.64849 -21613200.86048  18414754.3804                   18414753.5674
        47.7504         42.0004
   5015347.05149   3909063.81647  21172756.2474                   21172760.5094
        44.2504         29.0004
  -7013245.66449  -5445417.93347  21471934.0834                   21471939.6424
        45.2504         26.7504
  -6846170.16049  -5315037.86747  21340686.8024                   21340689.1534
        43.5004         26.5004
 -15653225.35549 -15064389.43647  20468831.2714                   20468832.4354
        48.5004         33.2504
  -6815374.74649  -5307568.24947  19587571.3884                   19587570.3064
        47.0004         37.5004
 -11575289.61349 -11757977.49847  20565328.9274                   20565330.3764
        47.0004         32.0004
  -9592833.89849  -7473666.26146  22653501.7084                   22653505.9824
        39.2504         23.5004
 03  1 14 19 27 59.9930000  0  8G 7G 8G 4G 9G26G28G29G11
 -27798026.87949 -21630391.44848  18410556.0834                   18410555.1774
        50.0004         41.7504
   5084426.68049   3962891.94647  21185900.6694                   21185905.4274
        41.5004         28.7504
  -7150155.12149  -5552100.57947  21445880.9744                   21445886.2984
        46.0004         28.7504
  -6976971.45349  -5416960.85347  21315796.0604                   21315798.4074
        43.0004         26.0004
 -15633064.76649 -15048679.92347  20472667.7474                   20472669.0604
        47.0004         33.0004
  -6806411.13349  -5300583.66847  19589276.9824                   19589275.7984
        49.5004         37.5004
 -11544063.02749 -11733645.19647  20571271.2864                   20571272.8764
        47.7504         32.5004
  -9557501.46549  -7446134.66946  22660225.1854                   22660229.0244
        39.5004         23.7504
 03  1 14 19 28 29.9930000  0  8G 7G 8G 4G 9G26G28G29G11
 -27819692.48449 -21647273.75148  18406433.1534                   18406432.6574
        47.7504         42.0004
   5153730.27049   4016894.53047  21199089.6614                   21199092.7554
        43.0004         27.5004
  -7286981.55549  -5658718.51746  21419843.9584                   21419848.3994
        44.5004         22.7504
  -7107593.87949  -5518744.49347  21290938.8644                   21290941.1814
        43.7504         27.2504
 -15612485.05549 -15032643.84747  20476584.1384                   20476585.2044
        48.0004         33.5004
  -6797290.50449  -5293476.73747  19591012.5364                   19591011.2324
        47.7504         37.2504
 -11512486.14149 -11709039.93847  20577279.6384                   20577281.9354
        47.5004         32.5004
  -9521788.91449  -7418306.79346  22667020.8644                   22667025.1534
        38.5004         21.7504
